Date StartTime U_cm/s V_cm/s W_cm/s Ustd_cm/s Vstd_cm/s Wstd_cm/s Uvar_(cm/s)^2 Vvar_(cm/s)^2 Wvar_(cm/s)^2 KE_(m/s)^2 TurbulentKE_(m/s)^2 HorizWindSpeed_cm/s FrictionSpeec_cm/s DragCoef SpeedOfSound_m/s SonicTemperature_C Pressure_mb 
05/25/2014  00:00:00       11.891      -21.540       41.951       30.126       38.170       34.813      907.592     1456.913     1211.928        0.297        0.179       24.604       20.178        0.673      343.771       20.117      862.397
05/25/2014  00:01:00       28.497      -47.065       18.727       41.713       46.897       44.855     1739.967     2199.324     2012.002        0.466        0.298       55.020       28.091        0.261      343.942       20.410      862.398
05/25/2014  00:02:00       31.801        0.809       30.334       39.430       36.002       30.398     1554.756     1296.142      924.021        0.285        0.189       31.811       15.169        0.227      343.551       19.742      862.395
05/25/2014  00:03:00       51.051      -40.759       15.075       55.575       62.732       44.084     3088.531     3935.323     1943.373        0.673        0.448       65.326       47.996        0.540      343.373       19.440      862.402
05/25/2014  00:04:00       65.389      -83.794       13.462       50.009       57.278       40.008     2500.949     3280.818     1600.664        0.943        0.369      106.288       35.744        0.113      343.283       19.286      862.399
05/25/2014  00:05:00       41.990      -69.463       17.184       48.073       55.918       46.797     2311.015     3126.858     2189.978        0.725        0.381       81.169       32.090        0.156      343.263       19.252      862.395
05/25/2014  00:06:00        6.305      -94.145        4.897       40.190       38.124       33.456     1615.231     1453.470     1119.290        0.656        0.209       94.356       23.826        0.064      343.430       19.536      862.407
05/25/2014  00:07:00       45.557      -51.224       14.075       50.251       52.455       39.848     2525.127     2751.498     1587.869        0.588        0.343       68.552       33.109        0.233      343.536       19.716      862.429
05/25/2014  00:08:00       76.830      -81.943       13.944       81.087       74.456       58.332     6575.128     5543.725     3402.574        1.416        0.776      112.328       58.167        0.268      343.265       19.254      862.399
05/25/2014  00:09:00        2.690      -96.105       -2.044       65.976       56.886       34.394     4352.805     3236.047     1182.969        0.901        0.439       96.143       15.408        0.026      343.778       20.130      862.421
05/25/2014  00:10:00      -11.609      -31.092      -15.638       24.459       30.912       19.322      598.255      955.553      373.323        0.164        0.096       33.189       18.410        0.308      343.727       20.042      862.472
05/25/2014  00:11:00       18.546       14.594       16.495       22.741       17.484       12.850      517.168      305.701      165.128        0.091        0.049       23.599        4.059        0.030      343.633       19.882      862.490
05/25/2014  00:12:00       44.190       42.779       -2.801       31.675       28.891       25.159     1003.275      834.663      632.994        0.313        0.124       61.504       11.755        0.037      343.997       20.504      862.469
05/25/2014  00:13:00       21.981       32.360       39.847       41.966       33.904       30.070     1761.128     1149.505      904.213        0.347        0.191       39.119       19.586        0.251      343.436       19.547      862.431
05/25/2014  00:14:00       16.977       24.265       20.748       30.491       25.324       24.334      929.687      641.281      592.157        0.173        0.108       29.615       15.739        0.282      343.370       19.433      862.444
05/25/2014  00:15:00       60.598       40.795        3.970       32.220       36.927       22.203     1038.125     1363.634      492.993        0.412        0.145       73.051       13.321        0.033      343.600       19.827      862.481
05/25/2014  00:16:00       73.395       37.677       13.339       32.742       30.097       29.115     1072.066      905.817      847.673        0.490        0.141       82.501       20.045        0.059      343.546       19.734      862.497
05/25/2014  00:17:00       32.757      -22.213        1.108       22.104       22.584       22.285      488.603      510.045      496.635        0.153        0.075       39.578       17.506        0.196      343.276       19.275      862.496
05/25/2014  00:18:00       48.659       47.280       18.763       24.599       22.200       27.671      605.126      492.835      765.682        0.341        0.093       67.846       19.696        0.084      343.414       19.509      862.477
05/25/2014  00:19:00       24.379       17.368       12.763       42.124       32.934       24.689     1774.421     1084.660      609.550        0.226        0.173       29.933       21.064        0.495      343.609       19.841      862.483
05/25/2014  00:20:00      -24.316       -7.206       -4.186       29.990       19.737       18.921      899.404      389.540      357.997        0.115        0.082       25.362       12.395        0.239      343.459       19.584      862.520
05/25/2014  00:21:00       32.321       -8.376      -10.398       31.190       23.719       18.203      972.834      562.609      331.360        0.154        0.093       33.389       14.463        0.188      343.362       19.420      862.520
05/25/2014  00:22:00       47.427       30.816        9.492       11.981       13.730       17.347      143.541      188.520      300.927        0.196        0.032       56.559        7.754        0.019      343.658       19.923      862.509
05/25/2014  00:23:00       29.225       21.868        9.484       20.921       22.755       25.626      437.691      517.780      656.688        0.152        0.081       36.501       12.240        0.112      343.358       19.413      862.480
05/25/2014  00:24:00       34.203      -38.192       -5.228       39.095       33.623       20.594     1528.429     1130.480      424.123        0.287        0.154       51.269       13.326        0.068      343.050       18.888      862.476
05/25/2014  00:25:00       19.797       16.293        2.891        8.986       15.701       14.687       80.747      246.528      215.703        0.060        0.027       25.639        7.872        0.094      343.165       19.084      862.482
05/25/2014  00:26:00       43.616        9.177       16.600       29.050       13.488       13.874      843.890      181.929      192.480        0.174        0.061       44.571       12.277        0.076      343.724       20.036      862.488
05/25/2014  00:27:00       48.277      -14.152        8.668       35.572       27.429       23.181     1265.374      752.331      537.377        0.258        0.128       50.308       19.070        0.144      343.189       19.125      862.466
05/25/2014  00:28:00        0.729      -34.848       -7.379       34.050       45.254       24.742     1159.408     2047.967      612.186        0.254        0.191       34.856       23.021        0.436      343.149       19.056      862.460
05/25/2014  00:29:00      -15.143       15.992      -14.760       32.702       28.558       14.618     1069.415      815.551      213.684        0.140        0.105       22.024       10.143        0.212      343.675       19.954      862.479
05/25/2014  00:30:00       84.229       42.288        5.063       26.887       23.717       21.226      722.933      562.492      450.553        0.532        0.087       94.249        7.987        0.007      343.541       19.723      862.465
05/25/2014  00:31:00       33.266       14.793       -0.640       45.089       41.635       26.639     2033.041     1733.499      709.653        0.290        0.224       36.407       27.104        0.554      343.313       19.337      862.435
05/25/2014  00:32:00      -32.940      -45.437       -3.843       23.406       14.342       16.670      547.847      205.693      277.892        0.210        0.052       56.121       11.574        0.043      343.504       19.663      862.439
05/25/2014  00:33:00       22.445        6.428       -3.119       24.674       26.357       17.188      608.826      694.687      295.412        0.108        0.080       23.347       13.262        0.323      343.684       19.969      862.450
05/25/2014  00:34:00       35.306       30.688        6.670       21.756       15.696       19.460      473.330      246.378      378.702        0.167        0.055       46.779       14.267        0.093      343.560       19.758      862.467
05/25/2014  00:35:00       21.594       51.404        6.006       12.620       13.596       12.297      159.267      184.860      151.217        0.182        0.025       55.756        8.826        0.025      343.792       20.154      862.459
05/25/2014  00:36:00       26.602        3.000       -7.635       23.908       23.744       13.447      571.575      563.764      180.831        0.105        0.066       26.771        8.470        0.100      343.316       19.342      862.435
05/25/2014  00:37:00       16.251      -83.158       -9.526       16.817       25.611       17.169      282.801      655.948      294.786        0.425        0.062       84.731        8.753        0.011      343.316       19.342      862.414
05/25/2014  00:38:00       25.773      -90.283      -17.757       24.958       30.004       19.531      622.915      900.227      381.476        0.552        0.095       93.889       12.578        0.018      343.834       20.225      862.406
05/25/2014  00:39:00       19.371       -6.361       25.085       41.617       47.743       24.486     1731.990     2279.352      599.582        0.283        0.231       20.389       24.751        1.474      343.553       19.746      862.408
05/25/2014  00:40:00       44.543       44.218       -4.963       34.418       27.872       20.629     1184.567      776.851      425.563        0.317        0.119       62.764       10.485        0.028      343.297       19.309      862.410
05/25/2014  00:41:00       75.211       49.842       23.179       35.779       30.401       32.129     1280.132      924.226     1032.278        0.596        0.162       90.227       22.143        0.060      343.490       19.638      862.400
05/25/2014  00:42:00       29.952       36.896       64.634       43.612       47.717       26.023     1902.004     2276.959      677.222        0.565        0.243       47.523       31.417        0.437      343.301       19.317      862.388
05/25/2014  00:43:00      -36.526        1.395        5.049       21.270       16.355       13.222      452.393      267.489      174.826        0.113        0.045       36.553       12.192        0.111      343.327       19.360      862.415
05/25/2014  00:44:00      -36.781       39.267       -2.810       17.057       15.417       17.660      290.949      237.686      311.867        0.187        0.042       53.803       10.312        0.037      343.406       19.494      862.432
05/25/2014  00:45:00      -35.122       49.638       -7.861       26.535       26.681       14.306      704.127      711.898      204.663        0.269        0.081       60.807        9.529        0.025      343.632       19.881      862.436
05/25/2014  00:46:00       12.496       67.182        1.654       14.478       11.873        9.768      209.602      140.974       95.409        0.256        0.022       68.334        8.968        0.017      343.859       20.265      862.437
05/25/2014  00:47:00        3.224       31.319        3.624       11.445       25.706        8.841      130.997      660.799       78.160        0.094        0.043       31.484       11.752        0.139      343.867       20.281      862.427
05/25/2014  00:48:00       13.283      -11.308       -0.103       20.408       20.203        9.613      416.500      408.160       92.407        0.061        0.046       17.445        9.638        0.305      343.367       19.429      862.421
05/25/2014  00:49:00       -4.294      -37.621       -0.701       17.967       18.809       15.172      322.821      353.768      230.201        0.117        0.045       37.865       11.476        0.092      343.660       19.927      862.403
05/25/2014  00:50:00        4.590      -11.556        1.694       16.839       11.420       11.126      283.568      130.426      123.798        0.035        0.027       12.435       11.360        0.835      343.760       20.098      862.391
05/25/2014  00:51:00       11.385      -13.181        7.434       33.855       17.409       17.426     1146.148      303.079      303.649        0.106        0.088       17.417       20.648        1.405      343.717       20.028      862.404
05/25/2014  00:52:00       34.604      -12.245       -0.081       24.774       24.330       19.811      613.737      591.962      392.473        0.147        0.080       36.707       14.200        0.150      343.221       19.181      862.399
05/25/2014  00:53:00      -21.523      -19.098       -3.680       20.966       15.220        5.302      439.562      231.654       28.108        0.077        0.035       28.774        6.380        0.049      343.788       20.145      862.391
05/25/2014  00:54:00      -56.725      -86.967       -1.443       60.028       46.193       25.382     3603.376     2133.802      644.223        0.858        0.319      103.831       28.851        0.077      344.312       21.041      862.370
05/25/2014  00:55:00     -130.434      -31.914      -11.549       47.992       44.726       21.503     2303.240     2000.398      462.377        1.146        0.238      134.282       23.831        0.031      343.650       19.910      862.366
05/25/2014  00:56:00      -78.170      -32.367       -1.421       38.362       26.451       15.788     1471.667      699.649      249.274        0.479        0.121       84.606       16.031        0.036      343.610       19.841      862.376
05/25/2014  00:57:00      -82.434        2.575       -8.552       27.344       20.914       12.181      747.668      437.383      148.377        0.410        0.067       82.475       11.791        0.020      343.585       19.800      862.380
05/25/2014  00:58:00     -116.982        6.502       -6.629       14.550       15.349        7.784      211.710      235.598       60.596        0.714        0.025      117.162        6.095        0.003      343.775       20.126      862.382
05/25/2014  00:59:00     -101.441       11.625       -1.166       38.902       27.155       15.262     1513.337      737.403      232.936        0.645        0.124      102.105       14.694        0.021      343.689       19.977      862.383
05/25/2014  01:00:00     -121.140       20.644       -6.576       31.888       26.306       12.961     1016.832      692.025      167.989        0.851        0.094      122.887        9.429        0.006      343.663       19.933      862.389
05/25/2014  01:01:00      -90.681       29.873      -11.755       34.250       27.915       11.926     1173.096      779.239      142.235        0.567        0.105       95.475       10.674        0.012      343.521       19.691      862.397
05/25/2014  01:02:00      -87.786       11.634       -9.881       22.102       43.591       21.517      488.518     1900.175      462.971        0.539        0.143       88.553       19.175        0.047      343.395       19.477      862.408
05/25/2014  01:03:00     -150.099       -5.824      -21.505       34.159       29.159       21.957     1166.843      850.264      482.122        1.276        0.125      150.212       13.867        0.009      343.355       19.408      862.421
05/25/2014  01:04:00     -164.735        0.366      -16.329       49.210       44.081       26.584     2421.599     1943.176      706.700        1.624        0.254      164.735       22.234        0.018      343.515       19.680      862.405
05/25/2014  01:05:00     -141.092      -27.610      -14.013       49.595       33.353       28.025     2459.670     1112.420      785.407        1.261        0.218      143.768       29.431        0.042      343.375       19.442      862.403
05/25/2014  01:06:00     -133.458      -28.396      -11.715       39.436       49.291       23.759     1555.233     2429.643      564.508        1.165        0.227      136.446       20.750        0.023      343.404       19.491      862.403
05/25/2014  01:07:00      -55.119      -38.304       -0.920       33.408       39.867       18.114     1116.071     1589.379      328.118        0.377        0.152       67.121       18.983        0.080      343.348       19.396      862.396
05/25/2014  01:08:00     -126.848       30.441      -26.581       43.564       46.834       25.959     1897.859     2193.384      673.856        1.124        0.238      130.450       18.052        0.019      343.432       19.538      862.398
05/25/2014  01:09:00      -76.994       61.478      -10.712       25.202       30.290       24.382      635.136      917.495      594.469        0.598        0.107       98.527       20.572        0.044      343.358       19.414      862.406
05/25/2014  01:10:00      -73.295       24.299       -7.728       30.228       39.111       16.813      913.750     1529.669      282.687        0.437        0.136       77.218        8.062        0.011      343.265       19.256      862.417
05/25/2014  01:11:00      -82.698       81.782      -13.534       40.629       49.240       25.821     1650.714     2424.557      666.718        0.923        0.237      116.307       26.279        0.051      343.504       19.661      862.406
05/25/2014  01:12:00      -43.237       34.269       -8.120       33.730       46.173       23.333     1137.701     2131.946      544.413        0.346        0.191       55.171       22.192        0.162      343.595       19.817      862.388
05/25/2014  01:13:00      -23.956       -3.086        5.458       30.214       24.227       13.990      912.876      586.929      195.707        0.115        0.085       24.153       15.921        0.435      343.381       19.453      862.375
05/25/2014  01:14:00      -80.645       -5.459       -3.909       28.230       33.918       18.221      796.921     1150.418      331.990        0.441        0.114       80.830       14.212        0.031      343.300       19.315      862.362
05/25/2014  01:15:00      -98.514       -5.523       -8.425       31.685       56.164       18.146     1003.934     3154.389      329.295        0.715        0.224       98.669       12.778        0.017      343.443       19.559      862.354
05/25/2014  01:16:00     -116.062       -6.062       -6.759       45.751       34.328       27.283     2093.194     1178.429      744.365        0.878        0.201      116.220       17.256        0.022      343.137       19.038      862.348
05/25/2014  01:17:00     -138.835      -28.679       -7.100       48.847       47.181       25.845     2386.057     2226.029      667.962        1.271        0.264      141.767       19.845        0.020      343.385       19.458      862.343
05/25/2014  01:18:00      -97.753       -8.055       -2.345       49.064       33.318       21.742     2407.320     1110.121      472.736        0.681        0.200       98.084       21.072        0.046      343.196       19.139      862.343
05/25/2014  01:19:00      -93.858      -28.454      -11.751       33.335       32.479       20.292     1111.209     1054.893      411.748        0.617        0.129       98.076       17.572        0.032      343.137       19.038      862.342
05/25/2014  01:20:00      -87.581      -14.030       -3.159       29.901       37.438       12.962      894.064     1401.622      168.016        0.517        0.123       88.697       14.824        0.028      343.037       18.865      862.336
05/25/2014  01:21:00      -95.539       19.336      -10.071       30.727       20.538       14.537      944.137      421.822      211.313        0.559        0.079       97.476       13.944        0.020      343.137       19.038      862.329
05/25/2014  01:22:00     -121.705       -5.954      -11.258       36.536       24.849       21.968     1334.849      617.490      482.581        0.870        0.122      121.850       22.959        0.036      343.040       18.873      862.326
05/25/2014  01:23:00     -145.397       18.105      -15.382       50.630       34.066       23.945     2563.408     1160.479      573.355        1.300        0.215      146.520       20.119        0.019      342.962       18.737      862.323
05/25/2014  01:24:00     -113.887        8.411      -14.237       47.607       33.789       27.469     2266.453     1141.728      754.535        0.870        0.208      114.197       28.936        0.064      342.996       18.796      862.317
05/25/2014  01:25:00     -137.319       61.126      -23.355       47.380       68.083       32.757     2244.851     4635.243     1073.016        1.554        0.398      150.309       32.522        0.047      342.925       18.675      862.323
05/25/2014  01:26:00     -139.731       69.209      -14.171       37.159       37.789       27.153     1380.762     1428.018      737.271        1.403        0.177      155.932       14.371        0.008      342.880       18.599      862.322
05/25/2014  01:27:00     -111.764       36.503      -16.903       40.949       46.071       23.195     1676.801     2122.535      538.028        0.922        0.217      117.574       25.757        0.048      342.965       18.744      862.304
05/25/2014  01:28:00      -96.140      -20.313      -12.316       37.340       25.577       16.117     1394.251      654.190      259.747        0.606        0.115       98.263       18.192        0.034      342.967       18.746      862.295
05/25/2014  01:29:00     -120.390      -21.697      -14.360       18.857       31.779       13.209      355.592     1009.917      174.488        0.836        0.077      122.329        6.595        0.003      342.887       18.613      862.294
05/25/2014  01:30:00     -106.907      -19.464      -14.106       21.927       23.961       14.912      480.797      574.138      222.353        0.664        0.064      108.665        6.909        0.004      342.852       18.551      862.290
05/25/2014  01:31:00     -143.327        4.076      -15.042       50.492       35.901       21.318     2549.407     1288.852      454.449        1.254        0.215      143.385       23.926        0.028      342.750       18.377      862.292
05/25/2014  01:32:00      -62.647      -18.990       -5.633       45.150       43.512       23.694     2038.528     1893.311      561.408        0.440        0.225       65.462       16.112        0.061      342.708       18.307      862.279
05/25/2014  01:33:00      -83.128      -28.434       -8.098       30.562       23.118       21.559      934.019      534.430      464.803        0.486        0.097       87.856       15.027        0.029      342.758       18.391      862.262
05/25/2014  01:34:00      -77.085      -22.669      -10.107       28.261       23.791       17.735      798.659      566.009      314.547        0.412        0.084       80.349        8.500        0.011      342.769       18.411      862.244
05/25/2014  01:35:00      -85.409       -1.547       -9.806       24.312       17.817       13.279      591.085      317.451      176.330        0.424        0.054       85.424       12.926        0.023      342.757       18.390      862.235
05/25/2014  01:36:00      -43.711       -8.144       -3.241       50.508       16.481       21.227     2551.105      271.619      450.603        0.263        0.164       44.463       24.011        0.292      342.703       18.297      862.234
05/25/2014  01:37:00      -11.921        2.532        1.941       27.926       24.585       17.959      779.856      604.440      322.543        0.093        0.085       12.187       15.376        1.592      342.669       18.241      862.228
05/25/2014  01:38:00       25.835       -1.580       -1.092       25.437       30.151       15.258      647.028      909.087      232.799        0.123        0.089       25.883        8.459        0.107      342.457       17.879      862.229
05/25/2014  01:39:00       10.319       -5.119        0.199       16.912       12.940       10.011      286.029      167.436      100.215        0.034        0.028       11.519        5.917        0.264      342.643       18.196      862.243
05/25/2014  01:40:00      -14.942      -38.080       -5.801       21.122       29.545       18.658      446.147      872.913      348.120        0.169        0.083       40.907       15.850        0.150      342.753       18.384      862.255
05/25/2014  01:41:00      -46.501       -0.603       -7.219       21.365       20.522       20.678      456.480      421.150      427.593        0.176        0.065       46.505       12.920        0.077      342.695       18.284      862.272
05/25/2014  01:42:00      -22.472       -0.845        1.786       15.867       11.547        7.984      251.763      133.324       63.745        0.048        0.022       22.488        5.234        0.054      342.697       18.286      862.283
05/25/2014  01:43:00      -40.521      -26.665        0.830       21.911       22.132       11.582      480.113      489.846      134.146        0.173        0.055       48.507        3.760        0.006      342.670       18.240      862.316
05/25/2014  01:44:00      -31.162      -29.432       -4.146       20.479       18.037       12.217      419.409      325.319      149.256        0.137        0.045       42.864        7.487        0.031      342.695       18.284      862.326
05/25/2014  01:45:00      -12.102      -28.221        4.470       18.662       21.518       10.022      348.278      463.029      100.446        0.094        0.046       30.706        6.499        0.045      342.721       18.331      862.331
05/25/2014  01:46:00      -42.825      -34.304       -6.940       16.423       17.119       14.516      269.701      293.057      210.729        0.192        0.039       54.871       10.506        0.037      342.769       18.409      862.328
05/25/2014  01:47:00      -16.904      -10.337        3.263       31.653       16.761       15.350     1001.926      280.937      235.618        0.096        0.076       19.814       11.445        0.334      342.646       18.200      862.320
05/25/2014  01:48:00       -1.295      -26.411        3.692       13.025       17.540       11.677      169.642      307.645      136.350        0.066        0.031       26.443        8.478        0.103      342.737       18.355      862.328
05/25/2014  01:49:00      -13.866       -0.476        8.838       11.925       12.100       14.122      142.204      146.416      199.423        0.038        0.024       13.874        6.853        0.244      342.680       18.258      862.326
05/25/2014  01:50:00      -12.750       10.659       10.578       12.578       14.200       12.001      158.217      201.653      144.025        0.045        0.025       16.619        9.895        0.355      342.571       18.074      862.336
05/25/2014  01:51:00      -33.342       -1.601        2.286       19.852       14.296       11.653      394.121      204.373      135.800        0.093        0.037       33.381       12.019        0.130      342.519       17.987      862.358
05/25/2014  01:52:00      -81.987      -30.253       -6.167       23.032       17.600       10.949      530.496      309.751      119.871        0.432        0.048       87.390       10.801        0.015      342.504       17.960      862.365
05/25/2014  01:53:00      -57.788      -62.675       -8.169       22.445       21.431       16.946      503.786      459.299      287.153        0.429        0.063       85.250       14.964        0.031      342.671       18.243      862.362
05/25/2014  01:54:00       -0.045      -36.263        8.654       30.829       25.491       18.948      950.400      649.812      359.036        0.167        0.098       36.263       15.607        0.185      342.806       18.475      862.364
05/25/2014  01:55:00       22.754      -41.168       -8.626       21.612       22.448       16.639      467.098      503.905      276.858        0.177        0.062       47.037       13.629        0.084      342.718       18.323      862.370
05/25/2014  01:56:00       20.925       17.216       16.043       22.699       31.803       18.675      515.259     1011.452      348.754        0.143        0.094       27.097        9.369        0.120      342.357       17.711      862.381
05/25/2014  01:57:00       41.193       50.686       -5.375       18.812       21.796       15.525      353.891      475.075      241.038        0.268        0.054       65.313        9.471        0.021      342.212       17.464      862.397
05/25/2014  01:58:00       10.298        0.852       -5.557       13.739        7.959        9.968      188.752       63.347       99.358        0.024        0.018       10.333        6.391        0.383      342.497       17.948      862.423
05/25/2014  01:59:00       21.919       44.469       -0.987       11.406       22.675        6.797      130.092      514.170       46.205        0.157        0.035       49.578        7.599        0.023      342.726       18.335      862.436
05/25/2014  02:00:00       58.248       41.187       10.603       18.170       24.420       15.877      330.141      596.329      252.078        0.319        0.059       71.339       16.814        0.056      342.838       18.528      862.438
05/25/2014  02:01:00       65.514       30.988       14.341       20.303       23.497       20.035      412.204      552.090      401.404        0.341        0.068       72.473       10.738        0.022      342.665       18.234      862.438
05/25/2014  02:02:00       32.845       13.895       -5.846       22.036       25.609       21.237      485.593      655.824      451.023        0.145        0.080       35.663       11.498        0.104      342.642       18.195      862.439
05/25/2014  02:03:00       48.871       -3.772        4.406       10.033       14.355       18.231      100.666      206.073      332.361        0.153        0.032       49.017        6.978        0.020      342.809       18.478      862.421
05/25/2014  02:04:00        9.054        9.713        8.293       13.461       19.862       17.668      181.205      394.502      312.141        0.057        0.044       13.279       12.506        0.887      342.797       18.457      862.399
05/25/2014  02:05:00      -62.803      -12.452       -9.316       28.671       24.910        9.780      822.052      620.526       95.657        0.286        0.077       64.026        7.743        0.015      342.751       18.380      862.399
05/25/2014  02:06:00      -69.762      -16.332       -9.736       12.690        9.615       10.038      161.041       92.441      100.758        0.279        0.018       71.649        8.041        0.013      342.481       17.921      862.397
05/25/2014  02:07:00      -50.890      -22.067       -4.499       17.120        9.153        6.939      293.093       83.770       48.144        0.176        0.021       55.469        5.865        0.011      342.544       18.028      862.393
05/25/2014  02:08:00      -35.844       -4.112       -7.975        7.704        6.994        4.716       59.347       48.921       22.241        0.075        0.007       36.079        3.496        0.009      342.621       18.159      862.391
05/25/2014  02:09:00      -22.406        4.864       -0.475       10.531        6.231        3.244      110.905       38.826       10.523        0.034        0.008       22.928        4.771        0.043      342.753       18.384      862.397
05/25/2014  02:10:00      -42.089       -7.444       -4.910        9.515       11.020        6.628       90.528      121.443       43.935        0.105        0.013       42.742        3.293        0.006      342.693       18.281      862.411
05/25/2014  02:11:00      -45.042      -14.050       -2.436       23.964       16.250       14.124      574.274      264.066      199.476        0.163        0.052       47.183       12.755        0.073      342.549       18.036      862.415
05/25/2014  02:12:00      -18.925      -13.399        0.497       21.218       21.826       14.234      450.211      476.375      202.607        0.083        0.056       23.188       12.703        0.300      342.546       18.031      862.413
05/25/2014  02:13:00       -8.186        2.655        2.253       22.835        9.890       10.565      521.416       97.802      111.612        0.040        0.037        8.606        9.822        1.303      342.555       18.047      862.408
05/25/2014  02:14:00      -12.966        1.162        1.038        8.121       11.460        6.819       65.951      131.339       46.500        0.021        0.012       13.018        2.453        0.036      342.549       18.038      862.404
05/25/2014  02:15:00       18.130        5.512        4.496        9.274       13.806        8.827       86.001      190.616       77.920        0.037        0.018       18.950        7.471        0.155      342.714       18.316      862.405
05/25/2014  02:16:00       10.112       27.516        0.276       20.049       26.166       15.566      401.958      684.678      242.306        0.109        0.066       29.315       13.970        0.227      342.471       17.904      862.412
05/25/2014  02:17:00       -4.819       48.321       -7.422        8.657       16.995       10.544       74.936      288.821      111.170        0.144        0.024       48.560       10.092        0.043      342.678       18.255      862.426
05/25/2014  02:18:00        8.700       38.263        2.938       17.568       15.938       10.378      308.624      254.033      107.701        0.111        0.034       39.240        9.291        0.056      342.744       18.368      862.428
05/25/2014  02:19:00       14.708       59.531        3.655       14.687       19.907       14.543      215.697      396.269      211.490        0.230        0.041       61.321       14.639        0.057      342.788       18.442      862.433
05/25/2014  02:20:00       39.403       32.497       -2.164       18.348       13.605       11.892      336.634      185.092      141.428        0.164        0.033       51.075        8.159        0.026      342.654       18.214      862.431
05/25/2014  02:21:00       49.944       37.582        8.017       15.838       12.442       10.851      250.848      154.799      117.753        0.225        0.026       62.504        9.032        0.021      342.518       17.983      862.440
05/25/2014  02:22:00       34.017       35.438       -3.679       18.543       18.809       14.157      343.847      353.785      200.429        0.166        0.045       49.122       11.303        0.053      342.566       18.066      862.431
05/25/2014  02:23:00       30.479       34.104        1.267       20.965       20.767       12.220      439.515      431.265      149.319        0.156        0.051       45.739       11.880        0.067      342.609       18.139      862.420
05/25/2014  02:24:00       17.514       28.577        1.985       25.875       18.742       17.007      669.534      351.265      289.227        0.122        0.066       33.517       10.921        0.106      342.740       18.360      862.414
05/25/2014  02:25:00       25.896       23.934        5.378       28.865       17.088       13.332      833.208      291.994      177.749        0.129        0.065       35.262       11.698        0.110      342.909       18.650      862.411
05/25/2014  02:26:00       26.573        6.422       -2.336       13.006       15.134       17.060      169.148      229.053      291.030        0.072        0.034       27.338        4.307        0.025      342.693       18.282      862.405
05/25/2014  02:27:00       14.639       -1.203       -7.138       18.361       17.472       14.665      337.128      305.276      215.054        0.056        0.043       14.688        9.851        0.450      342.593       18.110      862.404
05/25/2014  02:28:00       23.787        2.470       -7.366       13.816       19.525       17.205      190.871      381.208      295.995        0.075        0.043       23.915        6.819        0.081      342.416       17.809      862.415
05/25/2014  02:29:00        8.890       47.435       -9.360       23.775       36.667       11.121      565.228     1344.479      123.686        0.222        0.102       48.261        8.598        0.032      342.613       18.146      862.430
05/25/2014  02:30:00       -7.502      111.581      -13.014       17.416       37.693        9.803      303.333     1420.796       96.096        0.725        0.091      111.833       11.185        0.010      342.954       18.724      862.435
05/25/2014  02:31:00      -25.470      186.887      -24.457       33.586       42.544       21.627     1128.027     1809.992      467.728        1.979        0.170      188.615       22.072        0.014      342.882       18.602      862.430
05/25/2014  02:32:00       45.820      139.692      -21.318       28.081       63.339       29.074      788.539     4011.783      845.300        1.386        0.282      147.015       36.196        0.061      342.836       18.524      862.432
05/25/2014  02:33:00       -2.658      127.330      -17.000       32.468       32.100       23.410     1054.179     1030.427      548.021        0.957        0.132      127.358       20.736        0.027      342.660       18.225      862.438
05/25/2014  02:34:00       10.851       77.668       -8.385       24.912       26.558       18.049      620.602      705.340      325.773        0.394        0.083       78.422       15.382        0.038      342.615       18.149      862.437
05/25/2014  02:35:00      -55.120       61.449      -12.205       29.374       42.268       15.620      862.831     1786.605      243.984        0.493        0.145       82.548       15.104        0.033      342.577       18.085      862.444
05/25/2014  02:36:00      -65.167        1.616      -10.148       23.304       19.285       12.490      543.095      371.904      156.009        0.271        0.054       65.187       11.698        0.032      342.542       18.025      862.438
05/25/2014  02:37:00      -54.269      -17.439       -9.105       21.018       18.732       15.908      441.739      350.887      253.067        0.219        0.052       57.002        7.407        0.017      342.403       17.788      862.436
05/25/2014  02:38:00      -16.740      -39.636       -5.305       16.788       12.992       13.280      281.821      168.791      176.350        0.125        0.031       43.026        5.168        0.014      342.428       17.829      862.436
05/25/2014  02:39:00        9.729      -29.635       -4.684       13.189       20.460       13.621      173.949      418.600      185.519        0.089        0.039       31.191       10.791        0.120      342.381       17.751      862.436
05/25/2014  02:40:00      -30.789       -3.534       -1.413       25.155       12.767       10.705      632.792      162.991      114.597        0.094        0.046       30.991       10.079        0.106      342.320       17.645      862.454
05/25/2014  02:41:00      -34.607      -14.136       -0.662       13.691       18.483       10.296      187.431      341.606      106.010        0.102        0.032       37.383        8.679        0.054      342.329       17.662      862.458
05/25/2014  02:42:00      -72.951      -23.390       -4.040       19.212       18.180        8.881      369.099      330.507       78.865        0.333        0.039       76.609        8.617        0.013      342.337       17.674      862.454
05/25/2014  02:43:00      -90.157      -28.975       -5.344       17.760       21.323       11.117      315.404      454.679      123.584        0.494        0.045       94.699       10.817        0.013      342.317       17.641      862.451
05/25/2014  02:44:00      -75.597      -36.085       -4.560       25.836       23.432       16.365      667.481      549.057      267.809        0.426        0.074       83.768        9.957        0.014      342.281       17.581      862.447
05/25/2014  02:45:00      -34.592      -17.438       -2.273       35.668       20.960       15.669     1272.208      439.319      245.510        0.173        0.098       38.739       16.487        0.181      342.128       17.319      862.448
05/25/2014  02:46:00      -26.416      -13.592        5.614       35.969       14.367       19.698     1293.761      206.410      388.021        0.140        0.094       29.708       23.816        0.643      342.113       17.295      862.450
05/25/2014  02:47:00      -85.922      -10.820       -6.956       29.069       20.314       13.560      845.024      412.663      183.862        0.449        0.072       86.600       14.764        0.029      342.077       17.233      862.460
05/25/2014  02:48:00      -83.143      -13.642       -8.318       29.100       19.929       13.940      846.830      397.172      194.320        0.430        0.072       84.255       11.773        0.020      342.057       17.201      862.469
05/25/2014  02:49:00      -43.234      -15.237       -1.793       13.504       21.973       11.265      182.370      482.810      126.911        0.145        0.040       45.841        6.592        0.021      342.107       17.284      862.479
05/25/2014  02:50:00       18.091        8.461       12.094       22.269        8.717       18.548      495.929       75.992      344.010        0.073        0.046       19.972       14.490        0.526      342.054       17.195      862.484
05/25/2014  02:51:00       -9.823       -7.581      -11.538       38.672       23.579       20.057     1495.538      555.974      402.293        0.137        0.123       12.408        9.413        0.576      342.009       17.118      862.498
05/25/2014  02:52:00      -64.147        8.083       -1.617       36.558       24.026       18.253     1336.524      577.252      333.187        0.321        0.112       64.654       19.270        0.089      341.987       17.081      862.513
05/25/2014  02:53:00      -75.845        4.406       -3.544       39.423       18.810       16.024     1554.212      353.830      256.773        0.397        0.108       75.973       15.492        0.042      341.875       16.890      862.522
05/25/2014  02:54:00      -60.632      -38.873       -1.939       45.178       29.880       19.879     2041.081      892.801      395.170        0.426        0.166       72.023       22.239        0.095      341.895       16.925      862.530
05/25/2014  02:55:00      -15.984       -5.216       10.389       36.176       18.692       15.598     1308.676      349.409      243.286        0.115        0.095       16.814       18.594        1.223      341.787       16.741      862.535
05/25/2014  02:56:00      -83.959        8.703       -3.398       32.834       23.590       14.766     1078.086      556.474      218.045        0.449        0.093       84.409        8.868        0.011      341.692       16.582      862.533
05/25/2014  02:57:00      -63.045       -5.686        3.421       33.229       36.293       19.269     1104.177     1317.184      371.283        0.341        0.140       63.301       22.422        0.125      341.594       16.414      862.531
05/25/2014  02:58:00     -100.780      -42.148       -7.229       25.285       20.229       15.934      639.320      409.211      253.890        0.664        0.065      109.239       10.391        0.009      341.691       16.579      862.527
05/25/2014  02:59:00      -83.490      -59.519       -0.410       67.860       43.111       25.868     4604.961     1858.518      669.132        0.882        0.357      102.533       26.792        0.068      341.603       16.430      862.529
05/25/2014  03:00:00      -95.238      -73.140        5.655       70.615       65.329       28.939     4986.494     4267.922      837.454        1.227        0.505      120.082       37.437        0.097      341.552       16.343      862.527
05/25/2014  03:01:00     -114.304      -83.255       -1.165       38.839       41.031       20.238     1508.498     1683.537      409.591        1.180        0.180      141.410       22.322        0.025      341.635       16.483      862.516
05/25/2014  03:02:00      -50.773      -11.805        1.538       41.414       21.970       14.459     1715.116      482.666      209.050        0.256        0.120       52.127       16.541        0.101      341.650       16.510      862.492
05/25/2014  03:03:00      -58.686      -23.759       -2.107       24.533       28.537       10.217      601.846      814.388      104.395        0.277        0.076       63.313        8.717        0.019      341.689       16.578      862.490
05/25/2014  03:04:00      -58.231      -42.337        0.712       21.712       19.616       12.568      471.423      384.806      157.965        0.310        0.051       71.995       12.021        0.028      341.641       16.496      862.498
05/25/2014  03:05:00     -106.155      -52.177       -3.250       31.661       22.980       13.200     1002.423      528.064      174.232        0.785        0.085      118.285       11.683        0.010      341.588       16.405      862.512
05/25/2014  03:06:00     -127.914      -55.268       -8.008       36.863       35.952       18.736     1358.871     1292.533      351.021        1.124        0.150      139.343       15.096        0.012      341.496       16.249      862.524
05/25/2014  03:07:00      -98.291      -14.046        3.844       53.155       40.369       24.339     2825.474     1629.683      592.388        0.746        0.252       99.290       28.784        0.084      341.411       16.105      862.531
05/25/2014  03:08:00     -124.135      -39.262       -6.924       34.967       36.722       21.019     1222.722     1348.475      441.808        1.001        0.151      130.196       23.778        0.033      341.402       16.091      862.530
05/25/2014  03:09:00      -95.376      -49.496       -1.018       31.350       26.846       14.758      982.814      720.730      217.791        0.673        0.096      107.455       15.307        0.020      341.381       16.053      862.536
05/25/2014  03:10:00     -102.076      -55.971       -2.362       24.325       28.893       13.256      591.720      834.810      175.721        0.758        0.080      116.414        9.801        0.007      341.375       16.046      862.526
05/25/2014  03:11:00      -88.203      -52.625        3.952       39.765       26.228       21.477     1581.222      687.886      461.255        0.665        0.137      102.709       20.245        0.039      341.377       16.048      862.520
05/25/2014  03:12:00     -108.539      -61.998       -2.759       31.524       22.593       16.314      993.749      510.463      266.135        0.870        0.089      124.998       11.219        0.008      341.335       15.976      862.517
05/25/2014  03:13:00     -120.571      -48.206       -5.729       17.553       22.169       16.258      308.117      491.483      264.312        0.898        0.053      129.850       10.965        0.007      341.347       15.996      862.503
05/25/2014  03:14:00     -123.883      -51.317       -6.664       15.137       18.722       12.163      229.116      350.531      147.938        0.938        0.036      134.091       10.091        0.006      341.385       16.061      862.493
05/25/2014  03:15:00     -130.098      -45.522       -3.328       23.791       22.460       14.965      566.003      504.458      223.944        1.015        0.065      137.833        8.267        0.004      341.344       15.992      862.493
05/25/2014  03:16:00     -122.769      -44.645       -0.303       45.599       41.545       23.632     2079.257     1725.971      558.454        1.071        0.218      130.635       23.936        0.034      341.200       15.748      862.503
05/25/2014  03:17:00     -126.719      -63.964       -2.556       24.166       24.528       16.902      584.009      601.606      285.667        1.081        0.074      141.948        9.899        0.005      341.137       15.641      862.509
05/25/2014  03:18:00     -100.128      -28.612       -9.978       17.867       22.660       14.186      319.225      513.463      201.246        0.599        0.052      104.136        9.318        0.008      341.126       15.622      862.503
05/25/2014  03:19:00     -108.059        1.570       -4.706       36.481       33.381       20.734     1330.895     1114.269      429.895        0.729        0.144      108.071       23.221        0.046      341.184       15.721      862.497
05/25/2014  03:20:00      -63.090       16.642        1.877       57.748       32.332       28.167     3334.874     1045.388      793.392        0.472        0.259       65.248       30.718        0.222      341.109       15.594      862.499
05/25/2014  03:21:00     -103.540       41.253       -1.559       91.120       37.497       29.667     8302.822     1405.995      880.129        1.150        0.529      111.456       34.091        0.094      341.251       15.832      862.495
05/25/2014  03:22:00     -173.064       26.792      -22.575       32.706       30.721       24.669     1069.677      943.754      608.549        1.690        0.131      175.126       19.047        0.012      341.313       15.938      862.487
05/25/2014  03:23:00     -157.390       17.737      -14.644       39.400       34.870       27.185     1552.324     1215.895      739.050        1.440        0.175      158.386       24.140        0.023      341.364       16.026      862.473
05/25/2014  03:24:00     -105.004      -16.108       -5.084       39.192       45.238       21.915     1535.980     2046.512      480.267        0.769        0.203      106.232       19.586        0.034      341.258       15.845      862.473
05/25/2014  03:25:00      -90.055        5.721       -6.566       26.206       26.335       20.197      686.736      693.551      407.923        0.499        0.089       90.237        8.932        0.010      341.249       15.831      862.467
05/25/2014  03:26:00     -135.227      -30.097      -14.910       25.412       24.964       18.503      645.751      623.224      342.367        1.051        0.081      138.536        4.475        0.001      341.176       15.706      862.468
05/25/2014  03:27:00     -121.293      -15.809       -5.788       38.092       24.009       18.288     1450.994      576.426      334.440        0.868        0.118      122.319       20.165        0.027      341.138       15.643      862.464
05/25/2014  03:28:00      -67.706      -14.674       -0.262       31.883       16.536       17.480     1016.548      273.425      305.540        0.320        0.080       69.278       20.360        0.086      341.155       15.672      862.463
05/25/2014  03:29:00      -44.056      -10.314        2.189       17.930       21.766       11.581      321.475      473.750      134.115        0.149        0.046       45.247       13.324        0.087      341.228       15.796      862.459
05/25/2014  03:30:00      -24.893       -8.194        3.549       19.546       21.866        9.957      382.050      478.105       99.133        0.083        0.048       26.207        5.963        0.052      341.285       15.891      862.456
05/25/2014  03:31:00      -28.126       -3.688        4.651       20.545       18.197       13.203      422.087      331.129      174.318        0.088        0.046       28.367       13.949        0.242      341.265       15.857      862.464
05/25/2014  03:32:00      -40.604       -1.729        0.230       19.123       16.182       15.318      365.687      261.844      234.646        0.126        0.043       40.641       14.010        0.119      341.318       15.948      862.459
05/25/2014  03:33:00      -67.133        0.936       -3.251       23.503       11.677        9.030      552.410      136.342       81.542        0.264        0.039       67.140        8.169        0.015      341.407       16.098      862.446
05/25/2014  03:34:00      -69.234      -25.447       -3.542       19.626       19.518       12.532      385.169      380.938      157.041        0.319        0.046       73.762        7.610        0.011      341.384       16.059      862.442
05/25/2014  03:35:00      -94.728      -24.324       -4.989       10.199       14.510        9.085      104.024      210.536       82.544        0.499        0.020       97.801        6.597        0.005      341.310       15.935      862.432
05/25/2014  03:36:00      -90.387      -16.349       -5.980       13.564       18.666        8.827      183.982      348.418       77.915        0.454        0.031       91.854        5.250        0.003      341.269       15.865      862.421
05/25/2014  03:37:00      -67.195      -16.545       -4.800       30.671       18.385       14.132      940.698      337.991      199.706        0.314        0.074       69.202       16.076        0.054      341.242       15.820      862.429
05/25/2014  03:38:00      -82.113      -38.975       -0.564       20.878       15.648       12.839      435.886      244.864      164.836        0.455        0.042       90.894       10.748        0.014      341.244       15.822      862.414
05/25/2014  03:39:00      -80.389      -42.411       -3.749       27.588       25.268       19.729      761.110      638.482      389.227        0.503        0.089       90.890       14.215        0.024      341.214       15.772      862.402
05/25/2014  03:40:00      -69.619      -38.538       -0.807       37.068       36.496       17.299     1374.021     1331.965      299.247        0.467        0.150       79.574       17.195        0.047      341.154       15.669      862.407
05/25/2014  03:41:00      -86.361      -58.673       -2.170       24.707       32.839       15.406      610.460     1078.395      237.357        0.642        0.096      104.406       12.022        0.013      341.176       15.707      862.419
05/25/2014  03:42:00      -97.284      -66.903       -6.796       31.840       24.805       14.306     1013.813      615.264      204.653        0.791        0.092      118.069        8.458        0.005      341.161       15.682      862.408
05/25/2014  03:43:00      -80.041      -66.556        1.166       41.693       32.464       17.960     1738.326     1053.905      322.573        0.698        0.156      104.097       18.866        0.033      341.115       15.603      862.405
05/25/2014  03:44:00      -78.397      -51.300       -0.994       31.930       22.593       17.592     1019.544      510.450      309.483        0.531        0.092       93.690       17.575        0.035      341.090       15.560      862.419
05/25/2014  03:45:00      -65.336      -42.706        4.564       24.421       19.644       12.869      596.385      385.892      165.600        0.363        0.057       78.055       11.245        0.021      341.198       15.744      862.441
05/25/2014  03:46:00      -46.523      -38.499        0.420       20.703       24.758       16.631      428.604      612.941      276.593        0.248        0.066       60.387       11.201        0.034      341.260       15.849      862.451
05/25/2014  03:47:00      -50.533      -52.042        5.523       38.934       29.514       19.066     1515.853      871.073      363.525        0.402        0.138       72.539       18.011        0.062      341.277       15.877      862.464
05/25/2014  03:48:00      -31.234      -33.969       10.681       35.045       26.989       17.108     1228.120      728.396      292.683        0.225        0.112       46.146       11.751        0.065      341.261       15.850      862.479
05/25/2014  03:49:00      -71.061      -45.438       -6.098       26.815       23.408       13.702      719.067      547.932      187.758        0.430        0.073       84.346       12.073        0.020      341.280       15.882      862.493
05/25/2014  03:50:00      -49.213      -40.344       -3.836       17.262       14.950       11.102      297.962      223.509      123.252        0.235        0.032       63.636        4.001        0.004      341.368       16.031      862.505
05/25/2014  03:51:00      -25.951      -22.391       -0.355       18.926       13.559       10.244      358.182      183.859      104.929        0.091        0.032       34.275        7.713        0.051      341.425       16.128      862.522
05/25/2014  03:52:00      -31.605      -22.126        0.410       22.873       15.711        7.731      523.154      246.835       59.776        0.116        0.041       38.580        8.443        0.048      341.474       16.211      862.535
05/25/2014  03:53:00      -58.832      -33.286       -3.006       16.240       14.319       10.947      263.743      205.026      119.833        0.258        0.029       67.596       10.730        0.025      341.568       16.371      862.544
05/25/2014  03:54:00      -66.493      -26.595       -4.153       15.047       11.203        6.910      226.416      125.518       47.752        0.277        0.020       71.614        4.273        0.004      341.245       15.825      862.546
05/25/2014  03:55:00      -58.926      -22.582       -5.642       16.419       10.808        7.762      269.569      116.816       60.251        0.223        0.022       63.104        5.339        0.007      341.194       15.737      862.554
05/25/2014  03:56:00      -36.054       -9.738       -4.795       10.963        8.527        7.835      120.192       72.705       61.381        0.084        0.013       37.346        5.573        0.022      341.287       15.893      862.569
05/25/2014  03:57:00      -33.167       -4.685       -5.779        7.011        7.394        5.900       49.152       54.678       34.806        0.065        0.007       33.497        3.634        0.012      341.382       16.055      862.572
05/25/2014  03:58:00      -36.029       -2.058       -2.986        8.182        5.970        5.041       66.943       35.644       25.410        0.072        0.006       36.087        4.488        0.015      341.605       16.433      862.583
05/25/2014  03:59:00      -38.699      -15.991       -1.594       17.182       15.298        7.394      295.219      234.031       54.667        0.117        0.029       41.873        4.877        0.014      341.432       16.140      862.579
05/25/2014  04:00:00      -45.778      -30.699        3.219       43.120       31.511       19.670     1859.355      992.935      386.926        0.314        0.162       55.119       11.846        0.046      341.026       15.454      862.585
05/25/2014  04:01:00      -90.831      -50.285       -9.391       17.750       17.839       13.447      315.057      318.218      180.830        0.584        0.041      103.822        8.130        0.006      341.026       15.453      862.581
05/25/2014  04:02:00      -82.832      -19.068       -6.418       18.618       16.165       12.382      346.630      261.301      153.317        0.401        0.038       84.999        5.927        0.005      340.955       15.332      862.575
05/25/2014  04:03:00      -70.891      -25.050      -10.869        9.171       10.028        8.122       84.100      100.554       65.965        0.301        0.013       75.186        3.015        0.002      340.991       15.393      862.572
05/25/2014  04:04:00      -66.458      -40.649       -5.418       18.365       17.378       12.562      337.265      301.994      157.807        0.345        0.040       77.904        9.036        0.013      341.035       15.468      862.578
05/25/2014  04:05:00      -95.152      -31.638       -5.599       11.900       18.837        9.654      141.604      354.824       93.201        0.534        0.029      100.274        7.401        0.005      340.975       15.366      862.593
05/25/2014  04:06:00      -65.382      -15.344       -7.519        9.781       12.026        7.217       95.672      144.621       52.085        0.243        0.015       67.159        5.106        0.006      340.966       15.352      862.597
05/25/2014  04:07:00      -57.874      -27.947       -3.050       12.995        9.074        7.830      168.866       82.346       61.308        0.223        0.016       64.269        4.225        0.004      341.087       15.556      862.598
05/25/2014  04:08:00      -65.184      -32.611       -1.540       21.944       11.117        8.016      481.534      123.596       64.263        0.299        0.033       72.886        4.040        0.003      341.061       15.512      862.599
05/25/2014  04:09:00      -83.705      -38.831       -2.680       21.897       17.861       12.760      479.472      319.010      162.816        0.474        0.048       92.273        8.306        0.008      341.018       15.441      862.617
05/25/2014  04:10:00      -61.550      -39.870       -1.292       33.175       26.247       16.856     1100.593      688.924      284.128        0.373        0.104       73.335       14.118        0.037      341.116       15.605      862.629
05/25/2014  04:11:00      -70.778      -52.048       -0.501       33.108       27.261       16.771     1096.157      743.143      281.267        0.492        0.106       87.855       17.979        0.042      341.136       15.640      862.631
05/25/2014  04:12:00      -70.747      -97.411       -0.811       27.566       44.967       16.662      759.885     2021.995      277.637        0.878        0.153      120.391       14.929        0.015      341.474       16.210      862.621
05/25/2014  04:13:00      -97.384     -130.908      -10.368       32.644       34.225       19.795     1065.622     1171.363      391.844        1.468        0.131      163.158       16.191        0.010      341.558       16.353      862.608
05/25/2014  04:14:00      -83.414     -105.030       -0.239       42.622       45.306       22.728     1816.619     2052.602      516.580        1.119        0.219      134.124       24.519        0.033      341.303       15.921      862.604
05/25/2014  04:15:00      -99.531      -74.896       -3.422       41.925       38.264       21.225     1757.728     1464.149      450.513        0.960        0.184      124.563       15.397        0.015      341.188       15.728      862.606
05/25/2014  04:16:00      -70.583      -65.833        0.917       43.669       44.209       25.496     1906.991     1954.446      650.068        0.691        0.226       96.519       19.862        0.042      341.127       15.624      862.608
05/25/2014  04:17:00      -82.192      -31.525       -1.455       33.852       33.660       19.046     1145.957     1133.020      362.744        0.520        0.132       88.031       11.070        0.016      341.079       15.545      862.619
05/25/2014  04:18:00      -81.552      -30.898       -6.056       54.997       41.508       19.727     3024.635     1722.920      389.147        0.639        0.257       87.209       18.782        0.046      341.008       15.422      862.625
05/25/2014  04:19:00      -78.607      -41.373        2.279       37.060       37.568       19.477     1373.426     1411.387      379.372        0.553        0.158       88.830       16.209        0.033      341.035       15.468      862.639
05/25/2014  04:20:00      -80.472       24.749        1.381       25.670       22.087       23.175      658.972      487.840      537.079        0.439        0.084       84.192       11.237        0.018      341.080       15.544      862.648
05/25/2014  04:21:00      -46.545      -28.814        0.479       21.606       26.834       13.627      466.807      720.075      185.687        0.218        0.069       54.742        8.910        0.026      341.032       15.465      862.644
05/25/2014  04:22:00      -13.867      -20.366        3.457       18.476       31.352       12.585      341.375      982.926      158.382        0.105        0.074       24.639        9.367        0.145      340.964       15.347      862.624
05/25/2014  04:23:00      -25.187        4.485       -5.790       25.498       13.142       12.212      650.159      172.700      149.143        0.083        0.049       25.583       12.239        0.229      340.980       15.377      862.614
05/25/2014  04:24:00      -51.576       -1.057        1.451       20.084       17.434       12.360      403.383      303.949      152.769        0.176        0.043       51.587       10.822        0.044      340.997       15.401      862.601
05/25/2014  04:25:00      -73.246      -29.329       -0.689       32.431       26.366       15.370     1051.762      695.149      236.250        0.410        0.099       78.899       13.493        0.029      340.869       15.187      862.589
05/25/2014  04:26:00      -99.587      -36.781       -7.020       25.459       37.410       14.683      648.170     1399.498      215.579        0.679        0.113      106.163       11.272        0.011      340.833       15.126      862.589
05/25/2014  04:27:00     -129.860      -24.899       -6.263       47.752       30.665       21.479     2280.300      940.340      461.353        1.060        0.184      132.226       22.913        0.030      340.808       15.084      862.589
05/25/2014  04:28:00     -131.227      -54.642        1.505       42.071       24.808       17.252     1769.933      615.434      297.624        1.145        0.134      142.149       16.542        0.014      340.748       14.984      862.574
05/25/2014  04:29:00     -120.570      -37.981       -1.102       30.619       36.680       19.118      937.517     1345.440      365.500        0.931        0.132      126.411       14.362        0.013      340.736       14.962      862.572
05/25/2014  04:30:00     -133.933      -67.480       -3.975       38.955       24.104       20.234     1517.460      580.996      409.396        1.251        0.125      149.972       16.664        0.012      340.787       15.048      862.566
05/25/2014  04:31:00     -122.868      -57.859       -0.739       41.896       32.107       19.630     1755.279     1030.886      385.332        1.081        0.159      135.810       18.676        0.019      340.739       14.967      862.576
05/25/2014  04:32:00     -121.467      -71.187       -1.150       35.151       34.966       22.264     1235.590     1222.648      495.669        1.139        0.148      140.790       18.547        0.017      340.780       15.038      862.569
05/25/2014  04:33:00     -145.662      -80.741        3.259       51.169       39.880       28.114     2618.254     1590.421      790.391        1.637        0.250      166.542       27.673        0.028      340.821       15.106      862.565
05/25/2014  04:34:00     -163.798     -106.591       -1.594       50.061       47.911       26.906     2506.101     2295.436      723.923        2.186        0.276      195.426       26.158        0.018      340.804       15.074      862.552
05/25/2014  04:35:00      -98.704      -89.114       -0.173       61.636       48.969       29.058     3799.044     2397.993      844.373        1.236        0.352      132.980       37.585        0.080      340.767       15.016      862.556
05/25/2014  04:36:00     -125.107      -93.542       -5.393       58.099       36.156       32.079     3375.500     1307.285     1029.080        1.507        0.286      156.211       32.765        0.044      340.753       14.992      862.553
05/25/2014  04:37:00     -108.900      -81.136       -2.806       46.140       47.973       30.852     2128.915     2301.442      951.873        1.192        0.269      135.802       29.509        0.047      340.736       14.963      862.553
05/25/2014  04:38:00     -110.869      -82.671       -6.616       40.734       44.232       21.144     1659.276     1956.473      447.052        1.162        0.203      138.298       15.971        0.013      340.778       15.033      862.568
05/25/2014  04:39:00      -94.035      -41.518       -3.496       51.224       34.124       23.580     2623.858     1164.474      556.020        0.746        0.217      102.792       24.726        0.058      340.766       15.012      862.578
05/25/2014  04:40:00     -131.004      -21.419      -17.299       44.650       45.473       21.524     1993.586     2067.825      463.281        1.122        0.226      132.743       17.775        0.018      340.768       15.015      862.580
05/25/2014  04:41:00     -130.313      -34.865       -7.470       38.183       29.899       21.864     1457.908      893.924      478.049        1.054        0.141      134.896       15.389        0.013      340.734       14.959      862.592
05/25/2014  04:42:00     -129.185      -39.775       -8.333       45.985       35.737       19.670     2114.650     1277.143      386.893        1.106        0.189      135.169       13.656        0.010      340.760       15.004      862.605
05/25/2014  04:43:00      -82.962      -17.418       -6.609       44.447       23.409       20.108     1975.524      547.967      404.325        0.508        0.146       84.771       23.078        0.074      340.805       15.080      862.616
05/25/2014  04:44:00      -88.621      -12.018       -0.614       42.511       34.262       18.896     1807.203     1173.896      357.055        0.567        0.167       89.432       18.558        0.043      340.751       14.987      862.612
05/25/2014  04:45:00     -105.895      -27.032       -4.683       39.552       34.934       19.949     1564.377     1220.387      397.952        0.757        0.159      109.290       17.386        0.025      340.684       14.876      862.602
05/25/2014  04:46:00     -110.751      -26.282       -4.780       26.383       26.451       17.695      696.068      699.660      313.101        0.734        0.085      113.826       14.334        0.016      340.629       14.781      862.595
05/25/2014  04:47:00      -97.080      -38.460      -11.198       44.395       21.334       20.528     1970.924      455.152      421.388        0.694        0.142      104.420       25.199        0.058      340.619       14.766      862.591
05/25/2014  04:48:00     -128.514      -33.351       -8.683       29.972       18.965       17.472      898.295      359.653      305.271        0.963        0.078      132.771       14.846        0.013      340.565       14.672      862.594
05/25/2014  04:49:00     -128.389      -35.888      -14.719       19.827       20.473       18.296      393.097      419.125      334.758        0.957        0.057      133.310        8.005        0.004      340.536       14.624      862.595
05/25/2014  04:50:00      -72.846       -7.283       -7.622       32.744       23.287       17.588     1072.150      542.288      309.326        0.367        0.096       73.209       14.031        0.037      340.456       14.489      862.587
05/25/2014  04:51:00     -124.738       -1.715      -10.659       36.263       30.216       17.896     1314.978      913.029      320.264        0.911        0.127      124.750       17.076        0.019      340.452       14.483      862.584
05/25/2014  04:52:00     -102.208       -3.064      -16.395       42.662       28.984       19.839     1820.042      840.077      393.575        0.689        0.153      102.254       19.415        0.036      340.365       14.335      862.590
05/25/2014  04:53:00     -128.956      -15.894      -13.260       37.798       32.922       26.869     1428.656     1083.829      721.958        1.015        0.162      129.932       22.916        0.031      340.375       14.352      862.593
05/25/2014  04:54:00      -88.710      -24.177       -3.342       42.658       35.026       22.436     1819.682     1226.846      503.393        0.601        0.177       91.946       20.815        0.051      340.324       14.265      862.587
05/25/2014  04:55:00     -151.493      -14.581      -14.671       36.511       33.665       20.619     1333.041     1133.343      425.131        1.313        0.145      152.193       19.837        0.017      340.285       14.200      862.588
05/25/2014  04:56:00     -169.754      -29.018      -16.909       43.143       37.684       29.450     1861.357     1420.117      867.301        1.705        0.207      172.216       27.681        0.026      340.138       13.952      862.572
05/25/2014  04:57:00     -136.308      -31.249       -4.632       43.118       30.563       27.893     1859.160      934.072      778.041        1.157        0.179      139.844       24.233        0.030      340.116       13.915      862.562
05/25/2014  04:58:00     -136.015      -26.445       -9.668       28.746       25.159       20.629      826.348      632.985      425.543        1.059        0.094      138.562       15.901        0.013      340.208       14.070      862.567
05/25/2014  04:59:00     -141.665      -13.246       -7.664       53.030       32.269       27.871     2812.185     1041.272      776.791        1.247        0.232      142.283       28.160        0.039      340.130       13.940      862.559
05/25/2014  05:00:00     -134.384      -25.359      -10.902       45.219       30.869       25.701     2044.750      952.886      660.555        1.124        0.183      136.756       27.087        0.039      340.148       13.967      862.559
05/25/2014  05:01:00     -125.040      -23.234       -4.503       41.415       33.045       22.367     1715.227     1091.976      500.287        0.975        0.165      127.181       19.525        0.024      340.137       13.951      862.560
05/25/2014  05:02:00      -95.962      -47.061       -2.868       44.943       36.969       23.956     2019.829     1366.734      573.898        0.770        0.198      106.880       19.179        0.032      340.104       13.894      862.564
05/25/2014  05:03:00     -128.830      -11.067      -14.715       33.332       38.424       23.887     1111.021     1476.422      570.605        1.005        0.158      129.304       19.996        0.024      340.094       13.875      862.558
05/25/2014  05:04:00     -103.944      -11.456      -10.853       26.887       29.028       18.566      722.931      842.601      344.711        0.648        0.096      104.573       12.473        0.014      340.055       13.812      862.539
05/25/2014  05:05:00     -157.596       -0.638      -14.675       37.716       33.200       19.173     1422.487     1102.231      367.616        1.397        0.145      157.597       15.935        0.010      340.113       13.909      862.531
05/25/2014  05:06:00     -186.250      -18.236      -16.859       40.297       41.314       24.903     1623.877     1706.855      620.141        1.963        0.198      187.140       22.894        0.015      340.070       13.836      862.541
05/25/2014  05:07:00     -139.431      -20.446       -3.520       51.736       52.767       31.346     2676.571     2784.361      982.590        1.316        0.322      140.922       26.838        0.036      340.071       13.838      862.533
05/25/2014  05:08:00     -128.042      -42.155      -15.139       51.529       46.309       26.908     2655.196     2144.547      724.063        1.196        0.276      134.803       24.920        0.034      340.103       13.893      862.530
05/25/2014  05:09:00     -186.428      -62.002       -1.709       49.427       42.577       30.357     2442.988     1812.781      921.573        2.189        0.259      196.468       25.589        0.017      340.047       13.796      862.553
05/25/2014  05:10:00     -111.457      -73.892       -7.729       60.004       51.591       29.544     3600.521     2661.664      872.870        1.254        0.357      133.727       27.625        0.043      340.186       14.033      862.560
05/25/2014  05:11:00     -119.688      -71.515        2.457       36.760       40.178       25.207     1351.322     1614.299      635.387        1.152        0.180      139.426       21.170        0.023      340.190       14.040      862.567
05/25/2014  05:12:00      -90.263      -76.487       -5.451       39.080       41.522       26.239     1527.221     1724.046      688.465        0.898        0.197      118.312       24.286        0.042      340.229       14.106      862.588
05/25/2014  05:13:00     -122.410     -101.288        3.890       37.004       35.514       25.765     1369.287     1261.269      663.840        1.428        0.165      158.882       21.693        0.019      340.228       14.103      862.605
05/25/2014  05:14:00     -126.990      -71.983      -17.565       23.174       25.853       20.710      537.026      668.386      428.898        1.163        0.082      145.973       11.921        0.007      340.161       13.992      862.618
05/25/2014  05:15:00      -89.241      -29.502       -2.429       28.195       31.222       19.406      794.943      974.839      376.601        0.549        0.107       93.991       16.711        0.032      340.151       13.974      862.639
05/25/2014  05:16:00     -124.323      -11.796      -10.796       33.616       32.998       19.647     1130.054     1088.864      385.995        0.916        0.130      124.881       19.274        0.024      340.140       13.954      862.659
05/25/2014  05:17:00     -133.250      -52.709       -4.750       32.117       25.695       19.726     1031.524      660.244      389.134        1.132        0.104      143.296       10.339        0.005      340.151       13.972      862.670
05/25/2014  05:18:00     -123.009      -56.827       -1.965       30.924       32.655       20.358      956.311     1066.349      414.448        1.040        0.122      135.500       17.938        0.018      340.077       13.850      862.679
05/25/2014  05:19:00     -127.060      -55.147       -6.249       52.864       27.567       22.846     2794.588      759.953      521.950        1.165        0.204      138.512       26.168        0.036      340.086       13.862      862.698
05/25/2014  05:20:00     -140.222      -81.784       -1.897       49.777       34.367       22.426     2477.707     1181.094      502.905        1.526        0.208      162.329       21.848        0.018      340.158       13.986      862.705
05/25/2014  05:21:00     -137.437      -81.115       -1.015       47.008       47.037       26.591     2209.754     2212.473      707.059        1.530        0.256      159.589       25.006        0.025      340.173       14.009      862.704
05/25/2014  05:22:00     -103.784      -77.908        0.084       35.843       31.995       20.900     1284.693     1023.664      436.801        0.979        0.137      129.772       17.874        0.019      340.161       13.990      862.713
05/25/2014  05:23:00      -50.802      -35.091       12.211       59.463       48.582       23.773     3535.875     2360.249      565.146        0.521        0.323       61.743       23.712        0.147      340.189       14.037      862.725
05/25/2014  05:24:00     -148.076     -111.165        3.686       67.260       48.549       34.131     4523.873     2356.975     1164.933        2.117        0.402      185.160       27.267        0.022      340.235       14.114      862.729
05/25/2014  05:25:00     -190.178     -128.843       -5.815       59.747       45.027       31.216     3569.734     2027.401      974.469        2.969        0.329      229.713       30.431        0.018      340.269       14.169      862.738
05/25/2014  05:26:00     -134.659      -69.071        3.785       67.606       35.129       29.838     4570.558     1234.014      890.305        1.481        0.335      151.340       35.063        0.054      340.326       14.269      862.749
05/25/2014  05:27:00     -131.928      -64.557       -3.989       34.243       44.424       23.217     1172.587     1973.453      539.047        1.264        0.184      146.876       18.316        0.016      340.378       14.358      862.749
05/25/2014  05:28:00      -96.438      -59.797        0.678       47.442       36.267       21.512     2250.713     1315.330      462.751        0.845        0.201      113.472       21.524        0.036      340.338       14.289      862.757
05/25/2014  05:29:00     -110.318      -53.712       -9.508       37.326       35.443       18.347     1393.200     1256.234      336.613        0.907        0.149      122.699       17.267        0.020      340.372       14.349      862.771
05/25/2014  05:30:00      -78.593      -37.841       -5.944       33.122       29.513       20.011     1097.084      871.031      400.431        0.501        0.118       87.228       13.717        0.025      340.379       14.360      862.785
05/25/2014  05:31:00      -96.937      -49.729       -8.424       21.728       17.858       16.146      472.110      318.891      260.708        0.650        0.053      108.948       13.147        0.015      340.412       14.416      862.801
05/25/2014  05:32:00      -44.733        1.498       -1.905       22.215       13.716        9.749      493.525      188.130       95.034        0.139        0.039       44.758       11.264        0.063      340.358       14.323      862.817
05/25/2014  05:33:00        8.449      -39.754        0.534       22.126       22.110       10.815      489.555      488.867      116.961        0.137        0.055       40.641        5.489        0.018      340.444       14.470      862.830
05/25/2014  05:34:00       -4.711      -96.852        2.902       21.005       10.980       13.258      441.190      120.562      175.767        0.507        0.037       96.966        8.303        0.007      340.571       14.684      862.848
05/25/2014  05:35:00      -21.242      -72.652       -2.730       32.789       34.662       16.889     1075.092     1201.487      285.236        0.415        0.128       75.694       21.698        0.082      340.527       14.610      862.857
05/25/2014  05:36:00       -2.424      -32.436       10.099       23.714       23.603       18.368      562.348      557.119      337.371        0.131        0.073       32.527       16.432        0.255      340.469       14.512      862.859
05/25/2014  05:37:00      -24.353      -33.121        5.848       20.059       14.384       12.780      402.374      206.891      163.316        0.125        0.039       41.110       11.935        0.084      340.491       14.548      862.867
05/25/2014  05:38:00      -10.612      -12.814        8.221       15.678       18.612       14.170      245.804      346.408      200.778        0.057        0.040       16.638       13.305        0.640      340.453       14.484      862.878
05/25/2014  05:39:00      -29.676      -26.816        5.963       30.080       18.631       13.004      904.824      347.098      169.116        0.153        0.071       39.997       15.043        0.141      340.349       14.306      862.887
05/25/2014  05:40:00     -123.615      -38.472       -6.150       28.989       26.585       19.931      840.339      706.768      397.254        0.937        0.097      129.464       15.471        0.014      340.189       14.038      862.892
05/25/2014  05:41:00     -143.098      -49.299       -6.938       32.259       24.844       13.074     1040.675      617.203      170.925        1.239        0.091      151.352        5.109        0.001      340.137       13.950      862.897
05/25/2014  05:42:00      -46.891      -50.339        6.314       48.406       34.678       26.395     2343.167     1202.554      696.713        0.451        0.212       68.795       24.062        0.122      340.081       13.856      862.906
05/25/2014  05:43:00      -88.472      -88.712        0.817       46.438       38.565       24.416     2156.488     1487.288      596.142        0.997        0.212      125.288       27.814        0.049      340.127       13.933      862.911
05/25/2014  05:44:00      -87.257      -88.872        1.266       40.141       45.016       28.372     1611.325     2026.403      804.996        0.998        0.222      124.548       23.012        0.034      340.159       13.988      862.921
05/25/2014  05:45:00      -89.688      -91.538       -0.089       43.488       40.733       27.044     1891.180     1659.188      731.398        1.035        0.214      128.153       22.334        0.030      340.272       14.178      862.931
05/25/2014  05:46:00      -95.519      -72.216       -1.319       43.734       38.343       17.524     1912.637     1470.186      307.093        0.901        0.184      119.746       15.078        0.016      340.270       14.174      862.934
05/25/2014  05:47:00     -100.302      -52.431       -6.502       51.753       31.853       19.594     2678.325     1014.615      383.911        0.846        0.204      113.179       23.280        0.042      340.290       14.207      862.940
05/25/2014  05:48:00     -133.761      -55.760       -7.149       26.915       28.855       20.206      724.391      832.585      408.272        1.151        0.098      144.918       16.730        0.013      340.272       14.179      862.937
05/25/2014  05:49:00      -88.541      -66.070        0.864       37.118       32.355       20.646     1377.745     1046.817      426.254        0.753        0.143      110.475       20.999        0.036      340.259       14.156      862.946
05/25/2014  05:50:00     -123.501      -50.972       -3.733       25.755       22.157       15.585      663.338      490.940      242.883        0.963        0.070      133.606       13.330        0.010      340.232       14.110      862.958
05/25/2014  05:51:00     -126.208      -69.055       -5.393       27.296       27.149       18.308      745.091      737.077      335.184        1.127        0.091      143.865       16.910        0.014      340.275       14.182      862.963
05/25/2014  05:52:00     -101.561      -59.636        4.014       46.814       32.005       21.695     2191.522     1024.352      470.688        0.879        0.184      117.775       21.685        0.034      340.242       14.128      862.962
05/25/2014  05:53:00     -112.176      -52.068        0.623       32.256       30.188       18.483     1040.465      911.314      341.631        0.879        0.115      123.670       13.078        0.011      340.225       14.098      862.969
05/25/2014  05:54:00      -93.949      -67.254       -0.293       51.942       40.878       21.514     2697.990     1671.006      462.864        0.909        0.242      115.540       24.783        0.046      340.261       14.159      862.976
05/25/2014  05:55:00     -128.287      -82.533       -9.082       30.511       31.309       21.268      930.897      980.271      452.345        1.286        0.118      152.543       10.948        0.005      340.263       14.162      862.981
05/25/2014  05:56:00      -90.984      -63.313        4.256       27.966       30.710       18.610      782.089      943.129      346.330        0.719        0.104      110.845       13.563        0.015      340.231       14.107      862.986
05/25/2014  05:57:00      -89.294      -41.334        5.473       43.729       40.306       24.010     1912.256     1624.602      576.477        0.691        0.206       98.397       20.600        0.044      340.235       14.116      863.001
05/25/2014  05:58:00     -102.274      -30.848       -1.753       43.451       26.720       20.557     1888.002      713.974      422.585        0.722        0.151      106.825       22.152        0.043      340.199       14.055      863.012
05/25/2014  05:59:00     -112.408      -23.564        0.707       37.886       25.694       17.606     1435.373      660.199      309.974        0.780        0.120      114.851       17.754        0.024      340.195       14.046      863.020
05/25/2014  06:00:00     -122.761      -43.933        3.073       38.104       24.156       16.901     1451.952      583.490      285.643        0.966        0.116      130.385       18.246        0.020      340.173       14.011      863.034
05/25/2014  06:01:00     -111.520      -33.360       -1.192       29.263       23.381       18.078      856.331      546.662      326.805        0.764        0.086      116.403       16.965        0.021      340.162       13.989      863.048
05/25/2014  06:02:00      -69.069       -3.762       -2.064       32.716       21.963       17.904     1070.356      482.394      320.537        0.333        0.094       69.171       18.339        0.070      340.166       13.998      863.061
05/25/2014  06:03:00      -83.346       -0.616       -5.407       14.565       15.073       10.473      212.127      227.195      109.682        0.376        0.027       83.348        4.765        0.003      340.179       14.020      863.073
05/25/2014  06:04:00      -79.642      -12.455       -5.526       25.127       17.729       15.055      631.370      314.309      226.653        0.385        0.059       80.610       14.301        0.031      340.146       13.964      863.075
05/25/2014  06:05:00      -78.336      -29.767      -10.053       13.564       17.370       10.573      183.995      301.706      111.782        0.386        0.030       83.801        4.347        0.003      340.172       14.007      863.079
05/25/2014  06:06:00      -90.184      -33.825       -3.655       23.024       20.961       10.639      530.101      439.378      113.195        0.519        0.054       96.318        9.104        0.009      340.192       14.044      863.075
05/25/2014  06:07:00      -62.923      -44.790        2.151       23.056       22.726       14.777      531.585      516.468      218.357        0.362        0.063       77.236       15.499        0.040      340.266       14.168      863.072
05/25/2014  06:08:00      -90.708      -40.537       -3.586       12.993       18.328       12.152      168.807      335.920      147.675        0.527        0.033       99.353        3.979        0.002      340.266       14.166      863.061
05/25/2014  06:09:00      -86.474      -26.883        1.764       20.077       17.027       11.696      403.072      289.910      136.794        0.452        0.041       90.556        9.894        0.012      340.207       14.068      863.053
05/25/2014  06:10:00      -74.721      -19.925        1.854       35.848       21.503       17.516     1285.103      462.365      306.809        0.402        0.103       77.332       19.861        0.066      340.208       14.070      863.036
05/25/2014  06:11:00     -103.301      -40.623       -5.961       15.568       10.910       12.228      242.351      119.023      149.536        0.643        0.026      111.001        9.025        0.007      340.185       14.029      863.012
05/25/2014  06:12:00      -84.603      -36.530       -4.502       16.879       22.022       13.020      284.885      484.964      169.531        0.473        0.047       92.152        9.289        0.010      340.179       14.021      862.989
05/25/2014  06:13:00      -43.603      -37.889       -0.876       40.729       25.754       18.314     1658.876      663.254      335.418        0.300        0.133       57.765       19.728        0.117      340.297       14.221      862.994
05/25/2014  06:14:00      -69.576      -40.934       -1.380       31.157       23.920       15.001      970.750      572.164      225.026        0.414        0.088       80.725       13.763        0.029      340.177       14.017      863.018
05/25/2014  06:15:00      -97.830      -51.379       -2.566       43.163       22.447       16.288     1863.029      503.851      265.300        0.742        0.132      110.501       17.492        0.025      340.234       14.113      863.036
05/25/2014  06:16:00      -89.905      -33.247       -4.089       63.237       33.937       18.982     3998.924     1151.746      360.301        0.736        0.276       95.856       24.215        0.064      340.233       14.112      863.059
05/25/2014  06:17:00      -75.171      -55.123        8.421       51.426       41.475       31.592     2644.627     1720.170      998.068        0.706        0.268       93.216       28.217        0.092      340.237       14.120      863.086
05/25/2014  06:18:00     -103.825      -87.242        3.224       50.960       40.919       31.056     2596.880     1674.330      964.455        1.182        0.262      135.613       28.993        0.046      340.201       14.056      863.108
05/25/2014  06:19:00     -119.976      -78.491       -4.271       49.259       38.391       25.041     2426.491     1473.837      627.063        1.255        0.226      143.370       26.787        0.035      340.203       14.061      863.131
05/25/2014  06:20:00     -102.726      -15.807       -5.175       36.129       32.485       22.992     1305.305     1055.277      528.626        0.686        0.144      103.935       15.719        0.023      340.198       14.053      863.135
05/25/2014  06:21:00      -91.561      -37.981        0.677       49.983       27.617       20.226     2498.301      762.717      409.099        0.675        0.184       99.125       22.726        0.053      340.258       14.154      863.159
05/25/2014  06:22:00      -67.050      -66.154       -1.412       52.887       51.789       31.354     2797.051     2682.132      983.059        0.767        0.323       94.191       34.980        0.138      340.231       14.109      863.176
05/25/2014  06:23:00     -147.278      -73.319       -4.737       58.277       30.164       31.324     3396.214      909.884      981.178        1.619        0.264      164.519       27.489        0.028      340.186       14.033      863.184
05/25/2014  06:24:00     -110.755      -56.142        0.937       40.946       39.164       27.174     1676.599     1533.809      738.448        0.968        0.197      124.172       26.386        0.045      340.230       14.106      863.207
05/25/2014  06:25:00     -114.384      -61.200       -7.759       48.359       33.192       21.625     2338.581     1101.739      467.647        1.040        0.195      129.727       18.905        0.021      340.279       14.189      863.215
05/25/2014  06:26:00      -93.724      -80.069       -0.906       40.434       29.618       26.595     1634.911      877.247      707.312        0.921        0.161      123.269       21.227        0.030      340.265       14.167      863.228
05/25/2014  06:27:00     -151.377      -70.727       -6.882       27.085       42.182       23.921      733.608     1779.348      572.196        1.552        0.154      167.085       19.209        0.013      340.255       14.149      863.224
05/25/2014  06:28:00      -70.306      -35.117        2.025       51.128       24.018       22.894     2614.022      576.849      524.122        0.495        0.186       78.588       24.270        0.095      340.301       14.226      863.218
05/25/2014  06:29:00      -79.062      -75.808       -1.884       49.335       41.537       24.517     2433.956     1725.290      601.076        0.838        0.238      109.534       21.341        0.038      340.299       14.224      863.229
05/25/2014  06:30:00      -80.538      -45.243       -3.066       26.245       20.022       15.710      688.804      400.881      246.807        0.494        0.067       92.375        8.139        0.008      340.318       14.255      863.232
05/25/2014  06:31:00      -82.852      -29.682       -8.234       29.319       28.381       17.404      859.599      805.508      302.906        0.489        0.098       88.009       15.792        0.032      340.337       14.288      863.243
05/25/2014  06:32:00      -72.676      -33.962      -12.700       18.644       16.354        9.392      347.586      267.463       88.205        0.365        0.035       80.219        6.582        0.007      340.372       14.346      863.256
05/25/2014  06:33:00      -55.537      -28.164       -3.675       25.908       24.307       13.718      671.250      590.823      188.174        0.267        0.073       62.270       13.933        0.050      340.445       14.471      863.259
05/25/2014  06:34:00      -49.001       -9.088       -1.581       23.475       17.262       16.956      551.090      297.985      287.495        0.181        0.057       49.836       13.490        0.073      340.468       14.510      863.272
05/25/2014  06:35:00      -36.243      -22.410        3.842       25.654       23.864       13.835      658.119      569.507      191.412        0.162        0.071       42.612       12.189        0.082      340.477       14.525      863.275
05/25/2014  06:36:00      -36.128      -17.351        4.370       19.854       13.683       12.261      394.197      187.226      150.328        0.118        0.037       40.078       12.327        0.095      340.540       14.631      863.272
05/25/2014  06:37:00      -55.186      -41.769       -3.596       19.638       12.646        8.424      385.633      159.924       70.961        0.271        0.031       69.211        6.315        0.008      340.503       14.568      863.283
05/25/2014  06:38:00      -17.016      -35.709        3.025       17.871       19.555       15.053      319.375      382.410      226.590        0.125        0.046       39.556        7.589        0.037      340.586       14.709      863.275
05/25/2014  06:39:00      -27.686      -83.879       -5.633        9.925       13.515       12.048       98.514      182.653      145.144        0.413        0.021       88.330        5.754        0.004      340.406       14.405      863.278
05/25/2014  06:40:00      -37.983      -48.701       -1.001       17.078       18.165       11.075      291.666      329.952      122.665        0.228        0.037       61.761        8.690        0.020      340.442       14.466      863.280
05/25/2014  06:41:00      -35.610      -52.167        4.029       23.250       19.808       16.173      540.582      392.364      261.573        0.260        0.060       63.163       14.136        0.050      340.463       14.500      863.280
05/25/2014  06:42:00      -66.967      -71.515       -7.318       16.592       22.483       13.308      275.280      505.484      177.116        0.531        0.048       97.974        4.194        0.002      340.423       14.434      863.270
05/25/2014  06:43:00      -56.862      -33.328       -4.428       19.214       24.223       14.270      369.159      586.770      203.635        0.276        0.058       65.909       12.419        0.036      340.469       14.510      863.270
05/25/2014  06:44:00      -38.739        8.816       11.085       29.119       25.500       16.351      847.891      650.265      267.347        0.173        0.088       39.730       13.578        0.117      340.666       14.844      863.255
05/25/2014  06:45:00      -23.819      -21.210        3.398       17.492       14.343       11.981      305.966      205.726      143.555        0.084        0.033       31.894       10.446        0.107      340.608       14.747      863.244
05/25/2014  06:46:00      -75.390      -27.580      -10.219       14.974       23.834        8.764      224.223      568.070       76.801        0.371        0.043       80.276        5.636        0.005      340.579       14.695      863.234
05/25/2014  06:47:00      -45.128      -44.676        5.050       29.216       27.809       21.880      853.547      773.333      478.734        0.308        0.105       63.502       18.667        0.086      340.638       14.796      863.241
05/25/2014  06:48:00      -29.451      -38.085        2.278       28.783       32.614       21.795      828.478     1063.669      475.038        0.234        0.118       48.144       22.633        0.221      340.796       15.065      863.244
05/25/2014  06:49:00      -26.559      -29.780       11.978       27.523       26.713       20.910      757.498      713.573      437.223        0.182        0.095       39.903       24.858        0.388      341.009       15.423      863.250
05/25/2014  06:50:00      -49.905      -30.829       -1.396       35.998       20.441       10.906     1295.858      417.823      118.941        0.264        0.092       58.660       15.215        0.067      340.831       15.124      863.251
05/25/2014  06:51:00      -76.940      -19.609        0.719       21.429       14.571       13.319      459.201      212.328      177.404        0.358        0.042       79.399       11.981        0.023      340.766       15.015      863.258
05/25/2014  06:52:00      -63.263       -9.951        3.497       37.184       18.631       15.683     1382.662      347.125      245.963        0.304        0.099       64.041       19.334        0.091      340.899       15.239      863.256
05/25/2014  06:53:00      -91.856      -36.076       -4.927       41.297       40.806       18.934     1705.455     1665.099      358.488        0.675        0.186       98.686       24.568        0.062      340.957       15.337      863.255
05/25/2014  06:54:00      -96.034      -54.500       -5.378       34.744       30.565       16.085     1207.130      934.205      258.717        0.731        0.120      110.420       14.168        0.016      340.892       15.226      863.244
05/25/2014  06:55:00      -87.972      -31.199        9.665       45.559       32.733       21.106     2075.603     1071.426      445.476        0.620        0.180       93.341       22.772        0.060      340.960       15.340      863.220
05/25/2014  06:56:00      -86.840      -30.661       -4.702       31.217       25.035       16.516      974.529      626.752      272.792        0.519        0.094       92.094       12.456        0.018      340.961       15.342      863.212
05/25/2014  06:57:00      -74.050      -30.139       -3.186       27.986       24.799       19.439      783.241      615.012      377.855        0.409        0.089       79.948       17.677        0.049      341.006       15.418      863.197
05/25/2014  06:58:00      -89.191      -25.596       -7.556       33.321       26.341       21.449     1110.304      693.870      460.043        0.547        0.113       92.791       10.357        0.012      341.050       15.494      863.192
05/25/2014  06:59:00      -66.146       -8.407       -1.838       37.914       29.871       17.399     1437.435      892.276      302.723        0.354        0.132       66.678       19.241        0.083      341.164       15.687      863.193
05/25/2014  07:00:00      -55.043      -19.905        5.065       22.810       25.670       12.282      520.283      658.956      150.847        0.239        0.067       58.531       11.642        0.040      341.154       15.669      863.199
05/25/2014  07:01:00      -64.450      -69.327        0.375       48.972       37.132       22.153     2398.224     1378.761      490.737        0.661        0.213       94.657       20.304        0.046      341.251       15.834      863.207
05/25/2014  07:02:00      -63.320      -21.659       -0.404       36.321       25.313       20.471     1319.222      640.750      419.053        0.343        0.119       66.922       22.262        0.111      341.379       16.051      863.221
05/25/2014  07:03:00      -43.356      -61.572       10.148       36.866       33.027       22.008     1359.091     1090.796      484.363        0.435        0.147       75.305       21.679        0.083      341.287       15.895      863.241
05/25/2014  07:04:00      -23.644      -50.092       14.236       41.789       40.062       24.865     1746.361     1604.953      618.284        0.362        0.198       55.391       25.031        0.204      341.439       16.152      863.252
05/25/2014  07:05:00      -61.540      -22.628       12.543       32.413       34.074       18.839     1050.597     1161.049      354.922        0.351        0.128       65.568       15.086        0.053      341.359       16.016      863.255
05/25/2014  07:06:00      -59.335        0.382        5.638       29.251       23.769       18.375      855.603      564.982      337.655        0.266        0.088       59.337       14.913        0.063      341.456       16.181      863.268
05/25/2014  07:07:00      -30.082      -37.288        8.338       32.392       38.680       15.008     1049.229     1496.167      225.238        0.257        0.139       47.909       10.901        0.052      341.543       16.328      863.265
05/25/2014  07:08:00      -48.813      -81.255        2.365       18.883       18.213       14.846      356.576      331.729      220.418        0.495        0.045       94.789       11.089        0.014      341.318       15.947      863.270
05/25/2014  07:09:00      -37.300      -36.511       13.556       41.029       24.624       18.901     1683.392      606.319      357.250        0.278        0.132       52.195       11.290        0.047      341.514       16.278      863.267
05/25/2014  07:10:00      -23.744      -49.558        6.283       21.364       19.373       13.952      456.407      375.304      194.671        0.204        0.051       54.953       12.450        0.051      341.475       16.213      863.275
05/25/2014  07:11:00      -28.950      -52.340        6.814       20.293       41.196       14.512      411.822     1697.103      210.607        0.297        0.116       59.813       15.600        0.068      341.479       16.220      863.285
05/25/2014  07:12:00      -35.355      -31.869        2.868       29.451       18.569       16.466      867.356      344.792      271.124        0.188        0.074       47.598       13.478        0.080      341.537       16.319      863.294
05/25/2014  07:13:00       -1.062      -39.117        9.655       21.372       28.133       10.672      456.771      791.441      113.882        0.149        0.068       39.132       11.467        0.086      341.640       16.492      863.299
05/25/2014  07:14:00        6.063      -16.178        5.460       18.188       12.724       16.337      330.819      161.904      266.887        0.054        0.038       17.277       13.044        0.570      341.839       16.829      863.303
05/25/2014  07:15:00      -22.691      -14.283        3.506       17.061       14.661       11.361      291.079      214.955      129.073        0.068        0.032       26.812        9.961        0.138      341.696       16.588      863.307
05/25/2014  07:16:00      -11.421       -6.059       12.706       12.861       17.571       12.586      165.393      308.755      158.405        0.048        0.032       12.929        7.411        0.329      342.055       17.198      863.297
05/25/2014  07:17:00        1.291      -23.935        2.990       18.216       25.350       20.645      331.836      642.635      426.203        0.099        0.070       23.970       16.588        0.479      341.876       16.895      863.295
05/25/2014  07:18:00      -17.978      -17.143        6.304       16.583       19.589       15.704      275.011      383.713      246.624        0.078        0.045       24.841       12.078        0.236      342.028       17.153      863.296
05/25/2014  07:19:00      -48.576      -35.681        3.182       11.271       13.335       11.187      127.040      177.824      125.153        0.204        0.022       60.272        5.209        0.007      341.644       16.500      863.297
05/25/2014  07:20:00      -29.264        2.458       12.076       25.638       25.511       17.862      657.302      650.806      319.047        0.132        0.081       29.367       13.826        0.222      341.944       17.010      863.293
05/25/2014  07:21:00       -6.095       -7.533        7.678       22.138       24.892       23.944      490.112      619.627      573.312        0.092        0.084        9.690       11.196        1.335      342.346       17.690      863.285
05/25/2014  07:22:00      -13.914      -15.462       -1.058       20.853       39.518       22.000      434.858     1561.654      484.004        0.146        0.124       20.800       12.817        0.380      341.930       16.984      863.277
05/25/2014  07:23:00      -26.009       -5.462        9.670       14.884       23.927       15.451      221.540      572.523      238.725        0.092        0.052       26.576       10.680        0.161      341.828       16.812      863.264
05/25/2014  07:24:00      -46.694      -47.999       -5.614       19.113       21.445       16.153      365.311      459.906      260.909        0.280        0.054       66.964       10.768        0.026      341.644       16.501      863.241
05/25/2014  07:25:00      -41.941      -51.980        5.323       16.616       14.140       12.423      276.103      199.939      154.339        0.256        0.032       66.790        9.952        0.022      341.611       16.443      863.215
05/25/2014  07:26:00      -38.765       -6.868       10.886       23.749       16.362       16.292      564.022      267.711      265.434        0.138        0.055       39.369       15.575        0.157      341.882       16.903      863.202
05/25/2014  07:27:00      -28.061        2.439        4.621       22.334       21.612       16.234      498.821      467.085      263.548        0.102        0.061       28.167        9.907        0.124      341.775       16.723      863.197
05/25/2014  07:28:00      -48.292      -16.016        6.676       21.376       16.074       15.653      456.945      258.370      245.024        0.180        0.048       50.878       12.956        0.065      341.875       16.892      863.195
05/25/2014  07:29:00      -48.953      -19.242        0.078       15.909       15.542       13.621      253.094      241.541      185.526        0.172        0.034       52.599        8.619        0.027      341.845       16.840      863.199
05/25/2014  07:30:00      -52.568      -13.423        3.730       16.439       14.293       13.493      270.252      204.293      182.063        0.181        0.033       54.255        7.751        0.020      341.790       16.748      863.206
05/25/2014  07:31:00      -30.092      -39.871        6.617       21.141       41.079       16.605      446.923     1687.520      275.740        0.247        0.121       49.952       16.789        0.113      342.057       17.200      863.205
05/25/2014  07:32:00      -36.174      -37.112        5.316       22.219       27.550       13.631      493.701      759.007      185.804        0.208        0.072       51.826       12.538        0.059      341.982       17.073      863.205
05/25/2014  07:33:00      -31.005      -64.728        0.614       21.046       23.512       15.738      442.937      552.828      247.680        0.320        0.062       71.771        6.126        0.007      341.899       16.933      863.212
05/25/2014  07:34:00      -15.156      -73.665        2.621        9.167       12.957       11.447       84.038      167.880      131.035        0.302        0.019       75.208        6.630        0.008      341.866       16.875      863.215
05/25/2014  07:35:00      -30.620      -26.187       -4.184        9.244       17.402        8.004       85.456      302.823       64.059        0.105        0.023       40.291        3.341        0.007      341.969       17.052      863.207
05/25/2014  07:36:00       -7.363      -11.663       17.247       18.739       18.065       19.617      351.158      326.344      384.816        0.077        0.053       13.793        8.580        0.387      342.723       18.333      863.204
05/25/2014  07:37:00        1.312       23.902       13.749       18.731       19.134       22.500      350.850      366.117      506.235        0.099        0.061       23.938       16.010        0.447      342.663       18.232      863.190
05/25/2014  07:38:00      -23.860        6.995       13.234       24.053       11.540       21.891      578.531      133.170      479.207        0.099        0.060       24.864       17.196        0.478      342.670       18.242      863.183
05/25/2014  07:39:00       24.522      -23.295       -2.682       31.525       28.990       30.493      993.834      840.411      929.810        0.196        0.138       33.823       22.078        0.426      342.052       17.192      863.184
05/25/2014  07:40:00        4.771       12.971       33.553       24.413       27.548       22.538      595.983      758.895      507.983        0.159        0.093       13.820       21.720        2.470      342.883       18.607      863.191
05/25/2014  07:41:00       -9.267       20.324       56.885       16.869       32.063       19.664      284.566     1028.020      386.672        0.272        0.085       22.337       18.431        0.681      343.010       18.821      863.189
05/25/2014  07:42:00       -9.742        0.928       37.742       23.557       33.378       23.190      554.914     1114.059      537.792        0.186        0.110        9.786       22.006        5.057      343.066       18.917      863.197
05/25/2014  07:43:00       -4.479       35.136       55.858       23.601       31.110       16.697      556.984      967.820      278.805        0.309        0.090       35.420       14.511        0.168      342.696       18.287      863.199
05/25/2014  07:44:00       -2.360      -18.760       27.827       22.108       57.282       25.618      488.762     3281.251      656.306        0.278        0.221       18.908       32.376        2.932      342.816       18.490      863.197
05/25/2014  07:45:00       13.257       -1.219       27.385       28.785       48.185       18.586      828.559     2321.765      345.430        0.221        0.175       13.313       18.854        2.005      342.630       18.175      863.203
05/25/2014  07:46:00       23.872      -52.278       16.266       33.941       48.517       30.652     1151.960     2353.940      939.535        0.401        0.222       57.470       21.941        0.146      342.778       18.426      863.207
05/25/2014  07:47:00       -1.665      -10.853       38.870       20.297       35.541       23.337      411.984     1263.196      544.599        0.193        0.111       10.980       19.887        3.281      343.134       19.032      863.216
05/25/2014  07:48:00       31.130      -43.520       16.249       36.690       54.479       32.885     1346.182     2967.963     1081.433        0.426        0.270       53.507       32.732        0.374      342.708       18.307      863.228
05/25/2014  07:49:00       31.694      -58.704        3.084       47.453       52.903       37.509     2251.810     2798.760     1406.945        0.546        0.323       66.713       28.945        0.188      342.272       17.565      863.230
05/25/2014  07:50:00        4.117      -64.098       12.803       29.235       46.953       33.733      854.705     2204.574     1137.912        0.424        0.210       64.231       28.734        0.200      342.770       18.413      863.242
05/25/2014  07:51:00        8.177      -16.490       21.064       27.563       41.735       34.267      759.714     1741.850     1174.216        0.223        0.184       18.406       14.567        0.626      343.017       18.834      863.240
05/25/2014  07:52:00       32.313       39.040       57.661       40.538       35.075       22.227     1643.358     1230.251      494.021        0.463        0.168       50.678       18.159        0.128      342.814       18.487      863.239
05/25/2014  07:53:00       56.658      -39.140        8.111       63.006       52.718       34.378     3969.717     2779.213     1181.850        0.637        0.397       68.863       36.505        0.281      342.333       17.669      863.247
05/25/2014  07:54:00       32.421      -26.321       21.660       42.304       48.293       37.556     1789.592     2332.191     1410.476        0.387        0.277       41.760       33.460        0.642      342.422       17.820      863.240
05/25/2014  07:55:00        4.328       11.264       39.570       28.217       30.865       21.489      796.210      952.618      461.795        0.196        0.111       12.067       16.226        1.808      343.245       19.222      863.250
05/25/2014  07:56:00        8.962      -18.771       37.177       23.904       48.214       25.091      571.415     2324.561      629.573        0.267        0.176       20.801       25.747        1.532      342.883       18.605      863.248
05/25/2014  07:57:00       23.622       25.428       41.844       27.683       36.702       25.190      766.357     1347.042      634.514        0.285        0.137       34.708        9.552        0.076      343.005       18.812      863.250
05/25/2014  07:58:00       15.630       -5.004       32.660       27.130       44.858       25.210      736.051     2012.225      635.559        0.236        0.169       16.412       24.847        2.292      343.246       19.223      863.256
05/25/2014  07:59:00       36.064       48.651       26.362       36.552       31.639       32.739     1336.020     1001.025     1071.838        0.389        0.170       60.561       21.689        0.128      342.969       18.750      863.248
05/25/2014  08:00:00       66.640       45.384       26.644       41.679       48.660       33.888     1737.169     2367.822     1148.429        0.623        0.263       80.627       24.190        0.090      342.923       18.672      863.247
05/25/2014  08:01:00       70.324       82.956       48.672       47.200       36.363       26.643     2227.858     1322.251      709.858        0.923        0.213      108.753       27.062        0.062      342.837       18.526      863.242
05/25/2014  08:02:00       73.055       76.832       66.929       41.042       38.723       28.206     1684.477     1499.488      795.561        0.985        0.199      106.020       18.055        0.029      342.726       18.337      863.242
05/25/2014  08:03:00       43.512       12.675       29.580       39.983       32.240       26.755     1598.659     1039.392      715.846        0.314        0.168       45.321       16.910        0.139      342.952       18.723      863.252
05/25/2014  08:04:00       12.940       18.573       41.998       22.332       33.628       27.474      498.701     1130.811      754.831        0.233        0.119       22.636        9.569        0.179      343.309       19.330      863.243
05/25/2014  08:05:00       39.192      -20.561       21.194       42.732       46.812       39.999     1825.992     2191.400     1599.891        0.401        0.281       44.258       32.383        0.535      342.962       18.738      863.244
05/25/2014  08:06:00        7.734       -7.439       28.465       16.652       24.303       20.255      277.300      590.631      410.281        0.110        0.064       10.731       11.182        1.086      343.286       19.290      863.234
05/25/2014  08:07:00       48.317       63.535       47.268       40.610       31.365       35.185     1649.195      983.751     1237.985        0.624        0.194       79.820       24.672        0.096      342.864       18.572      863.224
05/25/2014  08:08:00       32.108       11.297       40.359       33.264       56.751       26.893     1106.493     3220.721      723.241        0.392        0.253       34.037       26.684        0.615      342.960       18.735      863.210
05/25/2014  08:09:00       17.605      -42.427       -0.478       34.238       30.115       27.768     1172.224      906.941      771.085        0.248        0.143       45.935       18.765        0.167      342.666       18.235      863.206
05/25/2014  08:10:00       18.733      -37.460       -0.529       28.863       27.505       25.796      833.069      756.513      665.444        0.200        0.113       41.883       16.365        0.153      342.690       18.277      863.212
05/25/2014  08:11:00       -5.710        2.154       21.369       17.931       23.720       21.156      321.503      562.618      447.586        0.091        0.067        6.103        8.049        1.739      343.532       19.712      863.208
05/25/2014  08:12:00       32.953       39.091       26.613       26.310       33.174       20.857      692.233     1100.545      435.028        0.277        0.111       51.127        9.671        0.036      343.151       19.060      863.212
05/25/2014  08:13:00       -3.544      -13.777       13.179       16.996       24.948       16.278      288.873      622.417      264.968        0.078        0.059       14.225       10.070        0.501      343.263       19.252      863.201
05/25/2014  08:14:00       32.182       43.385       36.130       37.227       38.280       22.467     1385.849     1465.321      504.757        0.379        0.168       54.018       14.922        0.076      343.573       19.780      863.201
05/25/2014  08:15:00       77.300       55.586       26.925       30.527       30.500       31.569      931.896      930.269      996.632        0.632        0.143       95.211       16.167        0.029      342.935       18.693      863.201
05/25/2014  08:16:00       88.015       43.942        2.857       31.291       30.496       28.050      979.109      929.980      786.830        0.619        0.135       98.375       11.172        0.013      343.144       19.049      863.191
05/25/2014  08:17:00       35.326       -9.662       26.967       37.227       58.517       26.758     1385.818     3424.193      716.010        0.380        0.276       36.624       17.760        0.235      343.167       19.088      863.199
05/25/2014  08:18:00       35.952      -89.495       -0.465       32.878       32.620       25.047     1080.996     1064.097      627.353        0.604        0.139       96.447       11.209        0.014      342.859       18.564      863.212
05/25/2014  08:19:00       40.871      -16.832       14.908       39.685       41.111       33.137     1574.886     1690.078     1098.068        0.327        0.218       44.201       26.612        0.362      343.244       19.220      863.232
05/25/2014  08:20:00       27.989       -6.734       46.655       25.246       26.877       25.219      637.336      722.347      636.005        0.250        0.100       28.787       18.657        0.420      343.327       19.362      863.235
05/25/2014  08:21:00       12.678       -0.057       22.234       33.914       33.157       25.557     1150.153     1099.372      653.166        0.178        0.145       12.678       11.292        0.793      343.472       19.608      863.234
05/25/2014  08:22:00       22.156        7.403       19.345       48.123       31.001       33.544     2315.844      961.074     1125.195        0.266        0.220       23.360       26.367        1.274      343.491       19.642      863.236
05/25/2014  08:23:00       15.584      -11.210       43.586       27.340       31.373       30.861      747.484      984.280      952.397        0.248        0.134       19.197       19.983        1.083      343.914       20.362      863.228
05/25/2014  08:24:00       20.410       10.216       40.392       47.110       26.433       27.751     2219.387      698.699      770.126        0.292        0.184       22.824       26.005        1.298      343.770       20.116      863.221
05/25/2014  08:25:00       18.454       12.102       46.840       38.732       55.037       37.591     1500.159     3029.065     1413.089        0.431        0.297       22.069       38.150        2.988      343.651       19.913      863.217
05/25/2014  08:26:00        8.398       34.862       67.673       33.987       32.635       19.615     1155.136     1065.021      384.744        0.423        0.130       35.859       14.069        0.154      343.665       19.938      863.227
05/25/2014  08:27:00       22.470      -71.625        2.953       28.849       54.937       32.993      832.248     3018.119     1088.514        0.529        0.247       75.067       33.331        0.197      343.380       19.451      863.237
05/25/2014  08:28:00       11.305      -36.250       26.155       20.468       33.407       22.462      418.940     1116.038      504.532        0.208        0.102       37.972       17.444        0.211      343.670       19.945      863.259
05/25/2014  08:29:00       -8.394      -18.175       33.068       19.830       25.134       19.212      393.236      631.710      369.089        0.144        0.070       20.020       17.776        0.788      344.054       20.601      863.267
05/25/2014  08:30:00      -28.934      -17.170        5.616       25.766       28.327       23.617      663.882      802.427      557.773        0.159        0.101       33.645       22.658        0.454      343.636       19.890      863.265
05/25/2014  08:31:00       -0.633      -25.646       36.494       17.791       32.208       23.106      316.505     1037.347      533.902        0.194        0.094       25.654       18.856        0.540      343.879       20.303      863.253
05/25/2014  08:32:00       14.213        4.318       30.216       28.727       34.293       25.423      825.213     1176.005      646.343        0.189        0.132       14.855       12.876        0.751      343.862       20.273      863.227
05/25/2014  08:33:00        7.080        4.340       28.706       18.151       24.977       22.098      329.475      623.866      488.316        0.117        0.072        8.305       10.590        1.626      344.162       20.787      863.213
05/25/2014  08:34:00       75.201       50.582       30.246       40.746       35.109       34.622     1660.237     1232.649     1198.700        0.661        0.205       90.629       20.459        0.051      343.553       19.745      863.188
05/25/2014  08:35:00       61.305       43.890       -2.501       29.977       25.316       24.346      898.600      640.900      592.710        0.391        0.107       75.397       16.159        0.046      343.442       19.558      863.176
05/25/2014  08:36:00       48.658       44.448        2.373       29.399       25.766       21.523      864.278      663.862      463.239        0.317        0.100       65.903       13.396        0.041      343.561       19.760      863.168
05/25/2014  08:37:00       -4.464      -16.280       16.715       20.630       30.913       21.118      425.587      955.632      445.954        0.120        0.091       16.881       14.976        0.787      343.675       19.954      863.148
05/25/2014  08:38:00       41.728       49.617       42.192       46.820       36.744       25.848     2192.122     1350.114      668.130        0.510        0.211       64.831       17.663        0.074      343.845       20.244      863.145
05/25/2014  08:39:00       64.632       72.227       44.298       35.985       39.355       39.416     1294.916     1548.830     1553.598        0.788        0.220       96.922       24.659        0.065      343.292       19.301      863.144
05/25/2014  08:40:00      103.917      -96.982      -14.021       47.534       41.754       32.086     2259.480     1743.366     1029.540        1.272        0.252      142.142       20.534        0.021      343.007       18.814      863.140
05/25/2014  08:41:00       80.533      -48.705       11.565       59.833       78.148       52.695     3579.980     6107.100     2776.781        1.073        0.623       94.115       53.491        0.323      343.657       19.924      863.146
05/25/2014  08:42:00       27.984       10.123       36.977       53.064       50.729       35.809     2815.752     2573.464     1282.305        0.446        0.334       29.758       36.475        1.502      343.735       20.056      863.152
05/25/2014  08:43:00       27.169      -82.064        8.714       39.394       69.601       40.439     1551.875     4844.283     1635.274        0.779        0.402       86.444       38.661        0.200      343.843       20.240      863.157
05/25/2014  08:44:00       74.593      -49.076        5.340       44.578       60.231       42.726     1987.164     3627.809     1825.518        0.772        0.372       89.290       31.633        0.126      343.441       19.557      863.169
05/25/2014  08:45:00       76.038      -64.654      -11.126       31.703       33.992       27.336     1005.110     1155.449      747.278        0.650        0.145       99.809       11.395        0.013      342.917       18.664      863.191
05/25/2014  08:46:00       20.645        2.325       34.031       31.684       30.393       28.447     1003.889      923.750      809.240        0.216        0.137       20.776       22.288        1.151      344.022       20.546      863.200
05/25/2014  08:47:00       27.697      -43.352        4.969       35.922       31.862       29.874     1290.408     1015.196      892.448        0.293        0.160       51.445       18.312        0.127      343.300       19.314      863.206
05/25/2014  08:48:00       -5.779      -11.727       16.354       29.798       45.049       31.708      887.896     2029.441     1005.419        0.218        0.196       13.074        7.029        0.289      343.851       20.253      863.216
05/25/2014  08:49:00       24.009        3.171       21.740       37.073       35.143       37.202     1374.433     1235.002     1383.994        0.253        0.200       24.217       22.554        0.867      343.904       20.344      863.230
05/25/2014  08:50:00       29.048      -13.206       44.752       29.148       33.282       27.169      849.616     1107.687      738.134        0.286        0.135       31.909       17.533        0.302      344.079       20.644      863.259
05/25/2014  08:51:00       49.253       -2.983       22.170       44.619       30.686       33.932     1990.829      941.603     1151.381        0.350        0.204       49.343       29.819        0.365      343.589       19.808      863.267
05/25/2014  08:52:00        2.716      -13.799       37.046       20.541       41.606       23.157      421.951     1731.071      536.269        0.213        0.134       14.064       14.512        1.065      343.974       20.466      863.273
05/25/2014  08:53:00       44.668      -70.178       11.951       35.859       38.083       34.068     1285.875     1450.303     1160.623        0.548        0.195       83.188       24.443        0.086      343.302       19.318      863.264
05/25/2014  08:54:00        2.047        8.058       37.587       22.259       34.371       26.834      495.470     1181.348      720.082        0.194        0.120        8.314        8.394        1.019      344.286       20.998      863.247
05/25/2014  08:55:00       20.198      -16.080       22.896       35.514       27.296       22.643     1261.279      745.094      512.688        0.185        0.126       25.817       18.798        0.530      343.805       20.176      863.234
05/25/2014  08:56:00       37.718        3.038       18.732       33.922       30.040       22.817     1150.709      902.378      520.599        0.218        0.129       37.840        9.757        0.066      343.705       20.006      863.216
05/25/2014  08:57:00       49.958        5.042       35.851       35.593       30.587       17.952     1266.892      935.578      322.260        0.317        0.126       50.212       12.006        0.057      343.975       20.468      863.212
05/25/2014  08:58:00       34.217       12.349       14.582       32.326       30.662       25.631     1044.978      940.174      656.973        0.209        0.132       36.377       12.107        0.111      343.782       20.136      863.204
05/25/2014  08:59:00        6.707       57.637       -1.470       17.292       25.727       23.401      299.021      661.875      547.604        0.244        0.075       58.026       17.125        0.087      343.936       20.400      863.196
05/25/2014  09:00:00       13.701       25.759       15.848       17.323       20.817       21.786      300.101      433.359      474.619        0.115        0.060       29.176       12.453        0.182      344.249       20.933      863.188
05/25/2014  09:01:00       18.566       26.696        1.989       23.544       28.481       22.094      554.336      811.157      488.128        0.146        0.093       32.517       16.274        0.250      343.911       20.357      863.192
05/25/2014  09:02:00       18.504       33.057       22.463       25.014       24.558       20.895      625.700      603.083      436.588        0.180        0.083       37.884       16.205        0.183      344.520       21.399      863.181
05/25/2014  09:03:00       18.472       34.399       25.816       29.551       35.487       33.401      873.251     1259.321     1115.621        0.272        0.162       39.045       22.065        0.319      344.733       21.763      863.177
05/25/2014  09:04:00       22.372        2.575       28.506       24.020       23.983       22.359      576.970      575.165      499.917        0.149        0.083       22.520        9.244        0.168      344.561       21.467      863.174
05/25/2014  09:05:00       -5.361      -29.296       10.238       18.163       24.944       14.472      329.905      622.192      209.426        0.108        0.058       29.782        7.770        0.068      343.857       20.264      863.174
05/25/2014  09:06:00       30.698      -42.677      -16.211       33.779       41.463       27.218     1141.020     1719.172      740.800        0.331        0.180       52.571       20.980        0.159      343.501       19.657      863.178
05/25/2014  09:07:00       32.144        5.641       36.481       33.936       22.892       29.410     1151.643      524.046      864.956        0.247        0.127       32.635       17.278        0.280      344.599       21.533      863.170
05/25/2014  09:08:00       45.832        4.826       13.019       38.818       65.808       33.371     1506.837     4330.715     1113.618        0.462        0.348       46.086       35.474        0.592      343.895       20.330      863.164
05/25/2014  09:09:00       22.053       37.507       51.806       37.837       35.821       22.174     1431.611     1283.163      491.689        0.389        0.160       43.510       16.712        0.148      344.398       21.188      863.159
05/25/2014  09:10:00       18.583       31.804       23.179       32.381       27.833       28.307     1048.528      774.693      801.260        0.226        0.131       36.835       12.168        0.109      344.377       21.153      863.154
05/25/2014  09:11:00       74.013       53.804       -2.102       24.003       34.089       29.295      576.147     1162.067      858.214        0.549        0.130       91.503       23.024        0.063      344.074       20.633      863.151
05/25/2014  09:12:00       -3.614       23.111       15.468       38.446       24.499       32.269     1478.064      600.190     1041.287        0.195        0.156       23.392       20.714        0.784      344.462       21.299      863.144
05/25/2014  09:13:00      -30.924       42.585        4.184       32.816       29.126       21.995     1076.863      848.319      483.770        0.260        0.120       52.628       23.054        0.192      344.477       21.325      863.140
05/25/2014  09:14:00       44.961       72.870       56.599       54.480       47.269       25.554     2968.017     2234.317      653.022        0.819        0.293       85.624       23.369        0.074      344.696       21.698      863.129
05/25/2014  09:15:00      115.173       58.660       34.038       53.773       60.285       50.236     2891.574     3634.272     2523.638        1.346        0.452      129.251       32.426        0.063      344.354       21.113      863.136
05/25/2014  09:16:00       89.528       62.879       33.282       70.496       49.671       45.653     4969.744     2467.231     2084.159        1.130        0.476      109.404       18.310        0.028      344.744       21.780      863.125
05/25/2014  09:17:00       88.704       57.225       17.485       61.155       38.451       32.269     3739.949     1478.513     1041.271        0.885        0.313      105.561       26.148        0.061      344.510       21.381      863.133
05/25/2014  09:18:00      105.243       92.153       30.047       71.376       68.423       48.600     5094.552     4681.696     2361.985        1.630        0.607      139.887       41.138        0.086      344.633       21.589      863.124
05/25/2014  09:19:00       42.848       90.232       89.338       52.583       67.283       52.914     2764.929     4526.942     2799.916        1.402        0.505       99.888       46.766        0.219      344.599       21.533      863.133
05/25/2014  09:20:00       50.072       52.507       37.051       58.577       42.533       46.738     3431.317     1809.059     2184.407        0.703        0.371       72.555       44.974        0.384      344.970       22.168      863.128
05/25/2014  09:21:00       78.571       49.082       29.239       70.527       40.246       42.504     4974.061     1619.721     1806.574        0.892        0.420       92.641       43.039        0.216      344.675       21.663      863.127
05/25/2014  09:22:00       49.720       46.345       43.849       65.924       45.546       37.684     4345.936     2074.411     1420.114        0.719        0.392       67.970       44.345        0.426      344.859       21.977      863.103
05/25/2014  09:23:00       74.204       39.845       14.251       51.578       34.408       30.347     2660.273     1183.908      920.941        0.603        0.238       84.225       20.193        0.057      344.347       21.102      863.094
05/25/2014  09:24:00       23.982       53.702       -2.676       28.061       58.394       24.976      787.404     3409.887      623.797        0.414        0.241       58.814       28.017        0.227      344.577       21.494      863.066
05/25/2014  09:25:00       29.791       85.798        1.295       41.412       61.694       37.130     1714.977     3806.121     1378.641        0.757        0.345       90.823       35.988        0.157      344.908       22.061      863.062
05/25/2014  09:26:00       83.648      103.308       13.804       48.091       51.905       43.994     2312.722     2694.135     1935.450        1.240        0.347      132.926       39.657        0.089      344.408       21.205      863.042
05/25/2014  09:27:00       53.293       82.675       24.354       38.218       43.069       35.035     1460.604     1854.910     1227.447        0.740        0.227       98.363       26.494        0.073      344.815       21.901      863.045
05/25/2014  09:28:00       22.959       94.110       -7.862       44.278       46.001       25.221     1960.513     2116.127      636.098        0.708        0.236       96.870       15.240        0.025      344.838       21.941      863.023
05/25/2014  09:29:00       62.335       40.092       -3.229       58.600       51.454       39.050     3433.959     2647.482     1524.896        0.655        0.380       74.115       18.778        0.064      345.042       22.289      863.009
05/25/2014  09:30:00       72.209       46.977       23.159       81.035       50.641       46.564     6566.703     2564.539     2168.248        0.963        0.565       86.145       43.863        0.259      345.074       22.346      862.995
05/25/2014  09:31:00      132.136       83.356        8.024       47.331       39.844       36.333     2240.256     1587.575     1320.059        1.481        0.257      156.231       20.472        0.017      344.556       21.459      862.995
05/25/2014  09:32:00      164.639      106.602       19.621       49.191       40.966       47.854     2419.733     1678.219     2289.983        2.262        0.319      196.138       31.721        0.026      344.528       21.408      862.994
05/25/2014  09:33:00       80.498       47.978        9.262       50.993       49.411       33.294     2600.297     2441.448     1108.519        0.751        0.308       93.711        7.444        0.006      345.014       22.241      863.004
05/25/2014  09:34:00       10.850      -23.251       13.811       25.397       25.845       26.038      644.995      667.945      677.968        0.142        0.100       25.658       11.829        0.213      345.262       22.666      863.003
05/25/2014  09:35:00       13.266        4.606       38.111       34.589       73.455       39.607     1196.393     5395.589     1568.705        0.490        0.408       14.043       38.091        7.357      345.290       22.716      863.003
05/25/2014  09:36:00       59.632     -104.279       -1.294       63.151       74.791       52.887     3988.018     5593.676     2796.990        1.340        0.619      120.126       47.997        0.160      344.833       21.931      862.981
05/25/2014  09:37:00       47.768      -89.923        6.692       48.708       50.247       38.367     2372.492     2524.730     1472.061        0.839        0.318      101.823       33.125        0.106      344.855       21.971      862.985
05/25/2014  09:38:00       -1.113        2.697       22.509       53.975       53.125       33.311     2913.262     2822.265     1109.615        0.368        0.342        2.918       16.504       31.983      345.276       22.690      862.949
05/25/2014  09:39:00       48.612       42.797       46.444       32.850       49.304       28.883     1079.091     2430.906      834.220        0.535        0.217       64.767       17.643        0.074      344.901       22.049      862.947
05/25/2014  09:40:00        6.444      -60.431       11.920       33.257       48.548       27.044     1106.001     2356.872      731.374        0.401        0.210       60.774       25.110        0.171      344.949       22.131      862.918
05/25/2014  09:41:00       35.014      -21.326       52.525       40.759       72.464       35.257     1661.308     5251.009     1243.068        0.630        0.408       40.997       37.671        0.844      345.303       22.740      862.905
05/25/2014  09:42:00       15.275       63.105       97.680       53.489       60.910       57.332     2861.116     3710.038     3286.990        1.181        0.493       64.927       44.976        0.480      345.443       22.977      862.889
05/25/2014  09:43:00       21.275       18.016       73.098       61.942       93.846       62.574     3836.856     8807.084     3915.564        1.134        0.828       27.878       69.012        6.128      345.038       22.285      862.898
05/25/2014  09:44:00       26.172      -57.016        9.027       45.277       52.239       42.295     2050.012     2728.949     1788.882        0.529        0.328       62.736       27.799        0.196      344.941       22.117      862.881
05/25/2014  09:45:00       -4.563      -16.042       43.584       34.001       61.998       36.518     1156.078     3843.717     1333.574        0.425        0.317       16.678       37.802        5.137      345.449       22.988      862.880
05/25/2014  09:46:00       -7.562       44.612       74.371       24.426       46.353       19.654      596.653     2148.575      386.288        0.535        0.157       45.248       19.507        0.186      345.701       23.419      862.866
05/25/2014  09:47:00       -7.605      -22.273       58.538       31.924       47.124       31.850     1019.172     2220.628     1014.408        0.412        0.213       23.536       22.263        0.895      345.628       23.295      862.856
05/25/2014  09:48:00      -19.268       20.412       64.079       27.823       29.215       26.269      774.105      853.538      690.085        0.361        0.116       28.070       24.106        0.738      345.606       23.257      862.852
05/25/2014  09:49:00      -20.037      -22.037        9.010       30.014       43.160       29.865      900.833     1862.746      891.918        0.231        0.183       29.784       21.389        0.516      345.433       22.959      862.844
05/25/2014  09:50:00      -34.167       24.493       -3.378       49.393       35.609       22.937     2439.665     1267.999      526.113        0.301        0.212       42.039       16.618        0.156      345.057       22.316      862.836
05/25/2014  09:51:00      -55.713       40.572      -23.761       21.571       17.259       12.144      465.309      297.885      147.470        0.311        0.046       68.920        4.863        0.005      344.902       22.051      862.829
05/25/2014  09:52:00      -41.380       31.585       40.273       33.172       35.092       48.799     1100.385     1231.456     2381.359        0.452        0.236       52.057       35.620        0.468      345.414       22.928      862.810
05/25/2014  09:53:00      -41.075       35.345       10.465       43.021       41.551       30.054     1850.799     1726.482      903.223        0.376        0.224       54.189       29.702        0.300      345.206       22.571      862.788
05/25/2014  09:54:00      -11.719      -15.259        8.455       26.924       30.265       17.220      724.923      915.992      296.512        0.119        0.097       19.240       12.907        0.450      345.478       23.037      862.768
05/25/2014  09:55:00      -27.587      -33.967       18.791       25.886       35.723       24.550      670.109     1276.127      602.704        0.241        0.127       43.759       22.348        0.261      345.652       23.336      862.741
05/25/2014  09:56:00      -19.499       13.804       12.200       46.504       30.373       19.798     2162.647      922.544      391.975        0.210        0.174       23.891       18.144        0.577      345.277       22.693      862.736
05/25/2014  09:57:00       21.268       57.806       83.042       51.673       57.070       42.177     2670.098     3256.948     1778.911        0.920        0.385       61.594       40.035        0.422      345.532       23.131      862.713
05/25/2014  09:58:00       73.350       66.876       62.850       85.271       49.937       38.770     7271.102     2493.721     1503.082        1.253        0.563       99.261       35.676        0.129      345.283       22.703      862.711
05/25/2014  09:59:00       79.655       39.212        3.822       46.691       36.093       28.898     2180.062     1302.694      835.122        0.611        0.216       88.783       26.350        0.088      344.855       21.971      862.712
05/25/2014  10:00:00       18.847       20.626       16.880       37.144       31.158       21.546     1379.676      970.837      464.249        0.194        0.141       27.940       14.924        0.285      345.696       23.413      862.709
05/25/2014  10:01:00        9.699       37.218       13.872       56.228       41.669       27.731     3161.564     1736.281      769.003        0.367        0.283       38.461       23.544        0.375      345.626       23.290      862.703
05/25/2014  10:02:00      108.718       85.591       18.730       47.353       57.859       50.819     2242.308     3347.631     2582.584        1.383        0.409      138.367       26.658        0.037      345.357       22.830      862.705
05/25/2014  10:03:00       17.047       71.993        5.196       26.630       47.711       29.015      709.176     2276.312      841.877        0.466        0.191       73.984       27.007        0.133      345.160       22.493      862.705
05/25/2014  10:04:00       27.479       42.465       10.144       31.908       36.588       31.071     1018.121     1338.661      965.424        0.299        0.166       50.581       27.245        0.290      345.563       23.183      862.699
05/25/2014  10:05:00       14.212       13.522       28.412       24.892       19.103       21.413      619.634      364.932      458.504        0.132        0.072       19.617       14.325        0.533      345.967       23.876      862.695
05/25/2014  10:06:00      -15.660       49.378       16.712       21.801       52.930       26.295      475.270     2801.606      691.453        0.346        0.198       51.802       31.612        0.372      345.905       23.771      862.689
05/25/2014  10:07:00       36.800       34.993       31.972       53.087       37.477       22.932     2818.247     1404.504      525.856        0.417        0.237       50.781       22.617        0.198      346.029       23.982      862.700
05/25/2014  10:08:00       88.406       40.576        9.438       64.764       59.903       44.713     4194.392     3588.381     1999.294        0.966        0.489       97.273       34.389        0.125      345.353       22.822      862.686
05/25/2014  10:09:00      111.887       57.646       -1.807       93.796       56.064       43.181     8797.651     3143.152     1864.618        1.482        0.690      125.864       38.723        0.095      345.604       23.253      862.669
05/25/2014  10:10:00      100.233       75.379       25.806       41.905       30.662       40.568     1756.053      940.159     1645.739        1.037        0.217      125.414       14.820        0.014      345.296       22.726      862.653
05/25/2014  10:11:00       16.542       10.942       64.356       38.036       73.904       38.959     1446.741     5461.872     1517.782        0.648        0.421       19.834       42.222        4.532      345.967       23.877      862.625
05/25/2014  10:12:00        9.679      -13.056       43.511       27.442       64.236       34.355      753.041     4126.314     1180.234        0.411        0.303       16.252       38.787        5.696      345.927       23.809      862.619
05/25/2014  10:13:00       37.918      -88.295       13.644       39.865       50.879       41.603     1589.240     2588.635     1730.800        0.766        0.295       96.092       30.425        0.100      345.760       23.519      862.598
05/25/2014  10:14:00       17.806       15.945       25.419       38.057       44.075       39.457     1448.343     1942.562     1556.827        0.308        0.247       23.901       14.915        0.389      346.032       23.988      862.598
05/25/2014  10:15:00      -25.314        9.857       32.097       43.723       43.113       32.772     1911.677     1858.692     1074.002        0.331        0.242       27.166       12.897        0.225      346.331       24.504      862.582
05/25/2014  10:16:00       59.880       50.274       61.951       67.016       62.989       35.695     4491.109     3967.577     1274.129        0.984        0.487       78.186       19.133        0.060      346.026       23.978      862.576
05/25/2014  10:17:00      145.233       86.753       14.515       65.495       47.354       46.905     4289.581     2242.379     2200.049        1.878        0.437      169.171       35.712        0.045      345.205       22.568      862.589
05/25/2014  10:18:00       43.571       56.532       60.142       44.001       40.830       30.903     1936.129     1667.060      955.014        0.663        0.228       71.375       26.833        0.141      345.385       22.877      862.590
05/25/2014  10:19:00      130.733       47.664       16.849       71.575       43.942       48.472     5122.976     1930.939     2349.556        1.452        0.470      139.151       41.304        0.088      345.237       22.624      862.597
05/25/2014  10:20:00      125.304       79.009        5.908       38.394       34.676       35.672     1474.125     1202.440     1272.467        1.296        0.197      148.133       22.325        0.023      344.985       22.192      862.587
05/25/2014  10:21:00       78.581       61.377        8.126       47.277       34.013       32.740     2235.101     1156.890     1071.899        0.724        0.223       99.710       23.383        0.055      345.475       23.033      862.591
05/25/2014  10:22:00       67.536       51.255       10.021       43.362       36.981       31.626     1880.235     1367.626     1000.208        0.577        0.212       84.783       21.188        0.062      345.349       22.815      862.588
05/25/2014  10:23:00       15.140       63.758        3.116       34.107       40.202       34.519     1163.268     1616.169     1191.591        0.414        0.199       65.531       29.403        0.201      345.824       23.631      862.590
05/25/2014  10:24:00       10.956       15.578       27.265       40.620       21.627       28.308     1650.014      467.739      801.337        0.201        0.146       19.045       21.329        1.254      346.286       24.425      862.591
05/25/2014  10:25:00       38.522        0.241       43.152       46.022       71.079       35.148     2118.028     5052.206     1235.383        0.587        0.420       38.522       39.343        1.043      346.263       24.387      862.597
05/25/2014  10:26:00       22.283       39.909       44.264       44.242       35.512       37.397     1957.372     1261.088     1398.572        0.433        0.231       45.709       13.313        0.085      346.031       23.987      862.582
05/25/2014  10:27:00       14.818       21.957       60.971       34.288       33.921       30.586     1175.655     1150.604      935.518        0.384        0.163       26.489       28.322        1.143      345.965       23.872      862.576
05/25/2014  10:28:00        0.545        2.306       55.160       23.382       47.261       25.149      546.723     2233.592      632.481        0.323        0.171        2.370       19.964       70.967      346.698       25.132      862.562
05/25/2014  10:29:00       37.393       43.200       43.751       33.595       38.314       39.941     1128.635     1467.956     1595.280        0.468        0.210       57.136       17.166        0.090      345.785       23.563      862.557
05/25/2014  10:30:00       18.087        5.655       22.181       30.186       23.480       22.064      911.193      551.313      486.800        0.140        0.097       18.951       14.198        0.561      346.469       24.738      862.552
05/25/2014  10:31:00        8.185       26.682       37.444       52.030       23.223       20.476     2707.082      539.327      419.262        0.292        0.183       27.909       18.668        0.447      345.960       23.865      862.571
05/25/2014  10:32:00       16.679       27.799       14.820       24.424       19.168       19.926      596.541      367.399      397.042        0.132        0.068       32.419       10.432        0.104      346.186       24.252      862.583
05/25/2014  10:33:00      -31.344        1.539        2.734       19.601       24.200       24.754      384.215      585.630      612.745        0.129        0.079       31.382       13.930        0.197      346.026       23.978      862.603
05/25/2014  10:34:00      -11.426      117.045        5.330       26.929       69.433       39.785      725.179     4820.889     1582.825        1.049        0.356      117.601       39.099        0.111      346.219       24.311      862.605
05/25/2014  10:35:00        4.816       63.712       14.255       29.739       74.912       34.174      884.403     5611.793     1167.845        0.597        0.383       63.893       39.682        0.386      346.471       24.744      862.605
05/25/2014  10:36:00       18.070       30.513       40.203       71.209       66.255       45.620     5070.666     4389.771     2081.226        0.721        0.577       35.462       53.378        2.266      346.339       24.515      862.593
05/25/2014  10:37:00      115.597       81.464       23.476       22.059       20.487       21.867      486.588      419.699      478.165        1.097        0.069      141.418        8.392        0.004      345.183       22.530      862.586
05/25/2014  10:38:00       59.413       42.314        7.332       20.574       26.579       29.020      423.283      706.438      842.177        0.367        0.099       72.941       18.842        0.067      345.280       22.698      862.570
05/25/2014  10:39:00      106.516       69.311        1.350       72.388       54.026       26.927     5239.966     2918.777      725.040        1.252        0.444      127.081       12.467        0.010      345.531       23.128      862.554
05/25/2014  10:40:00       80.511       69.628        2.178       70.477       61.656       46.527     4966.963     3801.479     2164.796        1.113        0.547      106.443       26.832        0.064      345.864       23.700      862.554
05/25/2014  10:41:00       60.299       53.186        4.489       36.018       37.435       28.244     1297.290     1401.414      797.734        0.499        0.175       80.403       21.353        0.071      345.822       23.627      862.548
05/25/2014  10:42:00       98.806      105.220       -0.686       63.684       42.301       35.014     4055.590     1789.386     1225.948        1.395        0.354      144.339       23.952        0.028      345.663       23.355      862.560
05/25/2014  10:43:00       73.373      110.139        7.611       45.333       40.779       46.478     2055.059     1662.894     2160.184        1.172        0.294      132.341       13.019        0.010      345.587       23.223      862.548
05/25/2014  10:44:00      -38.186       41.694        5.852       36.828       41.239       34.859     1356.310     1700.619     1215.182        0.375        0.214       56.538       15.976        0.080      345.983       23.905      862.524
05/25/2014  10:45:00        5.545        4.942       10.105       28.174       33.668       28.588      793.798     1133.516      817.276        0.145        0.137        7.427       25.045       11.370      346.423       24.661      862.510
05/25/2014  10:46:00       -3.988        8.952       22.022       28.692       45.040       40.800      823.241     2028.632     1664.641        0.255        0.226        9.800       35.854       13.386      346.665       25.077      862.500
05/25/2014  10:47:00       25.960       -9.358       55.006       56.907       56.409       56.722     3238.377     3181.989     3217.393        0.671        0.482       27.595       33.415        1.466      346.602       24.968      862.493
05/25/2014  10:48:00       51.454      -68.727       18.525       63.602       97.943       46.121     4045.194     9592.888     2127.149        1.174        0.788       85.854       49.153        0.328      345.969       23.880      862.485
05/25/2014  10:49:00       21.688      -18.433       48.710       39.586       60.410       40.986     1567.030     3649.370     1679.890        0.504        0.345       28.463       36.356        1.632      346.617       24.995      862.477
05/25/2014  10:50:00       38.772       -0.260       39.863       45.985       71.605       39.332     2114.578     5127.277     1547.012        0.594        0.439       38.773       36.265        0.875      346.484       24.764      862.465
05/25/2014  10:51:00       38.260       35.389       45.457       36.715       37.695       29.258     1348.004     1420.908      856.048        0.420        0.181       52.117       17.912        0.118      346.484       24.765      862.459
05/25/2014  10:52:00       46.697       39.841       39.199       38.293       30.551       30.193     1466.379      933.336      911.603        0.431        0.166       61.384       14.814        0.058      346.337       24.513      862.432
05/25/2014  10:53:00       27.772       30.527       27.489       31.416       25.920       26.700      986.960      671.826      712.895        0.241        0.119       41.270       14.905        0.130      346.644       25.041      862.418
05/25/2014  10:54:00       45.604       36.716       26.493       72.068       64.899       48.417     5193.797     4211.917     2344.170        0.794        0.587       58.547       52.003        0.789      346.979       25.617      862.409
05/25/2014  10:55:00       54.864       90.961        1.309       60.227       58.451       38.821     3627.328     3416.478     1507.072        0.992        0.428      106.226       34.586        0.106      346.391       24.606      862.397
05/25/2014  10:56:00       40.266       96.759      -16.215       52.995       62.988       40.255     2808.496     3967.478     1620.431        0.982        0.420      104.803       33.737        0.104      346.655       25.059      862.376
05/25/2014  10:57:00       78.124       62.923       17.713       83.996       54.807       42.680     7055.315     3003.853     1821.614        1.113        0.594      100.313       32.470        0.105      346.479       24.757      862.359
05/25/2014  10:58:00       37.731       50.029       26.687       63.493       61.942       42.252     4031.360     3836.759     1785.241        0.714        0.483       62.662       38.501        0.378      346.663       25.073      862.360
05/25/2014  10:59:00      105.514       45.139       -7.869       45.256       60.001       44.466     2048.068     3600.109     1977.269        1.043        0.381      114.764       25.676        0.050      346.239       24.343      862.350
05/25/2014  11:00:00       -8.362      -60.537        6.026       28.394       43.639       32.671      806.230     1904.371     1067.363        0.377        0.189       61.112       28.270        0.214      346.481       24.759      862.338
05/25/2014  11:01:00       68.465      -39.515       36.573       72.858       85.672       57.309     5308.301     7339.629     3284.287        1.176        0.797       79.049       66.600        0.710      346.501       24.794      862.348
05/25/2014  11:02:00      -80.367      -59.073       -8.569       70.985       65.578       44.891     5038.805     4300.502     2015.190        1.069        0.568       99.742       35.707        0.128      346.255       24.370      862.348
05/25/2014  11:03:00      -21.271      -25.131       16.504       49.896       42.478       29.288     2489.575     1804.389      857.814        0.325        0.258       32.924       26.356        0.641      346.818       25.341      862.348
05/25/2014  11:04:00      -55.378      -17.962       13.158       45.824       47.494       34.098     2099.843     2255.718     1162.643        0.454        0.276       58.218       31.122        0.286      346.563       24.902      862.349
05/25/2014  11:05:00      -38.302       -3.709        1.206       28.025       43.671       30.590      785.399     1907.137      935.742        0.255        0.181       38.481       15.979        0.172      346.353       24.540      862.335
05/25/2014  11:06:00      -23.265        0.471       26.000       35.458       35.403       28.155     1257.250     1253.399      792.685        0.226        0.165       23.270       18.233        0.614      346.882       25.451      862.329
05/25/2014  11:07:00       53.957       54.489      107.571       52.978      139.911       80.691     2806.660    19575.223     6511.112        2.317        1.445       76.684      101.713        1.759      346.429       24.670      862.315
05/25/2014  11:08:00      117.273      120.760      101.082       61.901       70.060       62.197     3831.778     4908.359     3868.456        2.558        0.630      168.333       44.445        0.070      346.168       24.219      862.292
05/25/2014  11:09:00       78.072       43.774       78.593       63.634       83.878       59.612     4049.237     7035.575     3553.577        1.441        0.732       89.506       51.429        0.330      346.370       24.568      862.284
05/25/2014  11:10:00       82.906       41.388       62.540       70.055       92.295       56.601     4907.649     8518.285     3203.678        1.456        0.831       92.663       53.560        0.334      346.426       24.665      862.267
05/25/2014  11:11:00      103.863      110.790      115.219       61.836       74.319       52.583     3823.661     5523.242     2764.937        2.422        0.606      151.862       45.477        0.090      346.345       24.524      862.261
05/25/2014  11:12:00       88.395      -45.679       20.145       57.166       60.037       47.301     3267.937     3604.414     2237.426        0.971        0.455       99.500       42.788        0.185      346.019       23.965      862.259
05/25/2014  11:13:00        6.748      -63.431       10.741       41.703       48.803       25.390     1739.148     2381.720      644.664        0.447        0.238       63.789       29.560        0.215      346.498       24.790      862.240
05/25/2014  11:14:00       -3.413       19.135       56.657       26.139       39.721       35.862      683.271     1577.752     1286.080        0.357        0.177       19.437       32.264        2.755      347.082       25.793      862.220
05/25/2014  11:15:00      107.788       86.865       75.739       91.935       73.707       71.257     8452.136     5432.792     5077.626        2.193        0.948      138.433       60.811        0.193      346.475       24.747      862.223
05/25/2014  11:16:00      101.242       21.953       18.038       82.250       95.339       43.141     6765.017     9089.599     1861.137        1.438        0.886      103.595       31.329        0.091      346.384       24.593      862.218
05/25/2014  11:17:00       25.813     -115.529        3.452       45.568       52.547       32.916     2076.438     2761.222     1083.440        0.997        0.296      118.378       23.592        0.040      346.278       24.411      862.214
05/25/2014  11:18:00      -13.311        7.370        4.214       32.798       31.092       27.610     1075.697      966.718      762.330        0.153        0.140       15.215       23.340        2.353      346.651       25.053      862.219
05/25/2014  11:19:00       -8.914       19.011       37.099       29.250       34.630       34.838      855.536     1199.225     1213.665        0.254        0.163       20.997       28.811        1.883      346.871       25.431      862.218
05/25/2014  11:20:00       17.395       61.276       91.974       47.611       57.170       44.074     2266.769     3268.428     1942.543        1.000        0.374       63.698       42.978        0.455      346.968       25.599      862.209
05/25/2014  11:21:00       97.586      114.935       88.649      102.789       56.495       46.582    10565.626     3191.660     2169.836        2.326        0.796      150.775       48.134        0.102      346.557       24.890      862.196
05/25/2014  11:22:00      154.683      101.727       62.721       77.204       71.673       71.131     5960.474     5136.963     5059.586        2.718        0.808      185.135       57.006        0.095      346.465       24.729      862.191
05/25/2014  11:23:00      101.296       93.829       31.763       60.483       45.387       57.898     3658.169     2059.976     3352.172        1.457        0.454      138.075       17.670        0.016      346.558       24.892      862.207
05/25/2014  11:24:00      107.304      119.139       25.406       82.690       58.223       49.626     6837.643     3389.929     2462.732        1.952        0.635      160.338       32.291        0.041      346.426       24.663      862.218
05/25/2014  11:25:00      102.863      119.339        1.140       83.077       58.647       44.653     6901.707     3439.459     1993.869        1.858        0.617      157.552       29.943        0.036      346.374       24.574      862.228
05/25/2014  11:26:00       35.379       51.177      -11.218       46.641       47.615       39.645     2175.360     2267.231     1571.713        0.500        0.301       62.215        6.728        0.012      346.680       25.102      862.236
05/25/2014  11:27:00       67.906       74.448       62.747       93.916       53.093       54.452     8820.201     2818.854     2964.981        1.434        0.730      100.766       40.048        0.158      347.046       25.732      862.222
05/25/2014  11:28:00       94.973       81.605        7.255       54.802       50.894       44.599     3003.259     2590.219     1989.084        1.166        0.379      125.217       28.112        0.050      346.561       24.896      862.213
05/25/2014  11:29:00       40.535       43.398       -5.309       46.491       30.373       21.844     2161.428      922.493      477.163        0.356        0.178       59.384       19.940        0.113      346.805       25.317      862.208
05/25/2014  11:30:00       40.457        3.881        8.767       42.824       63.385       34.287     1833.883     4017.603     1175.617        0.438        0.351       40.643       29.383        0.523      347.182       25.966      862.186
05/25/2014  11:31:00       48.065      -59.236       11.800       85.264       99.382       61.869     7270.022     9876.810     3827.782        1.346        1.049       76.284       72.168        0.895      347.017       25.681      862.176
05/25/2014  11:32:00       56.915      -81.567       19.297       59.713       85.777       62.734     3565.655     7357.720     3935.578        1.256        0.743       99.461       59.681        0.360      347.123       25.865      862.174
05/25/2014  11:33:00       53.650      -88.484        2.900       79.882       86.891       56.640     6381.185     7550.100     3208.060        1.392        0.857      103.479       59.237        0.328      346.866       25.423      862.153
05/25/2014  11:34:00       80.809     -139.467        9.415       82.019      144.431       89.960     6727.129    20860.292     8092.888        3.087        1.784      161.187      107.810        0.447      346.754       25.227      862.154
05/25/2014  11:35:00       91.844     -150.733      -18.163       82.401       81.630       57.136     6789.947     6663.435     3264.511        2.410        0.836      176.509       44.661        0.064      346.652       25.051      862.149
05/25/2014  11:36:00       26.532     -108.761       19.594       46.215       69.364       49.750     2135.792     4811.336     2475.066        1.117        0.471      111.950       48.764        0.190      346.720       25.172      862.133
05/25/2014  11:37:00      124.606     -149.131       11.155       63.860       93.823       61.953     4078.140     8802.729     3838.137        2.730        0.836      194.336       66.974        0.119      346.909       25.493      862.114
05/25/2014  11:38:00       83.231      -81.928       24.120       66.214      121.580       68.228     4384.246    14781.620     4654.995        1.902        1.191      116.789       87.305        0.559      347.197       25.991      862.099
05/25/2014  11:39:00       68.639       56.160       45.685       64.286       68.193       50.698     4132.677     4650.345     2570.280        1.065        0.568       88.686       45.166        0.259      346.957       25.579      862.090
05/25/2014  11:40:00       40.452      -18.822       52.760       46.898       93.296       44.085     2199.414     8704.172     1943.529        0.881        0.642       44.617       54.759        1.506      347.366       26.284      862.073
05/25/2014  11:41:00      212.795      106.692       16.749       77.536       68.930       53.807     6011.783     4751.291     2895.172        3.530        0.683      238.044       35.804        0.023      346.784       25.277      862.062
05/25/2014  11:42:00      173.054      100.008        1.958       62.482       53.721       50.408     3903.981     2885.968     2540.960        2.464        0.467      199.873       31.945        0.026      346.557       24.888      862.057
05/25/2014  11:43:00       84.062       48.983       17.644       51.249       36.292       33.719     2626.417     1317.081     1136.939        0.743        0.254       97.292       22.805        0.055      346.516       24.820      862.044
05/25/2014  11:44:00       41.657       10.963       31.218       39.278       53.923       40.933     1542.785     2907.661     1675.517        0.448        0.306       43.075       20.320        0.223      346.981       25.622      862.025
05/25/2014  11:45:00       78.244       45.349       62.651       50.296       56.508       38.846     2529.669     3193.099     1509.018        0.967        0.362       90.436       31.398        0.121      347.065       25.765      862.011
05/25/2014  11:46:00       23.436       37.596       15.453       73.990       63.023       42.349     5474.451     3971.961     1793.397        0.672        0.562       44.302       36.681        0.686      346.677       25.097      861.992
05/25/2014  11:47:00       22.320        9.090       12.692       25.254       27.282       29.479      637.773      744.307      869.023        0.150        0.113       24.100       11.028        0.209      347.454       26.435      861.965
05/25/2014  11:48:00      -52.864       -6.392        2.006       29.382       19.929       14.519      863.279      397.179      210.787        0.216        0.074       53.249       13.924        0.068      347.079       25.789      861.946
05/25/2014  11:49:00      -29.175      -34.659       11.401       41.582       50.322       38.392     1729.062     2532.311     1473.912        0.396        0.287       45.304       27.960        0.381      347.315       26.196      861.917
05/25/2014  11:50:00       -1.370        9.673       65.496       30.436       52.781       44.345      926.369     2785.811     1966.507        0.503        0.284        9.769       41.501       18.046      347.370       26.291      861.896
05/25/2014  11:51:00       20.524       -0.937       50.776       29.632       48.149       30.805      878.045     2318.356      948.964        0.357        0.207       20.545       34.749        2.861      347.008       25.667      861.892
05/25/2014  11:52:00       -7.260      -43.634      -21.264       27.077       67.646       24.804      733.169     4576.027      615.250        0.417        0.296       44.234       17.880        0.163      346.676       25.097      861.890
05/25/2014  11:53:00       29.103       -4.161       31.360       50.461       62.628       40.995     2546.290     3922.255     1680.603        0.500        0.407       29.399       29.690        1.020      347.174       25.952      861.864
05/25/2014  11:54:00       -0.680       -6.368       25.560       30.346       42.425       32.250      920.885     1799.866     1040.072        0.223        0.188        6.404       27.492       18.427      347.377       26.302      861.850
05/25/2014  11:55:00      -64.992      -72.658        2.136       59.345       46.037       35.443     3521.779     2119.423     1256.206        0.820        0.345       97.484       27.211        0.078      347.004       25.660      861.844
05/25/2014  11:56:00      -82.236     -101.617        1.596       75.436       70.614       45.551     5690.630     4986.344     2074.889        1.492        0.638      130.724       47.036        0.129      346.930       25.531      861.836
05/25/2014  11:57:00     -150.432     -119.959      -12.379       46.546       70.666       31.489     2166.520     4993.677      991.555        2.266        0.408      192.406       21.549        0.013      346.473       24.744      861.826
05/25/2014  11:58:00      -82.873     -170.056       -9.405       83.599       62.902       33.147     6988.809     3956.630     1098.753        2.396        0.602      189.175       33.257        0.031      346.538       24.856      861.818
05/25/2014  11:59:00      -59.938      -87.639        3.331       66.634       65.682       36.744     4440.145     4314.098     1350.105        1.069        0.505      106.175       34.818        0.108      346.930       25.533      861.796
05/25/2014  12:00:00     -104.150     -119.232      -11.887       59.964       52.709       28.551     3595.721     2778.236      815.175        1.620        0.359      158.315       26.914        0.029      346.494       24.781      861.788
05/25/2014  12:01:00      -65.752      -98.966        4.499       58.163       39.312       35.570     3382.909     1545.431     1265.251        1.016        0.310      118.817       37.634        0.100      346.791       25.291      861.790
05/25/2014  12:02:00      -45.445     -117.900       -6.109       45.489       63.645       34.326     2069.232     4050.723     1178.277        1.165        0.365      126.356       20.433        0.026      346.615       24.989      861.776
05/25/2014  12:03:00      -30.893      -32.477        5.311       44.106       49.994       27.145     1945.297     2499.411      736.869        0.361        0.259       44.823       12.187        0.074      347.045       25.731      861.774
05/25/2014  12:04:00      -28.706     -101.042       11.249       50.463       55.804       37.718     2546.535     3114.131     1422.625        0.912        0.354      105.041       26.448        0.063      347.192       25.985      861.769
05/25/2014  12:05:00     -161.450     -123.283        1.155       98.959       56.213       41.524     9792.912     3159.943     1724.210        2.797        0.734      203.138       38.446        0.036      346.831       25.359      861.768
05/25/2014  12:06:00      -76.185      -76.696       18.951       83.083       58.521       44.605     6902.758     3424.698     1989.605        1.218        0.616      108.103       49.520        0.210      347.212       26.018      861.757
05/25/2014  12:07:00      -73.406     -187.494        2.116       96.020       88.268       55.371     9219.806     7791.301     3065.932        3.031        1.004      201.351       42.796        0.045      346.897       25.472      861.765
05/25/2014  12:08:00      -77.162      -90.499        3.190       57.548       73.166       37.627     3311.809     5353.236     1415.793        1.212        0.504      118.928       31.418        0.070      346.993       25.641      861.765
05/25/2014  12:09:00      -56.790     -125.445       -6.363       70.915       80.035       39.252     5028.956     6405.559     1540.737        1.599        0.649      137.701       36.990        0.072      347.230       26.047      861.737
05/25/2014  12:10:00      -51.659     -215.079      -11.075       62.294       60.023       36.676     3880.576     3602.756     1345.095        2.894        0.441      221.196       27.929        0.016      347.078       25.784      861.736
05/25/2014  12:11:00      -39.199     -162.322      -29.359       84.474       82.750       38.240     7135.829     6847.482     1462.311        2.209        0.772      166.988       26.461        0.025      347.106       25.834      861.730
05/25/2014  12:12:00       78.478      -98.756       -9.070       63.972       55.156       34.026     4092.389     3042.175     1157.764        1.214        0.415      126.141       33.414        0.070      346.921       25.516      861.734
05/25/2014  12:13:00       -0.497     -155.465      -14.737       61.997       63.553       37.852     3843.589     4038.943     1432.776        1.685        0.466      155.466       27.449        0.031      347.293       26.157      861.699
05/25/2014  12:14:00       82.752     -147.098      -26.222       74.345       80.496       42.066     5527.205     6479.684     1769.514        2.147        0.689      168.777       35.557        0.044      346.965       25.592      861.691
05/25/2014  12:15:00      -48.160      -44.894       14.261       64.900       50.000       35.586     4212.003     2499.992     1266.396        0.626        0.399       65.840       36.575        0.309      347.440       26.411      861.685
05/25/2014  12:16:00      -41.498      -17.545       -4.063       40.658       25.256       22.776     1653.047      637.856      518.760        0.243        0.140       45.055       10.238        0.052      347.254       26.092      861.676
05/25/2014  12:17:00      -96.426      -80.041        9.524       81.067       48.568       39.138     6571.889     2358.855     1531.765        1.313        0.523      125.318       37.054        0.087      347.168       25.942      861.672
05/25/2014  12:18:00      -85.913     -123.468      -16.585       76.730       62.649       32.014     5887.480     3924.960     1024.906        1.687        0.542      150.417       22.209        0.022      346.912       25.502      861.666
05/25/2014  12:19:00      -57.798      -71.674       -7.885       36.889       50.021       24.375     1360.780     2502.091      594.125        0.650        0.223       92.075       14.879        0.026      346.923       25.519      861.660
05/25/2014  12:20:00     -111.903      -18.021       -5.100       44.953       42.889       25.805     2020.749     1839.496      665.914        0.870        0.226      113.345       22.524        0.039      347.229       26.047      861.641
05/25/2014  12:21:00      -84.888      -51.474        0.880       67.948       29.651       27.341     4616.967      879.167      747.521        0.805        0.312       99.275       31.346        0.100      347.365       26.285      861.627
05/25/2014  12:22:00      -30.459      -70.244       10.609       89.836       54.412       36.502     8070.540     2960.656     1332.395        0.917        0.618       76.564       35.559        0.216      347.305       26.178      861.616
05/25/2014  12:23:00       18.085       75.219       88.416       48.548       83.497       70.044     2356.952     6971.674     4906.141        1.402        0.712       77.363       68.495        0.784      347.489       26.495      861.598
05/25/2014  12:24:00        0.198       60.497      101.016       30.547       53.934       40.962      933.106     2908.840     1677.874        0.969        0.276       60.498       41.380        0.468      347.480       26.479      861.574
05/25/2014  12:25:00       39.904      -25.696       34.261       43.631       44.297       39.443     1903.681     1962.268     1555.768        0.442        0.271       47.462       31.788        0.449      347.747       26.941      861.580
05/25/2014  12:26:00       -8.256       11.511       -4.139       59.981       53.814       28.349     3597.725     2895.995      803.684        0.376        0.365       14.166       19.018        1.802      347.293       26.157      861.564
05/25/2014  12:27:00       -0.092       -6.826        4.933       28.187       30.022       30.874      794.483      901.350      953.176        0.136        0.132        6.826       25.408       13.855      347.789       27.013      861.545
05/25/2014  12:28:00        2.445       39.167       21.585       45.090       22.760       28.959     2033.114      518.011      838.598        0.270        0.169       39.243       14.282        0.132      347.947       27.285      861.540
05/25/2014  12:29:00      -93.983      -72.673      -13.119       39.536       53.102       27.605     1563.069     2819.811      762.057        0.971        0.257      118.803        9.920        0.007      347.873       27.158      861.523
05/25/2014  12:30:00     -112.397      -46.273       12.196       79.250       60.795       37.597     6280.630     3696.087     1413.520        1.315        0.570      121.549       33.184        0.075      347.682       26.828      861.517
05/25/2014  12:31:00      -34.460      -72.567       10.045       45.812       40.358       31.748     2098.712     1628.802     1007.957        0.564        0.237       80.333       23.968        0.089      347.831       27.086      861.507
05/25/2014  12:32:00       66.607      -79.659       -1.005       66.705       62.038       28.400     4449.529     3848.706      806.565        0.994        0.455      103.837       29.719        0.082      347.569       26.634      861.510
05/25/2014  12:33:00       -6.399      -51.034       22.468       36.957       51.174       32.946     1365.823     2618.797     1085.410        0.411        0.254       51.434       32.344        0.395      347.985       27.352      861.484
05/25/2014  12:34:00       93.202     -112.700        5.624       62.914       77.098       34.140     3958.233     5944.091     1165.561        1.624        0.553      146.246       36.149        0.061      347.211       26.016      861.482
05/25/2014  12:35:00       31.938     -143.588       -7.294       56.615       47.638       40.981     3205.262     2269.338     1679.421        1.442        0.358      147.097       25.388        0.030      347.288       26.147      861.453
05/25/2014  12:36:00       58.292      -32.134       26.670       59.467      103.111       41.957     3536.376    10631.834     1760.409        1.053        0.796       66.563       36.155        0.295      347.958       27.305      861.422
05/25/2014  12:37:00       31.555       15.943       37.283       51.993       65.575       37.022     2703.250     4300.049     1370.654        0.551        0.419       35.354       22.276        0.397      348.341       27.966      861.421
05/25/2014  12:38:00       48.623       49.322       10.122       51.244       44.602       38.582     2625.931     1989.320     1488.601        0.550        0.305       69.259       22.947        0.110      347.613       26.710      861.400
05/25/2014  12:39:00       11.635       56.285       -6.675       34.683       36.610       26.200     1202.925     1340.290      686.435        0.329        0.161       57.475       17.501        0.093      347.753       26.951      861.400
05/25/2014  12:40:00      -28.389       10.977       16.903       33.474       27.065       33.744     1120.530      732.505     1138.649        0.210        0.150       30.437       24.750        0.661      348.506       28.251      861.392
05/25/2014  12:41:00      -71.156       16.243        0.436       41.104       23.771       23.293     1689.510      565.067      542.567        0.406        0.140       72.986       19.514        0.071      347.729       26.909      861.397
05/25/2014  12:42:00      -45.087        2.892        7.310       32.899       10.687       18.571     1082.346      114.222      344.887        0.182        0.077       45.179       21.429        0.225      348.059       27.481      861.402
05/25/2014  12:43:00       -5.577       43.546       26.189       40.363       65.756       37.864     1629.163     4323.884     1433.710        0.500        0.369       43.901       39.366        0.804      348.576       28.373      861.405
05/25/2014  12:44:00        8.713       75.107       12.370       55.106       62.341       38.970     3036.677     3886.439     1518.664        0.715        0.422       75.611       38.907        0.265      348.136       27.613      861.405
05/25/2014  12:45:00        0.133      155.965       -9.566       50.820      106.532       43.447     2582.721    11349.122     1887.610        2.011        0.791      155.965       49.339        0.100      347.824       27.071      861.386
05/25/2014  12:46:00       -9.379      160.516       12.223       55.402       78.268       55.266     3069.333     6125.873     3054.297        1.912        0.612      160.790       45.377        0.080      347.865       27.143      861.388
05/25/2014  12:47:00        0.378      252.603      -35.896       41.184       36.192       29.221     1696.160     1309.864      853.841        3.448        0.193      252.603       26.659        0.011      347.291       26.148      861.383
05/25/2014  12:48:00       18.548      170.954      -20.649       46.236       59.893       38.006     2137.725     3587.138     1444.454        1.858        0.358      171.957       36.270        0.044      347.904       27.211      861.377
05/25/2014  12:49:00        3.448      182.128      -23.220       44.278       45.827       30.622     1960.564     2100.147      937.737        1.936        0.250      182.160       29.238        0.026      347.741       26.929      861.371
05/25/2014  12:50:00      -32.088       84.496       -7.926       62.785       81.157       49.910     3942.019     6586.379     2490.995        1.062        0.651       90.384       39.759        0.194      347.985       27.351      861.388
05/25/2014  12:51:00       11.833       49.550       30.912       33.073       63.641       35.153     1093.837     4050.182     1235.747        0.496        0.319       50.944       33.539        0.433      348.358       27.996      861.365
05/25/2014  12:52:00      -41.008      160.504      -11.837       33.938       69.870       42.022     1151.789     4881.756     1765.886        1.769        0.390      165.660       42.445        0.066      347.894       27.194      861.359
05/25/2014  12:53:00      -40.947      123.135      -13.043       47.479       66.589       40.011     2254.266     4434.112     1600.872        1.265        0.414      129.764       31.448        0.059      348.008       27.390      861.349
05/25/2014  12:54:00      -10.349      147.950      -14.585       42.099       67.842       39.207     1772.307     4602.594     1537.151        1.506        0.396      148.312       36.698        0.061      348.089       27.531      861.323
05/25/2014  12:55:00       18.306       73.297       -6.019       41.896       67.062       35.845     1755.282     4497.259     1284.874        0.664        0.377       75.548       28.962        0.147      348.113       27.570      861.308
05/25/2014  12:56:00       94.066      145.367       -2.984       54.895       63.073       50.871     3013.414     3978.261     2587.900        1.978        0.479      173.147       41.749        0.058      347.865       27.144      861.291
05/25/2014  12:57:00       88.485      127.082        4.934       66.968       64.307       48.700     4484.715     4135.355     2371.659        1.750        0.550      154.853       41.803        0.073      347.708       26.873      861.297
05/25/2014  12:58:00      117.319       98.717       12.100       42.957       33.659       35.920     1845.285     1132.962     1290.254        1.396        0.213      153.326       15.960        0.011      347.681       26.827      861.294
05/25/2014  12:59:00       38.929       80.939       10.009       25.768       38.913       32.824      663.973     1514.199     1077.436        0.571        0.163       89.814       25.539        0.081      347.713       26.883      861.298
05/25/2014  13:00:00       38.126       56.194       -5.709       53.646       49.008       33.659     2877.846     2401.786     1132.904        0.553        0.321       67.907       23.790        0.123      347.826       27.078      861.289
05/25/2014  13:01:00       37.549       50.783        7.405       37.095       46.357       37.824     1376.045     2148.966     1430.645        0.450        0.248       63.157       34.755        0.303      348.033       27.434      861.290
05/25/2014  13:02:00       16.634       95.925       12.898       36.425       87.503       44.425     1326.803     7656.831     1973.544        1.030        0.548       97.357       43.869        0.203      348.088       27.528      861.270
05/25/2014  13:03:00        0.112       66.121       -0.090       34.704       53.190       31.669     1204.377     2829.182     1002.914        0.470        0.252       66.121       27.918        0.178      348.207       27.735      861.260
05/25/2014  13:04:00      -25.339      141.818      -27.141       23.260       38.014       25.956      541.015     1445.061      673.708        1.207        0.133      144.064       12.525        0.008      347.509       26.529      861.256
05/25/2014  13:05:00      -59.110       99.846      -14.568       38.193       50.955       40.744     1458.667     2596.389     1660.095        0.969        0.286      116.031       35.827        0.095      347.880       27.171      861.248
05/25/2014  13:06:00       10.476      163.590      -11.700       42.641       87.042       35.272     1818.259     7576.384     1244.098        1.882        0.532      163.925       41.626        0.064      347.885       27.178      861.238
05/25/2014  13:07:00       48.853      152.093      -26.151       49.541       62.029       34.732     2454.301     3847.611     1206.282        1.685        0.375      159.746       35.592        0.050      347.694       26.847      861.222
05/25/2014  13:08:00       55.123       92.489        6.141       61.279       42.971       43.465     3755.104     1846.478     1889.228        0.956        0.375      107.670       34.391        0.102      348.021       27.413      861.213
05/25/2014  13:09:00       37.717      102.888       -1.768       41.861       60.271       37.485     1752.311     3632.611     1405.095        0.940        0.340      109.583       32.077        0.086      347.750       26.946      861.179
05/25/2014  13:10:00      -76.082       59.002      -24.972       59.728       54.176       28.419     3567.394     2935.041      807.653        0.860        0.366       96.280       22.076        0.053      347.797       27.026      861.160
05/25/2014  13:11:00        2.195       62.594       13.415       72.811       64.659       44.289     5301.471     4180.836     1961.471        0.777        0.572       62.633       37.372        0.356      348.268       27.841      861.127
05/25/2014  13:12:00        8.907       29.540       23.981       34.007       44.699       27.239     1156.484     1998.025      741.986        0.271        0.195       30.854       26.613        0.744      348.567       28.358      861.109
05/25/2014  13:13:00      109.313       72.422        8.848       66.454       44.631       30.796     4416.114     1991.884      948.414        1.231        0.368      131.127       24.936        0.036      348.048       27.462      861.104
05/25/2014  13:14:00       17.944       73.665       85.037       45.416       52.978       46.444     2062.644     2806.657     2157.041        1.000        0.351       75.819       32.489        0.184      348.746       28.668      861.069
05/25/2014  13:15:00       35.156       28.029       80.980       62.583       71.178       50.656     3916.628     5066.359     2566.053        1.006        0.577       44.962       41.950        0.871      348.666       28.529      861.054
05/25/2014  13:16:00       46.743       76.414       73.910       48.429       68.690       65.063     2345.340     4718.381     4233.232        1.239        0.565       89.577       44.447        0.246      348.235       27.784      861.058
05/25/2014  13:17:00        4.505      -91.531       -9.563       87.639      121.022       46.379     7680.568    14646.240     2151.037        1.648        1.224       91.642       58.085        0.402      348.078       27.510      861.047
05/25/2014  13:18:00       89.556     -174.244      -23.383       49.428       56.331       35.271     2443.087     3173.174     1244.071        2.289        0.343      195.911       33.394        0.029      347.653       26.777      861.047
05/25/2014  13:19:00       70.431       -0.655       68.629       69.939      111.981       81.777     4891.415    12539.770     6687.492        1.689        1.206       70.434       87.667        1.549      348.082       27.518      861.020
05/25/2014  13:20:00       58.479       69.253       58.947       48.695       40.845       38.471     2371.201     1668.298     1480.054        0.860        0.276       90.641       30.633        0.114      347.890       27.188      861.012
05/25/2014  13:21:00       13.974       91.675        5.230       54.828       85.595       41.315     3006.163     7326.563     1706.934        1.033        0.602       92.733       45.163        0.237      348.103       27.554      860.986
05/25/2014  13:22:00      -11.599       40.854        0.934       34.957       59.039       27.666     1222.006     3485.640      765.384        0.364        0.274       42.469       21.954        0.267      348.360       28.002      860.964
05/25/2014  13:23:00      -89.791       37.130       -5.682       38.330       43.377       29.785     1469.222     1881.543      887.170        0.685        0.212       97.166       14.165        0.021      348.101       27.552      860.950
05/25/2014  13:24:00      -14.552        1.779       33.386       60.474       36.689       33.308     3657.046     1346.047     1109.404        0.372        0.306       14.660       36.144        6.079      348.823       28.801      860.948
05/25/2014  13:25:00       70.639       51.519       12.967       42.132       32.768       40.947     1775.112     1073.742     1676.617        0.617        0.226       87.431       22.352        0.065      348.486       28.217      860.935
05/25/2014  13:26:00       21.092       39.847       62.149       42.333       41.307       35.353     1792.094     1706.278     1249.859        0.532        0.237       45.085       25.532        0.321      348.943       29.009      860.920
05/25/2014  13:27:00       25.998       16.848       36.701       51.123       63.088       36.993     2613.579     3980.144     1368.495        0.513        0.398       30.980       24.008        0.601      348.789       28.742      860.909
05/25/2014  13:28:00      -73.941       31.246       -1.601       51.287       52.969       39.513     2630.383     2805.717     1561.289        0.672        0.350       80.272       33.315        0.172      348.911       28.952      860.915
05/25/2014  13:29:00     -136.302      -26.794      -26.921       69.774       60.290       32.752     4868.406     3634.908     1072.705        1.480        0.479      138.910       27.662        0.040      348.252       27.812      860.900
05/25/2014  13:30:00     -138.828        9.215      -33.217       91.338       64.259       38.874     8342.546     4129.244     1511.200        1.722        0.699      139.133       22.697        0.027      348.337       27.957      860.884
05/25/2014  13:31:00      -69.110      -50.106        6.500       70.337       57.372       39.343     4947.301     3291.519     1547.894        0.856        0.489       85.362       43.053        0.254      348.380       28.035      860.870
05/25/2014  13:32:00      -60.003       83.767       -9.509       72.445       67.385       36.718     5248.210     4540.749     1348.230        1.092        0.557      103.040       34.965        0.115      348.236       27.785      860.881
05/25/2014  13:33:00      -38.027      138.854      -20.119      114.173       80.032       51.352    13035.382     6405.092     2636.988        2.160        1.104      143.967       49.537        0.118      348.356       27.991      860.855
05/25/2014  13:34:00     -136.968      220.346      -34.885       90.200      137.984       56.961     8136.045    19039.650     3244.592        4.947        1.521      259.447       66.625        0.066      348.047       27.456      860.872
05/25/2014  13:35:00     -158.588      -14.048       -8.236       73.220       71.101       41.029     5361.196     5055.325     1683.404        1.876        0.605      159.209       38.675        0.059      348.450       28.153      860.892
05/25/2014  13:36:00      -56.969     -100.744        2.336       38.510       39.713       31.825     1483.057     1577.124     1012.821        0.874        0.204      115.736       28.714        0.062      347.907       27.218      860.873
05/25/2014  13:37:00       -5.618      -13.715       28.495       40.979       74.975       34.928     1679.258     5621.285     1219.963        0.477        0.426       14.821       38.095        6.607      348.612       28.435      860.829
05/25/2014  13:38:00       12.628       62.510       29.854       47.721       55.358       30.487     2277.302     3064.513      929.437        0.561        0.314       63.772       25.074        0.155      348.927       28.980      860.820
05/25/2014  13:39:00       46.570      132.321        3.200       55.238       93.500       52.785     3051.220     8742.198     2786.241        1.713        0.729      140.277       53.100        0.143      348.539       28.307      860.798
05/25/2014  13:40:00      157.097      128.933       10.494       60.544       54.511       50.876     3665.524     2971.411     2588.410        2.532        0.461      203.232       23.137        0.013      347.976       27.333      860.789
05/25/2014  13:41:00      212.646      129.684       63.883       60.405       56.930       55.147     3648.742     3241.009     3041.158        3.802        0.497      249.070       15.497        0.004      348.027       27.419      860.766
05/25/2014  13:42:00      123.256       82.697       44.950       59.665       68.242       51.869     3559.907     4656.953     2690.431        1.748        0.545      148.428       29.934        0.041      348.226       27.766      860.763
05/25/2014  13:43:00       20.550      -14.164       47.144       44.799      118.524       74.148     2006.986    14048.045     5497.899        1.219        1.078       24.959       84.126       11.361      348.308       27.909      860.732
05/25/2014  13:44:00      135.967      134.389       89.748       76.744       82.839       79.949     5889.648     6862.378     6391.865        3.187        0.957      191.174       77.093        0.163      348.219       27.753      860.726
05/25/2014  13:45:00      141.937       96.413       82.567       70.672       94.058       61.537     4994.600     8846.932     3786.848        2.694        0.881      171.585       53.555        0.097      348.086       27.523      860.732
05/25/2014  13:46:00       79.266       81.765       47.618       50.101       55.536       47.983     2510.092     3084.223     2302.395        1.156        0.395      113.880       27.453        0.058      348.070       27.497      860.718
05/25/2014  13:47:00       21.190      -12.562       16.397       58.838       77.153       40.224     3461.917     5952.660     1617.946        0.595        0.552       24.634       51.235        4.326      348.359       27.997      860.678
05/25/2014  13:48:00       23.205     -119.465      -18.104       93.934       46.324       34.033     8823.551     2145.928     1158.233        1.363        0.606      121.698       32.523        0.071      348.313       27.919      860.664
05/25/2014  13:49:00      -15.673      -12.016       24.484       54.528       42.687       40.771     2973.345     1822.192     1662.268        0.372        0.323       19.749       47.488        5.782      348.801       28.763      860.636
05/25/2014  13:50:00       43.600      -62.594       22.587       81.511       72.905       43.408     6644.076     5315.128     1884.257        1.008        0.692       76.282       55.078        0.521      348.789       28.741      860.627
05/25/2014  13:51:00       53.953      -77.788       31.943       53.171       74.125       46.735     2827.170     5494.544     2184.177        1.024        0.525       94.668       37.512        0.157      349.042       29.181      860.623
05/25/2014  13:52:00      121.090     -111.249       21.776       93.090      131.773       65.068     8665.823    17364.034     4233.815        2.888        1.513      164.436       81.369        0.245      348.876       28.890      860.619
05/25/2014  13:53:00      -50.108      -54.741        6.637       78.659       68.334       46.542     6187.287     4669.549     2166.153        0.928        0.651       74.212       39.554        0.284      348.952       29.024      860.635
05/25/2014  13:54:00     -132.018      -64.629        7.160       61.074       48.988       32.416     3729.998     2399.865     1050.771        1.442        0.359      146.988       27.338        0.035      348.954       29.026      860.638
05/25/2014  13:55:00     -129.594      -94.734       -0.121       92.373       59.339       32.447     8532.745     3521.111     1052.778        1.944        0.655      160.527       40.190        0.063      348.728       28.634      860.637
05/25/2014  13:56:00     -188.166     -110.028       -4.344       54.155       51.788       36.946     2932.769     2681.953     1365.016        2.725        0.349      217.973       27.804        0.016      348.561       28.343      860.632
05/25/2014  13:57:00      -66.047     -109.744       -0.145       69.580       76.708       32.387     4841.414     5884.084     1048.934        1.409        0.589      128.086       19.093        0.022      348.408       28.083      860.630
05/25/2014  13:58:00      -91.303      -48.783        5.028       58.762       68.517       33.829     3453.027     4694.516     1144.371        1.001        0.465      103.518       32.848        0.101      348.702       28.591      860.628
05/25/2014  13:59:00      -64.846      -49.773        7.068       56.495       37.336       38.666     3191.707     1393.973     1495.080        0.641        0.304       81.745       36.389        0.198      348.889       28.914      860.601
05/25/2014  14:00:00      -73.931      -27.967        5.647       72.179       36.970       28.303     5209.760     1366.810      801.055        0.683        0.369       79.044       25.770        0.106      348.960       29.039      860.588
05/25/2014  14:01:00      -68.476      -55.395       -3.245       52.410       48.595       29.380     2746.849     2361.521      863.192        0.687        0.299       88.077       38.171        0.188      348.501       28.244      860.592
05/25/2014  14:02:00      -58.968      -46.903       -1.322       40.839       47.648       25.552     1667.793     2270.288      652.901        0.513        0.230       75.347       26.757        0.126      348.615       28.440      860.591
05/25/2014  14:03:00     -116.111      -64.057        5.697       69.328       59.551       29.928     4806.409     3546.360      895.712        1.343        0.462      132.609       25.596        0.037      348.682       28.557      860.574
05/25/2014  14:04:00     -125.312      -96.535        2.488      127.378       67.105       45.941    16225.261     4503.117     2110.534        2.393        1.142      158.184       42.294        0.071      348.435       28.129      860.549
05/25/2014  14:05:00     -275.718      -60.971      -13.938      111.318       75.890       43.401    12391.624     5759.359     1883.634        4.998        1.002      282.379       54.815        0.038      348.392       28.052      860.529
05/25/2014  14:06:00     -173.254      -65.801       16.771      157.772       66.223       52.834    24892.044     4385.431     2791.426        3.334        1.603      185.329       72.608        0.153      348.583       28.384      860.517
05/25/2014  14:07:00      -62.620     -191.145       -9.171       47.382       62.270       34.577     2245.032     3877.527     1195.567        2.393        0.366      201.141       29.927        0.022      348.208       27.734      860.508
05/25/2014  14:08:00     -205.848     -120.173        0.108       86.384       66.958       45.407     7462.193     4483.382     2061.821        3.541        0.700      238.359       29.546        0.015      348.591       28.394      860.489
05/25/2014  14:09:00     -102.343      -60.438       10.317       99.214       68.353       50.224     9843.442     4672.136     2522.464        1.563        0.852      118.856       54.625        0.211      348.793       28.747      860.463
05/25/2014  14:10:00     -115.757     -108.846       10.319      124.565       59.712       45.126    15516.417     3565.490     2036.363        2.323        1.056      158.893       44.701        0.079      348.665       28.525      860.458
05/25/2014  14:11:00     -106.871      -89.737        2.154      102.962       78.998       44.882    10601.200     6240.721     2014.352        1.916        0.943      139.550       52.463        0.141      348.670       28.534      860.437
05/25/2014  14:12:00     -109.573     -147.025       -7.619      133.676       79.820       55.978    17869.299     6371.155     3133.519        3.052        1.369      183.364       61.665        0.113      348.593       28.401      860.428
05/25/2014  14:13:00     -179.194     -163.569       -2.913       72.894       72.487       44.719     5313.477     5254.327     1999.801        3.572        0.628      242.622       39.699        0.027      348.355       27.988      860.425
05/25/2014  14:14:00     -181.232     -103.997      -15.277       96.191       70.060       47.007     9252.652     4908.353     2209.689        3.013        0.819      208.951       48.147        0.053      348.362       27.999      860.414
05/25/2014  14:15:00     -102.327       -3.002        1.010       68.023       28.859       35.956     4627.081      832.855     1292.799        0.862        0.338      102.371       41.109        0.161      348.620       28.450      860.409
05/25/2014  14:16:00     -135.670      -82.183       10.822      105.460       74.530       47.951    11121.755     5554.776     2299.331        2.212        0.949      158.620       56.958        0.129      348.812       28.779      860.398
05/25/2014  14:17:00     -117.345      -72.597       12.834      109.481       63.216       39.687    11986.121     3996.250     1575.042        1.838        0.878      137.986       49.578        0.129      348.737       28.650      860.388
05/25/2014  14:18:00     -112.943      -86.466        8.154      104.263       75.692       43.682    10870.774     5729.221     1908.114        1.940        0.925      142.241       42.429        0.089      348.732       28.640      860.371
05/25/2014  14:19:00     -137.689      -85.269       -1.322       83.183       77.009       36.156     6919.477     5930.455     1307.246        2.019        0.708      161.954       36.739        0.051      348.689       28.565      860.355
05/25/2014  14:20:00     -158.896      -84.606       -5.284       75.421       61.768       52.352     5688.365     3815.238     2740.727        2.234        0.612      180.018       18.601        0.011      348.593       28.398      860.338
05/25/2014  14:21:00      -40.871       -7.644        4.105       46.685       35.070       29.616     2179.489     1229.890      877.105        0.302        0.214       41.580       26.963        0.420      348.790       28.745      860.337
05/25/2014  14:22:00     -153.482      -95.726        4.559      120.029      104.156       51.786    14406.892    10848.436     2681.803        3.033        1.397      180.887       62.976        0.121      348.696       28.577      860.328
05/25/2014  14:23:00     -194.540      -35.697        4.288       87.684       92.983       41.454     7688.512     8645.790     1718.427        2.859        0.903      197.788       35.131        0.032      348.652       28.502      860.317
05/25/2014  14:24:00      -30.470      -40.744       32.971       84.600       92.246       33.109     7157.236     8509.252     1096.216        1.022        0.838       50.878       35.816        0.496      348.937       28.997      860.299
05/25/2014  14:25:00     -180.846      -65.352        5.560      118.679       93.025       47.029    14084.700     8653.616     2211.739        3.097        1.248      192.292       41.196        0.046      348.977       29.066      860.281
05/25/2014  14:26:00     -138.652     -136.655      -14.806      151.516       98.450       74.853    22957.237     9692.312     5602.965        3.818        1.913      194.677       85.902        0.195      348.515       28.265      860.277
05/25/2014  14:27:00     -240.232     -108.461      -36.294       81.897       63.921       42.519     6707.177     4085.955     1807.837        4.169        0.630      263.581       49.026        0.035      348.249       27.801      860.278
05/25/2014  14:28:00     -207.720       90.697      -37.642       77.642      104.112       47.146     6028.353    10839.319     2222.732        3.594        0.955      226.658       54.711        0.058      348.572       28.363      860.273
05/25/2014  14:29:00     -260.732       78.060      -35.013       77.114       77.536       46.848     5946.538     6011.819     2194.756        4.472        0.708      272.166       32.245        0.014      348.481       28.205      860.270
05/25/2014  14:30:00     -357.722      -49.617      -52.502       90.746       98.532       48.343     8234.860     9708.493     2337.060        7.673        1.014      361.146       42.570        0.014      348.408       28.080      860.262
05/25/2014  14:31:00     -175.241     -131.193      -23.216      103.739       68.776       40.005    10761.772     4730.076     1600.409        3.277        0.855      218.909       44.011        0.040      348.288       27.872      860.270
05/25/2014  14:32:00     -206.784       90.196      -43.727       61.921       79.493       36.743     3834.155     6319.131     1350.074        3.215        0.575      225.599       28.615        0.016      348.401       28.067      860.264
05/25/2014  14:33:00     -140.571      -58.087      -31.640       92.248      110.257       44.782     8509.698    12156.586     2005.447        2.340        1.134      152.099       36.763        0.058      348.374       28.021      860.257
05/25/2014  14:34:00     -159.041       48.585      -23.485       44.311       66.788       23.716     1963.484     4460.610      562.434        1.759        0.349      166.296       17.925        0.012      348.477       28.199      860.232
05/25/2014  14:35:00     -217.615      -11.738      -27.387       58.298       73.812       43.001     3398.662     5448.143     1849.087        2.947        0.535      217.932       28.018        0.017      348.719       28.618      860.204
05/25/2014  14:36:00     -164.358      -50.471      -40.071       50.572       66.703       31.947     2557.552     4449.263     1020.583        1.960        0.401      171.933       32.329        0.035      348.528       28.288      860.168
05/25/2014  14:37:00      -16.506     -123.629       -5.685       39.594       58.020       24.677     1567.649     3366.269      608.950        1.056        0.277      124.726       11.597        0.009      348.462       28.175      860.148
05/25/2014  14:38:00       38.376       77.916       84.798       71.747       81.274       66.097     5147.698     6605.440     4368.801        1.542        0.806       86.854       65.276        0.565      349.178       29.413      860.168
05/25/2014  14:39:00      167.597      125.141       66.495       72.553       80.062       68.856     5263.879     6409.957     4741.116        3.229        0.821      209.162       46.383        0.049      348.929       28.980      860.147
05/25/2014  14:40:00      111.340       88.230       28.791      104.698       78.380       68.536    10961.585     6143.434     4697.161        2.140        1.090      142.060       38.646        0.074      348.961       29.039      860.111
05/25/2014  14:41:00      243.583      129.027      104.471      142.689      104.567       92.763    20360.191    10934.177     8604.974        6.339        1.995      275.646       74.825        0.074      348.924       28.972      860.089
05/25/2014  14:42:00       37.255       58.826       71.578       89.431       67.281       58.128     7997.945     4526.795     3378.815        1.293        0.795       69.631       43.933        0.398      349.385       29.775      860.086
05/25/2014  14:43:00       30.325      -13.476       53.007       85.646       85.621       71.961     7335.207     7330.885     5178.322        1.187        0.992       33.184       57.386        2.990      349.658       30.248      860.104
05/25/2014  14:44:00      102.403       87.098      109.919      108.496       81.791       67.672    11771.406     6689.811     4579.507        2.659        1.152      134.434       65.672        0.239      349.267       29.568      860.102
05/25/2014  14:45:00      105.323       69.006       45.569       70.900       60.376       54.292     5026.847     3645.290     2947.632        1.477        0.581      125.916       39.695        0.099      348.874       28.888      860.115
05/25/2014  14:46:00       96.268       89.190       79.385       76.694       53.212       67.145     5882.004     2831.505     4508.405        1.837        0.661      131.234       44.318        0.114      348.886       28.909      860.111
05/25/2014  14:47:00       48.659      165.851       -4.938       71.543       86.248       51.546     5118.341     7438.725     2656.978        2.255        0.761      172.842       39.020        0.051      348.807       28.772      860.099
05/25/2014  14:48:00      101.886       79.482       12.411       63.243       51.319       37.658     3999.739     2633.628     1418.126        1.245        0.403      129.222       22.719        0.031      348.975       29.064      860.086
05/25/2014  14:49:00       73.591       68.102       45.170       67.252       52.824       42.299     4522.886     2790.373     1789.188        1.060        0.455      100.267       30.729        0.094      349.323       29.667      860.070
05/25/2014  14:50:00       -7.845       41.123      105.361       45.473       85.327       57.607     2067.820     7280.733     3318.533        1.276        0.633       41.865       61.758        2.176      349.584       30.119      860.072
05/25/2014  14:51:00      124.213       82.525       31.597       68.919       62.507       56.797     4749.866     3907.138     3225.878        1.756        0.594      149.128       32.034        0.046      348.877       28.894      860.070
05/25/2014  14:52:00      106.678       29.083       50.701       96.279       72.497       47.493     9269.677     5255.788     2255.619        1.579        0.839      110.572       34.725        0.099      349.048       29.189      860.061
05/25/2014  14:53:00       31.032       57.908       65.592       51.367       55.708       34.663     2638.603     3103.326     1201.517        0.778        0.347       65.699       21.128        0.103      349.186       29.428      860.044
05/25/2014  14:54:00       18.868       -3.821       28.376       21.899       29.061       18.544      479.582      844.516      343.889        0.142        0.083       19.251       16.499        0.735      349.518       30.005      860.010
05/25/2014  14:55:00      125.320       78.960      121.539      112.219      103.768       82.805    12593.206    10767.770     6856.656        3.346        1.511      148.120       69.241        0.219      349.114       29.302      859.985
05/25/2014  14:56:00      177.337      107.596      124.230      132.051      108.478       91.565    17437.507    11767.396     8384.097        4.802        1.879      207.426       79.703        0.148      348.986       29.080      859.973
05/25/2014  14:57:00      112.694      144.055      124.895       63.867       73.193       62.607     4078.955     5357.240     3919.626        3.120        0.668      182.898       49.073        0.072      348.879       28.894      860.006
05/25/2014  14:58:00       73.643       -1.433       34.843       42.949       47.496       44.033     1844.625     2255.859     1938.888        0.634        0.302       73.657       35.371        0.231      348.924       28.974      860.007
05/25/2014  14:59:00       63.572      -75.369       -8.391       35.448       44.137       24.243     1256.595     1948.070      587.721        0.679        0.190       98.600       15.967        0.026      348.967       29.050      859.982
05/25/2014  15:00:00        6.608      -17.169       51.432       37.076       93.840       68.951     1374.656     8805.951     4754.200        0.896        0.747       18.397       72.102       15.360      349.050       29.193      859.962
05/25/2014  15:01:00      198.097      106.134       63.961       91.099       73.075       64.583     8299.098     5339.950     4170.922        3.620        0.890      224.737       49.482        0.048      348.832       28.812      859.961
05/25/2014  15:02:00      116.658       20.099       12.504       39.350       69.266       35.685     1548.421     4797.845     1273.409        1.089        0.381      118.376       13.941        0.014      348.836       28.824      859.973
05/25/2014  15:03:00       41.838       34.922       91.036       82.344       93.888       90.329     6780.603     8814.950     8159.398        1.750        1.188       54.497       86.304        2.508      348.937       28.995      859.923
05/25/2014  15:04:00      133.337       58.520       59.157       56.023       45.854       44.924     3138.587     2102.588     2018.202        1.598        0.363      145.613       38.950        0.072      348.601       28.415      859.902
05/25/2014  15:05:00      136.589      102.747       20.140       70.092       72.519       64.142     4912.956     5259.000     4114.157        2.195        0.714      170.920       28.696        0.028      348.838       28.824      859.872
05/25/2014  15:06:00      219.203      115.345       85.442      125.196      100.904       82.373    15674.100    10181.619     6785.297        5.064        1.632      247.698       73.978        0.089      349.122       29.316      859.823
05/25/2014  15:07:00      182.186      154.329      129.693       96.977       86.613       80.231     9404.489     7501.840     6436.997        4.858        1.167      238.766       62.970        0.070      348.815       28.782      859.813
05/25/2014  15:08:00       80.461       51.320       86.314       92.643      159.115       82.710     8582.679    25317.577     6840.861        2.864        2.037       95.434       84.524        0.784      349.159       29.379      859.796
05/25/2014  15:09:00      129.884     -198.506        4.590       98.959      116.148       70.470     9792.890    13490.417     4966.080        4.227        1.412      237.222       60.054        0.064      349.461       29.902      859.718
05/25/2014  15:10:00      126.033      242.974       26.300      219.471      213.129      104.783    48167.398    45424.003    10979.575        9.007        5.229      273.717       87.887        0.103      349.567       30.086      859.697
05/25/2014  15:11:00     -142.802      430.735      -53.314      116.792      116.591       66.394    13640.398    13593.369     4408.131       12.020        1.582      453.790       56.504        0.016      349.121       29.313      859.801
05/25/2014  15:12:00       74.719      253.823      -20.805       82.333      149.916       78.625     6778.805    22474.767     6181.902        5.293        1.772      264.592       82.836        0.098      349.352       29.712      859.798
05/25/2014  15:13:00      116.994      171.210       13.057      130.416      123.966       85.809    17008.365    15367.470     7363.181        4.145        1.987      207.365       81.949        0.156      349.443       29.873      859.783
05/25/2014  15:14:00       91.341      282.341      -36.312      104.880      132.000       76.536    10999.744    17424.079     5857.723        6.182        1.714      296.748       70.376        0.056      349.190       29.432      859.777
05/25/2014  15:15:00       50.399      158.250       -2.055       86.624      137.829       64.581     7503.724    18996.956     4170.665        2.912        1.534      166.081       69.789        0.177      349.418       29.829      859.767
05/25/2014  15:16:00      127.928      171.544        5.231      132.169       96.099       73.707    17468.732     9235.045     5432.686        3.897        1.607      213.992       56.082        0.069      349.183       29.422      859.756
05/25/2014  15:17:00      217.933      139.197       44.163      116.559      102.951       69.681    13585.912    10598.897     4855.467        4.892        1.452      258.594       31.286        0.015      349.150       29.364      859.689
05/25/2014  15:18:00        8.113       85.179      -25.761       96.609       80.019       35.679     9333.339     6403.108     1272.958        1.249        0.850       85.565       37.871        0.196      349.313       29.649      859.761
05/25/2014  15:19:00      -68.395      200.912      -26.797       59.753       51.740       36.068     3570.368     2677.034     1300.898        2.665        0.377      212.235       17.373        0.007      349.343       29.699      859.768
05/25/2014  15:20:00      -46.548       32.053       14.052       53.480       53.875       38.948     2860.109     2902.558     1516.936        0.533        0.364       56.517       20.295        0.129      349.533       30.031      859.753
05/25/2014  15:21:00     -137.645       86.943      -15.615       89.744      105.269       42.412     8053.911    11081.525     1798.781        2.384        1.047      162.804       40.863        0.063      349.719       30.353      859.730
05/25/2014  15:22:00     -216.859        2.001       -5.182      124.089      121.408       58.115    15398.124    14739.914     3377.362        4.028        1.676      216.868       63.861        0.087      349.440       29.866      859.712
05/25/2014  15:23:00     -109.604      -43.654       -0.382       76.485       61.738       37.863     5849.984     3811.612     1433.605        1.250        0.555      117.978       34.866        0.087      349.585       30.119      859.699
05/25/2014  15:24:00       -6.194      130.206       10.050       86.449       96.082       58.994     7473.458     9231.824     3480.254        1.864        1.009      130.353       54.614        0.176      349.324       29.668      859.707
05/25/2014  15:25:00       67.743      202.752      -16.293       75.157       94.235       59.195     5648.582     8880.195     3504.063        3.199        0.902      213.770       54.515        0.065      349.020       29.139      859.684
05/25/2014  15:26:00      125.296      141.009       -0.972       89.263       49.472       51.386     7967.854     2447.436     2640.549        2.432        0.653      188.633       32.644        0.030      349.100       29.277      859.674
05/25/2014  15:27:00       99.479       98.231       44.070       74.784       58.560       65.602     5592.696     3429.273     4303.649        1.740        0.666      139.804       55.276        0.156      349.008       29.120      859.644
05/25/2014  15:28:00       43.162      -33.978       15.933       62.119       76.027       51.645     3858.825     5780.120     2667.175        0.779        0.615       54.932       51.291        0.872      349.348       29.710      859.595
05/25/2014  15:29:00       34.107       18.802       40.139       44.600       47.755       34.697     1989.137     2280.556     1203.856        0.430        0.274       38.946       33.701        0.749      349.596       30.140      859.589
05/25/2014  15:30:00       75.129       62.108       66.454       82.754       63.244       52.014     6848.278     3999.845     2705.432        1.373        0.678       97.477       52.467        0.290      349.395       29.792      859.596
05/25/2014  15:31:00       80.207       61.239       31.424       74.830       85.398       38.780     5599.603     7292.846     1503.883        1.278        0.720      100.913       26.135        0.067      349.373       29.752      859.590
05/25/2014  15:32:00        9.438      124.932       -3.913       80.885       61.643       43.347     6542.423     3799.855     1879.001        1.396        0.611      125.288       43.155        0.119      349.135       29.340      859.570
05/25/2014  15:33:00       25.080       30.920       -7.664       30.576       35.619       14.094      934.914     1268.746      198.648        0.202        0.120       39.812       12.128        0.093      349.121       29.317      859.543
05/25/2014  15:34:00       50.172       10.294        2.910       34.101       43.404       27.798     1162.860     1883.872      772.723        0.322        0.191       51.218       22.894        0.200      349.175       29.410      859.510
05/25/2014  15:35:00       19.029      -10.660       32.486       35.062       27.187       24.385     1229.376      739.131      594.609        0.205        0.128       21.811       17.368        0.634      349.578       30.109      859.474
05/25/2014  15:36:00       37.061       25.088       32.734       31.647       30.518       31.849     1001.505      931.335     1014.344        0.301        0.147       44.754       19.535        0.191      349.087       29.260      859.455
05/25/2014  15:37:00       42.440       57.307       77.114       65.087       64.503       53.748     4236.327     4160.580     2888.841        1.116        0.564       71.311       46.054        0.417      349.343       29.702      859.440
05/25/2014  15:38:00       84.109       31.984       49.446       86.985       86.785       63.638     7566.328     7531.563     4049.845        1.484        0.957       89.985       48.933        0.296      349.568       30.090      859.427
05/25/2014  15:39:00      161.886       65.474       58.391      122.678       72.468       68.886    15049.841     5251.677     4745.237        2.947        1.252      174.625       52.775        0.091      349.463       29.905      859.416
05/25/2014  15:40:00       85.051      106.262       99.597       99.470       86.836       65.856     9894.375     7540.536     4337.070        2.510        1.089      136.108       60.987        0.201      349.656       30.241      859.413
05/25/2014  15:41:00      108.140      100.749       93.802       90.497       65.432       58.177     8189.702     4281.329     3384.577        2.325        0.793      147.799       49.322        0.111      349.627       30.191      859.406
05/25/2014  15:42:00       10.988      -27.559       26.281       39.944       90.624       41.754     1595.562     8212.740     1743.392        0.656        0.578       29.668       28.820        0.944      349.744       30.398      859.392
05/25/2014  15:43:00       88.524       -2.996       56.699      107.634      102.359       72.035    11584.988    10477.390     5189.045        1.915        1.363       88.574       73.642        0.691      349.667       30.263      859.406
05/25/2014  15:44:00      113.140       46.282       83.243      135.065      134.436       83.626    18242.579    18073.052     6993.356        3.258        2.165      122.240       81.764        0.447      349.509       29.985      859.375
05/25/2014  15:45:00      219.240     -214.446      -12.446      152.248      174.421       88.650    23179.323    30422.681     7858.818        7.782        3.073      306.681      104.777        0.117      349.315       29.651      859.362
05/25/2014  15:46:00      155.551     -126.305       59.400      124.770      233.158      136.532    15567.536    54362.495    18640.897        6.611        4.429      200.373      158.905        0.629      349.160       29.379      859.380
05/25/2014  15:47:00       18.886      143.234      159.531       76.085      102.434       77.248     5788.950    10492.676     5967.304        3.428        1.112      144.474       78.210        0.293      349.293       29.614      859.408
05/25/2014  15:48:00       35.652        2.725       77.940       63.683       83.745       55.495     4055.547     7013.220     3079.699        1.075        0.707       35.756       60.693        2.881      349.486       29.950      859.430
05/25/2014  15:49:00       62.385      -71.908       24.098       81.109      115.667       68.513     6578.739    13378.792     4694.035        1.714        1.233       95.198       85.134        0.800      349.547       30.055      859.448
05/25/2014  15:50:00       34.156       -6.376       71.120       60.372       68.143       51.973     3644.800     4643.458     2701.171        0.863        0.549       34.746       52.289        2.265      349.692       30.306      859.445
05/25/2014  15:51:00       30.103      -89.604       -0.305       55.969       75.209       47.102     3132.571     5656.450     2218.641        0.997        0.550       94.526       50.268        0.283      349.923       30.708      859.457
05/25/2014  15:52:00     -215.648     -115.346       -6.903      107.442       74.156       51.967    11543.874     5499.139     2700.567        3.980        0.987      244.558       56.240        0.053      349.257       29.550      859.449
05/25/2014  15:53:00      -50.158      -19.498       26.853       63.277       59.781       33.068     4004.010     3573.800     1093.463        0.614        0.434       53.814       34.621        0.414      349.618       30.177      859.450
05/25/2014  15:54:00      -38.834     -186.614       15.059       59.293       67.740       36.197     3515.655     4588.749     1310.221        2.299        0.471      190.612       23.567        0.015      349.328       29.672      859.450
05/25/2014  15:55:00     -102.909      -77.788        5.200       73.522       50.507       40.767     5405.433     2550.922     1661.984        1.314        0.481      129.001       32.209        0.062      349.737       30.384      859.441
05/25/2014  15:56:00     -125.984     -127.567      -12.522       46.550       49.896       26.257     2166.934     2489.627      689.414        1.882        0.267      179.291       19.024        0.011      349.252       29.542      859.465
05/25/2014  15:57:00     -168.601      -60.018        0.983       84.002       75.927       40.190     7056.266     5764.893     1615.201        2.323        0.722      178.964       33.655        0.035      349.371       29.749      859.452
05/25/2014  15:58:00      -42.419      -70.982        2.677       85.500       53.356       33.340     7310.171     2846.902     1111.588        0.905        0.563       82.691       32.280        0.152      349.581       30.113      859.447
05/25/2014  15:59:00       -4.888     -111.227        5.361       82.048       69.687       60.669     6731.875     4856.245     3680.739        1.384        0.763      111.335       42.293        0.144      349.479       29.937      859.423
05/25/2014  16:00:00       39.865     -123.875      -11.742       59.018       75.592       47.858     3483.124     5714.157     2290.368        1.428        0.574      130.132       44.010        0.114      349.352       29.716      859.404
05/25/2014  16:01:00        4.498      -11.422       18.895       86.741       56.353       39.426     7524.066     3175.613     1554.439        0.638        0.613       12.275       22.838        3.462      349.781       30.461      859.411
05/25/2014  16:02:00     -162.049      -82.718        5.780       76.393       58.893       38.087     5835.961     3468.337     1450.625        2.194        0.538      181.940       14.099        0.006      349.720       30.353      859.401
05/25/2014  16:03:00     -132.889     -144.158       13.205       83.380       82.882       44.655     6952.193     6869.480     1994.035        2.721        0.791      196.063       37.938        0.037      349.624       30.186      859.428
05/25/2014  16:04:00     -165.279     -191.203        2.424      118.115      114.903       73.614    13951.071    13202.657     5419.005        4.822        1.629      252.736       60.869        0.058      349.520       30.005      859.440
05/25/2014  16:05:00     -144.737     -180.994      -20.498      124.639       79.423       52.952    15534.870     6308.017     2803.946        3.938        1.232      231.748       47.295        0.042      349.509       29.986      859.429
05/25/2014  16:06:00      -81.630     -132.056       -1.598       97.283       88.486       49.275     9463.913     7829.719     2428.062        2.191        0.986      155.249       35.496        0.052      349.902       30.669      859.425
05/25/2014  16:07:00     -175.881     -117.437       -4.849      186.069      117.461       59.216    34621.672    13797.196     3506.538        4.833        2.596      211.484       65.290        0.095      349.698       30.315      859.424
05/25/2014  16:08:00     -389.738     -157.807       -3.267      126.915      112.549       65.901    16107.457    12667.175     4342.893       10.496        1.656      420.475       62.948        0.022      349.280       29.589      859.395
05/25/2014  16:09:00     -367.730     -222.612      -16.017      168.048      134.374       63.723    28240.112    18056.373     4060.618       11.769        2.518      429.862       66.514        0.024      349.231       29.503      859.361
05/25/2014  16:10:00     -175.122      -62.661       -8.190       87.078       70.730       42.994     7582.657     5002.664     1848.501        2.454        0.722      185.995       45.669        0.060      349.656       30.242      859.360
05/25/2014  16:11:00      -85.553     -140.913       -0.705       94.077       70.613       38.362     8850.567     4986.141     1471.611        2.124        0.765      164.851       33.666        0.042      349.667       30.263      859.343
05/25/2014  16:12:00     -151.093      -93.485        7.514      120.661       93.368       65.937    14558.965     8717.596     4347.723        2.962        1.381      177.675       68.483        0.149      349.730       30.370      859.330
05/25/2014  16:13:00     -387.999     -151.828      -20.231      208.349      134.981       69.694    43409.219    18219.755     4857.235       12.023        3.324      416.647       80.624        0.037      349.592       30.130      859.341
05/25/2014  16:14:00     -319.134      -41.776       -9.356      208.959      114.645       70.385    43663.796    13143.558     4954.045        8.271        3.088      321.857       94.425        0.086      349.705       30.325      859.326
05/25/2014  16:15:00     -163.902      -33.661       15.055      113.919       67.249       56.807    12977.510     4522.405     3227.078        2.447        1.036      167.323       58.608        0.123      349.851       30.581      859.347
05/25/2014  16:16:00     -241.752      -90.564        3.369      150.870      133.189       71.675    22761.623    17739.321     5137.318        5.614        2.282      258.159       76.616        0.088      349.531       30.024      859.356
05/25/2014  16:17:00     -208.864      -43.743       -2.429      100.473       89.488       62.097    10094.902     8008.110     3856.091        3.375        1.098      213.395       53.478        0.063      349.500       29.971      859.361
05/25/2014  16:18:00     -111.573      -29.414        0.093      112.165       67.512       37.530    12580.925     4557.886     1408.501        1.593        0.927      115.385       48.888        0.180      349.668       30.264      859.348
05/25/2014  16:19:00     -268.797      -84.595      -17.785      101.337       84.701       46.177    10269.112     7174.194     2132.272        4.965        0.979      281.794       51.685        0.034      349.510       29.987      859.329
05/25/2014  16:20:00     -304.878     -155.579       -1.659      133.415      117.623       64.361    17799.533    13835.056     4142.297        7.646        1.789      342.280       44.083        0.017      349.570       30.091      859.325
05/25/2014  16:21:00     -232.670      -15.747      -10.015      157.587      137.428       55.719    24833.580    18886.577     3104.651        5.064        2.341      233.202       76.447        0.107      349.594       30.134      859.328
05/25/2014  16:22:00     -334.296      -88.148       -6.513      165.094      111.095       72.184    27255.926    12342.018     5210.582        8.218        2.240      345.722       80.274        0.054      349.591       30.128      859.317
05/25/2014  16:23:00     -396.140      -76.861      -10.375      156.962       98.797       56.668    24636.996     9760.779     3211.285       10.027        1.880      403.527       66.345        0.027      349.236       29.512      859.313
05/25/2014  16:24:00     -345.304     -112.343      -14.527      127.561      101.943       49.329    16271.852    10392.470     2433.390        8.058        1.455      363.120       52.212        0.021      349.169       29.396      859.306
05/25/2014  16:25:00     -403.472     -114.528      -17.973      174.840      100.767       62.705    30568.966    10154.056     3931.970       11.043        2.233      419.412       77.494        0.034      349.331       29.679      859.290
05/25/2014  16:26:00     -330.182      -65.299      -25.904      134.934       82.900       58.194    18207.120     6872.350     3386.526        7.120        1.423      336.577       72.506        0.046      349.447       29.877      859.311
05/25/2014  16:27:00     -131.240     -108.086       21.718      145.476      138.363       67.929    21163.144    19144.426     4614.371        3.714        2.246      170.019       81.758        0.231      349.675       30.275      859.304
05/25/2014  16:28:00     -302.331     -166.744      -19.301      168.497      134.748       84.735    28391.361    18157.024     7180.025        8.664        2.686      345.265       90.746        0.069      349.486       29.945      859.284
05/25/2014  16:29:00     -128.154      -96.579       11.187      144.100      118.121       63.177    20764.895    13952.546     3991.367        3.228        1.935      160.471       85.103        0.281      349.508       29.986      859.275
05/25/2014  16:30:00     -214.696     -193.502      -11.839      123.970      112.163       56.963    15368.627    12580.526     3244.826        5.743        1.560      289.029       52.737        0.033      349.465       29.909      859.249
05/25/2014  16:31:00     -165.998     -215.352      -15.460       88.316      105.807       52.905     7799.659    11195.100     2798.987        4.798        1.090      271.904       53.115        0.038      349.515       29.994      859.232
05/25/2014  16:32:00     -266.251      -77.359       -4.010      133.519      124.090       59.117    17827.263    15398.389     3494.806        5.680        1.836      277.261       65.218        0.055      349.690       30.300      859.240
05/25/2014  16:33:00     -302.443      -90.774      -11.785      205.436      119.207       67.247    42203.869    14210.362     4522.102        8.038        3.047      315.772       94.247        0.089      349.777       30.453      859.226
05/25/2014  16:34:00     -287.214      -87.590      -15.727      138.707       93.229       61.683    19239.578     8691.614     3804.818        6.107        1.587      300.273       73.895        0.061      349.620       30.177      859.259
05/25/2014  16:35:00     -394.790     -134.084      -26.414      131.030      114.789       65.199    17168.872    13176.555     4250.895       10.456        1.730      416.938       66.712        0.026      349.456       29.894      859.246
05/25/2014  16:36:00     -372.694     -129.171       -4.574      180.238      123.746       64.103    32485.741    15313.076     4109.160       10.375        2.595      394.443       76.715        0.038      349.581       30.110      859.241
05/25/2014  16:37:00     -320.832      -26.567      -26.326      164.836       72.601       65.343    27170.804     5270.893     4269.732        7.051        1.836      321.930       75.609        0.055      349.492       29.957      859.221
05/25/2014  16:38:00     -608.570     -202.373      -42.513      174.896      144.187       76.763    30588.480    20790.026     5892.572       23.518        2.864      641.336       70.981        0.012      349.253       29.541      859.244
05/25/2014  16:39:00     -288.292     -221.630       -5.785      145.854      103.381       75.198    21273.290    10687.638     5654.806        8.493        1.881      363.637       79.721        0.048      349.083       29.247      859.287
05/25/2014  16:40:00     -180.370     -185.089       -2.591      107.967       78.668       55.627    11656.870     6188.712     3094.415        4.386        1.047      258.440       56.372        0.048      349.123       29.316      859.272
05/25/2014  16:41:00     -301.599     -182.570       -4.872      157.829      131.030       75.909    24909.978    17168.865     5762.167        8.607        2.392      352.553       55.013        0.024      349.370       29.744      859.258
05/25/2014  16:42:00     -334.898     -177.388      -24.036      199.806      164.852       80.620    39922.541    27176.269     6499.546       10.888        3.680      378.977       91.561        0.058      349.489       29.951      859.262
05/25/2014  16:43:00     -547.401     -164.169      -12.887      176.934      131.998       76.587    31305.670    17423.422     5865.541       19.067        2.730      571.488       81.376        0.020      349.137       29.339      859.289
05/25/2014  16:44:00     -375.176     -182.376      -12.199      143.273      112.868       69.027    20527.156    12739.170     4764.783       10.609        1.902      417.155       69.491        0.028      349.268       29.567      859.284
05/25/2014  16:45:00     -375.407     -188.074      -13.079      162.710      115.144       84.463    26474.573    13258.248     7133.917       11.166        2.343      419.883       84.659        0.041      349.292       29.608      859.282
05/25/2014  16:46:00     -335.010     -144.402      -21.738      231.854      143.562       92.400    53756.158    20610.130     8537.778       10.821        4.145      364.806      113.644        0.097      349.371       29.747      859.240
05/25/2014  16:47:00     -344.591      -91.473       -0.508      213.548      140.234       95.887    45602.952    19665.702     9194.382       10.077        3.723      356.526      100.476        0.079      349.435       29.856      859.254
05/25/2014  16:48:00     -347.102      -73.125      -11.655      153.949      119.971       74.531    23700.347    14393.022     5554.873        8.480        2.182      354.721       76.026        0.046      349.550       30.055      859.248
05/25/2014  16:49:00     -332.905     -112.710      -25.082      143.813      141.529       64.803    20682.134    20030.458     4199.455        8.453        2.246      351.467       58.754        0.028      349.672       30.269      859.268
05/25/2014  16:50:00     -130.827      -79.564        5.962      146.193      109.089       65.721    21372.430    11900.502     4319.247        3.053        1.880      153.122       70.206        0.210      349.497       29.966      859.265
05/25/2014  16:51:00     -306.398     -165.451      -14.022      155.144       99.240       66.631    24069.748     9848.494     4439.625        7.990        1.918      348.215       66.559        0.037      349.485       29.944      859.268
05/25/2014  16:52:00     -494.282       40.650      -41.436      160.936      101.446       65.235    25900.279    10291.350     4255.570       14.406        2.022      495.951       65.483        0.017      349.334       29.682      859.257
05/25/2014  16:53:00     -334.588     -135.815      -19.518      169.240      146.315       68.682    28642.222    21408.175     4717.238        9.276        2.738      361.102       78.606        0.047      349.372       29.750      859.236
05/25/2014  16:54:00     -236.280     -158.347        2.585      156.556      147.262       76.318    24509.696    21686.048     5824.383        6.645        2.601      284.432       91.372        0.103      349.522       30.007      859.252
05/25/2014  16:55:00     -239.231      -47.515       12.377      205.693      136.452       89.786    42309.524    18619.110     8061.613        6.430        3.450      243.904      100.934        0.171      349.568       30.089      859.227
05/25/2014  16:56:00     -155.590      -87.275        8.046      133.000       88.328       61.738    17689.119     7801.759     3811.605        3.059        1.465      178.396       59.231        0.110      349.623       30.186      859.248
05/25/2014  16:57:00     -183.302     -105.547        9.863      151.991      118.440       62.822    23101.115    14028.003     3946.584        4.295        2.054      211.518       72.283        0.117      349.608       30.159      859.243
05/25/2014  16:58:00     -288.019     -195.977      -22.690      145.002      125.059       79.396    21025.472    15639.735     6303.801        8.241        2.148      348.370       81.895        0.055      349.472       29.921      859.269
05/25/2014  16:59:00     -272.965     -106.807        2.140      188.048      138.756       73.828    35362.177    19253.344     5450.547        7.298        3.003      293.117       85.782        0.086      349.516       29.997      859.238
05/25/2014  17:00:00     -360.983     -176.893      -11.240      166.844      129.015       74.486    27837.040    16644.968     5548.222       10.587        2.502      401.995       71.430        0.032      349.451       29.884      859.229
05/25/2014  17:01:00     -279.991     -131.472        0.749      164.273      119.801       80.521    26985.454    14352.314     6483.555        7.174        2.391      309.321       83.684        0.073      349.459       29.899      859.259
05/25/2014  17:02:00     -355.876     -262.624        6.120      276.747      179.969       97.637    76588.645    32389.006     9533.057       15.706        5.926      442.289      110.238        0.062      349.230       29.501      859.232
05/25/2014  17:03:00     -405.059     -192.194      -12.326      249.475      153.977       97.878    62237.672    23708.931     9580.197       14.833        4.776      448.343      117.188        0.068      349.229       29.501      859.262
05/25/2014  17:04:00     -180.482     -109.649       -1.624      149.977       98.373       69.694    22493.033     9677.228     4857.268        4.081        1.851      211.180       78.115        0.137      349.315       29.650      859.285
05/25/2014  17:05:00     -225.468     -130.397       -9.694      131.093      110.231       60.728    17185.354    12150.905     3687.843        5.047        1.651      260.459       53.298        0.042      349.260       29.554      859.256
05/25/2014  17:06:00     -320.454     -229.396      -13.836      190.012      135.437       82.785    36104.702    18343.244     6853.310       10.839        3.065      394.098       85.059        0.047      349.228       29.498      859.259
05/25/2014  17:07:00     -345.279      -39.713      -35.489      111.363      123.632       69.468    12401.768    15284.967     4825.776        7.728        1.626      347.555       67.207        0.037      349.400       29.797      859.278
05/25/2014  17:08:00     -294.824     -117.872       -5.819      168.543      102.939       62.008    28406.719    10596.431     3845.046        7.184        2.142      317.513       71.091        0.050      349.390       29.778      859.263
05/25/2014  17:09:00     -248.217      -88.507       -3.831      137.515      114.377       64.625    18910.505    13082.035     4176.380        5.281        1.808      263.524       64.566        0.060      349.617       30.173      859.255
05/25/2014  17:10:00     -387.531     -128.976      -16.894      146.316       97.976       60.847    21408.482     9599.332     3702.395       10.090        1.736      408.430       54.260        0.018      349.516       29.996      859.267
05/25/2014  17:11:00     -413.400      -88.862      -14.574      161.944      122.006       65.047    26225.954    14885.556     4231.126       11.217        2.267      422.842       59.394        0.020      349.465       29.908      859.294
05/25/2014  17:12:00     -380.432      -10.000      -17.511      182.363      143.020       80.440    33256.326    20454.730     6470.540       10.265        3.009      380.564       77.118        0.041      349.471       29.919      859.329
05/25/2014  17:13:00     -203.478       17.642       12.903      110.348       96.128       64.185    12176.656     9240.551     4119.756        3.370        1.277      204.241       64.098        0.098      349.491       29.954      859.313
05/25/2014  17:14:00     -234.702     -112.901       15.072      144.344      124.531       71.721    20835.207    15508.031     5143.833        5.476        2.074      260.445       72.456        0.077      349.226       29.496      859.322
05/25/2014  17:15:00     -156.109      -89.355        3.376      147.940      100.301       72.307    21886.105    10060.309     5228.238        3.476        1.859      179.873       79.843        0.197      349.364       29.735      859.353
05/25/2014  17:16:00     -407.259     -221.440       -8.474      238.246      180.836      111.527    56761.206    32701.768    12438.163       15.841        5.095      463.569      117.431        0.064      349.202       29.453      859.338
05/25/2014  17:17:00     -362.847     -205.742        5.985      234.464      156.752       89.687    54973.169    24571.156     8043.704       13.079        4.379      417.118      107.750        0.067      349.103       29.282      859.344
05/25/2014  17:18:00     -368.145     -116.797       -1.798      179.428      122.667       70.385    32194.338    15047.113     4953.996       10.068        2.610      386.228       60.810        0.025      349.153       29.369      859.340
05/25/2014  17:19:00     -207.010      -24.160       18.611      182.682      130.836       83.177    33372.703    17118.121     6918.401        5.058        2.870      208.415       89.253        0.183      349.275       29.580      859.340
05/25/2014  17:20:00     -121.932      -27.758       22.802      185.721       97.698       58.243    34492.319     9544.833     3392.243        3.178        2.371      125.052       60.575        0.235      349.392       29.784      859.306
05/25/2014  17:21:00     -381.242     -239.306       -1.116      298.760      156.577       88.409    89257.729    24516.397     7816.066       16.208        6.080      450.125      108.596        0.058      349.272       29.574      859.277
05/25/2014  17:22:00     -388.454     -312.721        0.023      197.063      213.417      110.027    38833.927    45546.755    12105.844       17.257        4.824      498.690      118.230        0.056      349.131       29.330      859.288
05/25/2014  17:23:00     -415.525     -143.189       -6.329      234.242      181.605       97.435    54869.279    32980.258     9493.522       14.525        4.867      439.505       99.747        0.052      349.127       29.322      859.280
05/25/2014  17:24:00     -391.306     -195.088       -2.082      218.232      180.962      103.275    47625.123    32747.314    10665.822       14.109        4.552      437.240      120.700        0.076      349.179       29.413      859.307
05/25/2014  17:25:00     -325.757     -127.100      -31.033      169.768      109.082       69.304    28821.340    11898.876     4803.072        8.437        2.276      349.675       80.745        0.053      349.144       29.353      859.310
05/25/2014  17:26:00     -381.345     -180.608       -4.253      219.892      139.414       71.518    48352.343    19436.279     5114.764       12.547        3.645      421.952       89.495        0.045      349.262       29.558      859.307
05/25/2014  17:27:00     -379.807      -77.524       -9.713      180.662      200.300       94.419    32638.849    40119.976     8914.936       11.600        4.084      387.638       93.451        0.058      349.285       29.598      859.333
05/25/2014  17:28:00     -415.022     -183.020      -11.507      177.990      127.579       84.080    31680.298    16276.355     7069.381       13.044        2.751      453.585       83.643        0.034      349.188       29.428      859.340
05/25/2014  17:29:00     -353.204     -278.119       -7.855      228.978      185.725      112.269    52430.745    34493.727    12604.331       15.083        4.976      449.559      126.324        0.079      349.094       29.266      859.350
05/25/2014  17:30:00     -502.626     -246.154      -11.553      203.048      167.976       73.244    41228.376    28215.806     5364.654       19.407        3.740      559.665       75.675        0.018      348.901       28.931      859.323
05/25/2014  17:31:00     -271.922     -122.541       -6.813      194.922      131.469       70.068    37994.502    17284.160     4909.511        7.458        3.009      298.258       70.010        0.055      349.083       29.246      859.310
05/25/2014  17:32:00     -516.624      -72.401       -7.154      207.976      195.376       95.789    43254.060    38171.670     9175.601       18.138        4.530      521.672       95.598        0.034      349.046       29.183      859.287
05/25/2014  17:33:00     -453.772     -103.867      -30.568      172.325      147.361       82.045    29695.789    21715.404     6731.396       13.788        2.907      465.508       94.264        0.041      349.142       29.351      859.337
05/25/2014  17:34:00     -426.821     -121.283      -24.932      203.373      131.575       76.159    41360.421    17312.097     5800.218       13.098        3.224      443.719       83.679        0.036      349.154       29.369      859.320
05/25/2014  17:35:00     -354.595        1.835      -12.453      131.217      163.855       72.465    17217.874    26848.578     5251.113        8.760        2.466      354.600       62.596        0.031      349.172       29.401      859.304
05/25/2014  17:36:00     -278.779       -7.673       -1.528      127.221      104.046       65.763    16185.293    10825.489     4324.742        5.455        1.567      278.885       75.119        0.073      349.331       29.678      859.313
05/25/2014  17:37:00     -458.202     -147.607      -33.356      245.304      206.205       82.868    60173.967    42520.677     6867.088       17.118        5.478      481.391      102.488        0.045      349.153       29.368      859.302
05/25/2014  17:38:00     -336.959     -180.068       -4.709      263.329      161.216       94.836    69341.921    25990.660     8993.856       12.514        5.216      382.055      126.918        0.110      349.115       29.303      859.272
05/25/2014  17:39:00     -307.303     -101.511        2.043      232.300      116.435       83.428    53963.164    13557.149     6960.179        8.960        3.724      323.635      104.860        0.105      349.114       29.301      859.295
05/25/2014  17:40:00     -428.234     -225.914      -29.464      196.778      190.665       88.024    38721.572    36352.989     7748.251       15.904        4.141      484.171       89.735        0.034      349.071       29.226      859.314
05/25/2014  17:41:00     -345.060      -64.514       -8.101      194.791      164.453       90.834    37943.523    27044.810     8250.885        9.825        3.662      351.039      100.292        0.082      349.120       29.311      859.302
05/25/2014  17:42:00     -215.885     -188.299       10.221      201.381      159.448      104.022    40554.479    25423.775    10820.515        7.947        3.840      286.466      104.745        0.134      349.050       29.189      859.281
05/25/2014  17:43:00     -223.562     -119.806       -6.222      146.534      118.648       73.887    21472.080    14077.307     5459.335        5.268        2.050      253.640       62.248        0.060      349.131       29.332      859.300
05/25/2014  17:44:00     -270.928     -107.760        6.347      199.653      124.981       78.193    39861.126    15620.284     6114.164        7.331        3.080      291.572       88.580        0.092      349.062       29.210      859.290
05/25/2014  17:45:00     -272.903      -36.790       -2.196      188.012      139.422       60.215    35348.466    19438.632     3625.831        6.711        2.921      275.372       54.857        0.040      349.126       29.322      859.292
05/25/2014  17:46:00     -393.605     -135.160      -23.582      186.236      129.177       76.680    34683.853    16686.599     5879.871       11.549        2.863      416.165       76.897        0.034      348.995       29.093      859.288
05/25/2014  17:47:00     -254.161     -161.158        2.088      228.356      159.535      102.063    52146.403    25451.277    10416.771        8.928        4.401      300.948      128.135        0.181      349.039       29.171      859.270
05/25/2014  17:48:00     -371.358     -155.789       -6.856      151.425      119.957       70.867    22929.412    14389.566     5022.182       10.227        2.117      402.712       70.570        0.031      349.011       29.123      859.276
05/25/2014  17:49:00     -356.142     -288.047        2.510      222.817      172.367      120.971    49647.288    29710.272    14634.004       15.188        4.700      458.048      126.476        0.076      348.908       28.945      859.253
05/25/2014  17:50:00     -355.183     -124.822      -11.506      152.029      144.924       65.158    23112.690    21002.983     4245.513        9.510        2.418      376.477       71.678        0.036      349.035       29.165      859.278
05/25/2014  17:51:00     -401.952     -147.949      -14.517      183.362      223.297       86.552    33621.487    49861.567     7491.314       13.730        4.549      428.315       91.337        0.045      349.006       29.113      859.294
05/25/2014  17:52:00     -268.337      -62.586        3.747      184.993      152.485       75.698    34222.400    23251.650     5730.147        6.956        3.160      275.539       89.407        0.105      349.048       29.186      859.314
05/25/2014  17:53:00     -232.967      -77.288       11.927      207.683      166.831       91.983    43132.138    27832.619     8460.963        6.989        3.971      245.453      100.319        0.167      348.978       29.066      859.324
05/25/2014  17:54:00     -343.787     -193.614      -13.369      172.335      182.905       80.662    29699.316    33454.378     6506.396       11.274        3.483      394.558       92.792        0.055      348.912       28.950      859.339
05/25/2014  17:55:00     -168.252      -95.870        0.685      150.934      115.720       73.653    22781.099    13391.173     5424.768        3.954        2.080      193.648       67.083        0.120      349.027       29.152      859.348
05/25/2014  17:56:00     -472.895     -126.536      -19.230      173.698      187.161       87.268    30170.870    35029.179     7615.664       15.640        3.641      489.531       82.236        0.028      348.868       28.875      859.335
05/25/2014  17:57:00     -411.893     -209.774      -10.204      223.192      177.783       75.176    49814.590    31606.694     5651.390       15.040        4.354      462.234       79.813        0.030      348.817       28.786      859.342
05/25/2014  17:58:00     -404.337      -85.982      -16.571      189.852      169.942       75.849    36043.665    28880.129     5753.057       12.090        3.534      413.378       88.995        0.046      348.837       28.822      859.339
05/25/2014  17:59:00     -484.697     -106.184      -47.973      166.006      145.998       78.491    27557.972    21315.538     6160.785       15.176        2.752      496.192       75.535        0.023      348.764       28.696      859.343
05/25/2014  18:00:00     -292.876     -144.555      -15.249      152.108      149.126       63.375    23136.827    22238.674     4016.396        7.814        2.470      326.607       64.840        0.039      348.847       28.841      859.360
05/25/2014  18:01:00     -368.421      -79.109      -10.815      130.637      140.523       68.911    17066.112    19746.663     4748.744        9.183        2.078      376.819       61.732        0.027      348.800       28.756      859.380
05/25/2014  18:02:00     -452.224     -157.482      -17.873      190.546      123.018       81.483    36307.621    15133.359     6639.485       14.384        2.904      478.861       95.091        0.039      348.740       28.655      859.394
05/25/2014  18:03:00     -361.824     -233.039      -14.042      193.407      139.348       79.155    37406.435    19417.930     6265.590       12.424        3.154      430.376       80.912        0.035      348.694       28.575      859.398
05/25/2014  18:04:00     -456.295     -270.431      -21.308      231.061      168.694       96.518    53389.091    28457.699     9315.774       18.646        4.558      530.413      101.590        0.037      348.595       28.400      859.398
05/25/2014  18:05:00     -414.627     -182.970      -14.681      251.362      165.364       97.378    63182.948    27345.100     9482.412       15.279        5.001      453.204      106.932        0.056      348.480       28.204      859.393
05/25/2014  18:06:00     -480.422     -214.247      -23.974      159.712      166.481       83.794    25507.835    27715.965     7021.367       16.875        3.012      526.030       74.815        0.020      348.464       28.176      859.403
05/25/2014  18:07:00     -390.064     -170.213        6.841      274.673      174.904       94.350    75445.343    30591.582     8901.837       14.803        5.747      425.585      119.072        0.078      348.454       28.158      859.397
05/25/2014  18:08:00     -293.450     -257.578       -2.427      193.516      141.720       88.357    37448.496    20084.444     7806.926       10.889        3.267      390.461       90.749        0.054      348.460       28.170      859.415
05/25/2014  18:09:00     -357.788     -147.857       13.391      211.174      181.238      108.117    44594.595    32847.223    11689.229       11.957        4.457      387.135      106.939        0.076      348.444       28.142      859.401
05/25/2014  18:10:00     -455.686     -308.879      -24.763      235.255      183.381      101.831    55344.833    33628.485    10369.582       20.149        4.967      550.505       97.614        0.031      348.404       28.071      859.407
05/25/2014  18:11:00     -491.801     -282.746      -19.996      240.083      221.198       89.678    57640.079    48928.652     8042.150       21.839        5.731      567.286      106.530        0.035      348.376       28.021      859.408
05/25/2014  18:12:00     -451.264     -304.820      -24.906      196.691      177.568       98.543    38687.289    31530.466     9710.671       18.854        3.996      544.568      103.581        0.036      348.388       28.044      859.407
05/25/2014  18:13:00     -313.261     -224.987        2.852      165.841      123.829       84.629    27503.108    15333.578     7162.068        9.937        2.500      385.683       82.869        0.046      348.405       28.073      859.445
05/25/2014  18:14:00     -432.406     -181.524      -29.839      190.121      142.776       78.817    36145.895    20384.944     6212.137       14.177        3.137      468.962       94.041        0.040      348.405       28.073      859.451
05/25/2014  18:15:00     -355.612     -154.538       12.555      250.226      200.815      100.059    62613.227    40326.526    10011.795       13.170        5.648      387.740      117.658        0.092      348.352       27.982      859.433
05/25/2014  18:16:00     -190.616      -90.990       -0.149      130.013      111.438       59.966    16903.458    12418.318     3595.916        3.876        1.646      211.220       61.655        0.085      348.426       28.111      859.472
05/25/2014  18:17:00     -279.777     -134.624      -13.736      162.006      164.441       84.540    26246.061    27040.742     7147.007        7.850        3.022      310.481       79.056        0.065      348.365       28.005      859.497
05/25/2014  18:18:00     -303.902      -77.963        1.097      243.493      135.407       90.352    59288.808    18335.087     8163.469        9.209        4.289      313.743      110.610        0.124      348.317       27.923      859.488
05/25/2014  18:19:00     -203.870      -90.411       14.138      202.645      168.796       80.245    41065.103    28491.979     6439.244        6.295        3.800      223.018       90.248        0.164      348.344       27.969      859.504
05/25/2014  18:20:00     -288.921     -290.320       -0.138      204.242      173.180      106.457    41714.658    29991.413    11333.121       12.538        4.152      409.587      122.589        0.090      348.274       27.846      859.501
05/25/2014  18:21:00     -340.983     -174.704      -16.107      179.963      194.344      100.397    32386.713    37769.655    10079.520       11.363        4.012      383.133       85.415        0.050      348.277       27.851      859.506
05/25/2014  18:22:00     -326.092      -63.927       -6.898      169.915      152.457       87.482    28870.949    23243.068     7653.094        8.511        2.988      332.299       92.183        0.077      348.263       27.826      859.533
05/25/2014  18:23:00     -232.102     -156.761        2.792      172.713      130.207       88.210    29829.627    16953.832     7780.968        6.650        2.728      280.081       95.889        0.117      348.256       27.817      859.523
05/25/2014  18:24:00     -368.633     -174.648       -9.877      257.593      144.969       95.764    66354.165    21016.025     9170.805       13.150        4.827      407.913      114.213        0.078      348.234       27.779      859.526
05/25/2014  18:25:00     -417.361     -103.314        0.998      270.426      185.273       98.129    73130.297    34325.917     9629.231       15.095        5.854      429.958      110.459        0.066      348.205       27.727      859.533
05/25/2014  18:26:00     -481.984      -46.333      -21.642      219.720      154.661       94.612    48276.810    23919.964     8951.494       15.802        4.057      484.206      107.151        0.049      348.175       27.676      859.541
05/25/2014  18:27:00     -608.180     -198.207      -34.686      219.551      187.535       99.500    48202.808    35169.411     9900.177       25.180        4.664      639.663      110.639        0.030      348.148       27.629      859.537
05/25/2014  18:28:00     -537.670      -39.615      -36.295      160.700      126.397       85.460    25824.461    15976.176     7303.401       17.053        2.455      539.127       84.666        0.025      348.151       27.636      859.549
05/25/2014  18:29:00     -545.349      -84.505      -29.150      236.039      177.861       88.675    55714.359    31634.567     7863.286       20.029        4.761      551.858      108.264        0.038      348.129       27.596      859.552
05/25/2014  18:30:00     -497.196      -56.762      -30.806      174.507      168.110       78.339    30452.701    28260.963     6136.967       15.810        3.243      500.426       74.320        0.022      348.145       27.626      859.538
05/25/2014  18:31:00     -468.700     -129.047      -24.373      247.958      173.282       80.474    61482.940    30026.484     6476.060       16.744        4.899      486.140       90.734        0.035      348.182       27.688      859.550
05/25/2014  18:32:00     -357.188      -82.156      -15.103      172.670      113.480       65.412    29814.976    12877.749     4278.787        9.076        2.349      366.514       76.990        0.044      348.228       27.768      859.563
05/25/2014  18:33:00     -425.972      -14.166      -14.355      175.730      143.612       74.121    30880.933    20624.400     5493.907       11.942        2.850      426.208       76.370        0.032      348.304       27.898      859.549
05/25/2014  18:34:00     -470.971      -48.330      -15.212      221.410      178.234      105.237    49022.505    31767.257    11074.797       15.810        4.593      473.444      111.880        0.056      348.281       27.857      859.530
05/25/2014  18:35:00     -576.783      -61.192      -29.905      205.128      160.504       81.747    42077.600    25761.456     6682.541       20.590        3.726      580.020       94.836        0.027      348.274       27.847      859.538
05/25/2014  18:36:00     -411.938      -76.938      -17.767      197.713      130.671       74.068    39090.275    17074.783     5486.091       11.878        3.083      419.061       85.677        0.042      348.307       27.903      859.540
05/25/2014  18:37:00     -452.146        9.324      -19.667      186.159      166.184       85.576    34655.291    27617.096     7323.285       13.724        3.480      452.242       82.860        0.034      348.311       27.911      859.540
05/25/2014  18:38:00     -528.459     -153.682      -56.135      195.829      174.789       92.647    38349.179    30551.142     8583.508       19.175        3.874      550.352       95.301        0.030      348.266       27.833      859.513
05/25/2014  18:39:00     -308.391     -138.403        1.460      170.884      183.634       92.477    29201.317    33721.272     8551.920        9.285        3.574      338.024       71.698        0.045      348.318       27.922      859.531
05/25/2014  18:40:00     -272.541      -42.237      -13.520      177.167      142.774       88.579    31388.298    20384.390     7846.187        6.792        2.981      275.795      101.148        0.135      348.320       27.927      859.554
05/25/2014  18:41:00     -500.977      -62.972      -17.150      212.797      147.951       89.306    45282.706    21889.389     7975.530       16.518        3.757      504.920       83.121        0.027      348.252       27.808      859.546
05/25/2014  18:42:00     -386.937      -63.063       -1.657      212.227      170.315       91.795    45040.184    29007.058     8426.253       11.807        4.124      392.042      102.615        0.069      348.243       27.794      859.555
05/25/2014  18:43:00     -475.631      -41.245      -23.938      279.684      205.052      104.034    78223.386    42046.433    10823.168       17.977        6.555      477.416      141.057        0.087      348.185       27.694      859.559
05/25/2014  18:44:00     -314.879      -54.019       -9.798      303.926      195.939      110.860    92370.864    38392.072    12289.880       12.258        7.153      319.479      136.737        0.183      348.230       27.771      859.551
05/25/2014  18:45:00     -590.318     -138.579      -40.452      225.471      194.323      107.675    50837.313    37761.499    11593.853       23.473        5.010      606.366      122.852        0.041      348.159       27.647      859.557
05/25/2014  18:46:00     -274.555     -141.183       -2.464      214.657      143.557       81.581    46077.607    20608.704     6655.531        8.432        3.667      308.728       99.543        0.104      348.193       27.707      859.580
05/25/2014  18:47:00     -398.295     -140.928      -19.656      179.284      172.921       87.771    32142.788    29901.525     7703.746       12.430        3.487      422.492       90.108        0.045      348.193       27.708      859.614
05/25/2014  18:48:00     -365.999     -228.547       -3.323      211.991      164.235      102.196    44940.034    26973.267    10444.003       13.426        4.118      431.496      112.538        0.068      348.113       27.568      859.584
05/25/2014  18:49:00     -283.060     -174.573       13.287      245.317      159.762      120.457    60180.617    25523.840    14509.957       10.547        5.011      332.564      135.920        0.167      348.111       27.564      859.583
05/25/2014  18:50:00     -352.878     -146.014      -15.418      186.546      169.446       85.620    34799.491    28712.028     7330.726       10.845        3.542      381.894       84.407        0.049      348.129       27.596      859.612
05/25/2014  18:51:00     -397.888     -211.933        5.656      234.694      190.498      112.880    55081.154    36289.480    12741.846       15.367        5.206      450.810      122.141        0.073      348.077       27.506      859.619
05/25/2014  18:52:00     -523.657     -120.388       -6.580      308.771      168.920      115.366    95339.774    28533.816    13309.238       21.294        6.859      537.318      148.650        0.077      348.001       27.376      859.631
05/25/2014  18:53:00     -304.647      -26.035      -16.115      141.141      112.818       83.681    19920.819    12727.994     7002.443        6.669        1.983      305.758       58.633        0.037      348.095       27.538      859.638
05/25/2014  18:54:00     -469.390      -88.274      -15.148      189.380      179.360       89.776    35864.922    32169.967     8059.784       15.221        3.805      477.618       89.917        0.035      347.974       27.329      859.644
05/25/2014  18:55:00     -498.164     -138.833      -24.889      202.713      191.342       88.410    41092.667    36611.610     7816.243       17.677        4.276      517.148       99.876        0.037      347.949       27.286      859.659
05/25/2014  18:56:00     -578.308     -230.926      -16.766      242.752      185.235       97.860    58928.614    34311.976     9576.667       24.541        5.141      622.710      121.839        0.038      347.904       27.208      859.649
05/25/2014  18:57:00     -507.428     -190.398      -31.360      223.245      178.339       96.000    49838.314    31804.779     9216.002       19.277        4.543      541.973      100.897        0.035      347.886       27.178      859.663
05/25/2014  18:58:00     -327.195      -91.834        1.392      173.776      154.083       88.486    30198.219    23741.595     7829.684        8.862        3.088      339.838       84.658        0.062      347.936       27.262      859.693
05/25/2014  18:59:00     -265.189     -185.796       -4.245      186.303      166.517       99.819    34708.803    27728.046     9963.844        8.862        3.620      323.798      105.332        0.106      347.914       27.226      859.697
05/25/2014  19:00:00     -322.280     -168.171       13.402      227.763      172.748       98.743    51876.189    29841.842     9750.147       11.188        4.573      363.519      107.542        0.088      347.880       27.166      859.719
05/25/2014  19:01:00     -249.264      -80.279       -5.386      133.940      141.303       66.545    17940.056    19966.454     4428.192        5.546        2.117      261.872       57.495        0.048      347.923       27.241      859.727
05/25/2014  19:02:00     -358.135     -150.102      -12.258      206.410      121.844       70.397    42605.117    14845.963     4955.798       10.666        3.120      388.318       81.993        0.045      347.871       27.151      859.740
05/25/2014  19:03:00     -264.804     -177.604        5.580      199.974      182.249       92.475    39989.616    33214.524     8551.625        9.171        4.088      318.849      107.621        0.114      347.828       27.078      859.757
05/25/2014  19:04:00     -516.368      -73.318      -34.272      228.596      204.674       98.076    52256.268    41891.407     9618.826       18.846        5.188      521.547      119.964        0.053      347.789       27.007      859.778
05/25/2014  19:05:00     -437.617     -108.235      -23.182      262.682      195.128      106.105    69001.717    38075.028    11258.209       16.102        5.917      450.803      116.557        0.067      347.779       26.993      859.780
05/25/2014  19:06:00     -477.223     -173.603      -15.980      234.589      264.256      117.484    55031.968    69831.269    13802.386       19.837        6.933      507.819      136.093        0.072      347.720       26.891      859.799
05/25/2014  19:07:00     -208.410      -74.163        6.246      162.383      161.615       93.306    26368.352    26119.436     8706.064        5.507        3.060      221.213       72.939        0.109      347.751       26.946      859.789
05/25/2014  19:08:00     -551.637     -216.744      -12.648      257.726      189.050       99.330    66422.710    35739.869     9866.485       23.171        5.601      592.690       93.495        0.025      347.693       26.844      859.812
05/25/2014  19:09:00     -550.221      -46.251      -18.339      219.101      153.526       88.942    48005.097    23570.289     7910.749       19.234        3.974      552.162       97.120        0.031      347.664       26.793      859.823
05/25/2014  19:10:00     -411.846     -127.914      -16.151      179.703      154.500       99.142    32293.263    23870.112     9829.117       12.610        3.300      431.253       93.693        0.047      347.648       26.766      859.845
05/25/2014  19:11:00     -354.014      -85.650      -12.796      212.144      162.652       86.431    45005.251    26455.589     7470.284       10.586        3.947      364.228      103.412        0.081      347.655       26.777      859.865
05/25/2014  19:12:00     -347.280     -144.342        7.211      205.749      182.800       93.867    42332.698    33415.749     8811.058       11.301        4.228      376.082       95.315        0.064      347.636       26.744      859.859
05/25/2014  19:13:00     -347.309     -183.187        4.224      260.680      204.500      114.425    67954.310    41820.079    13093.119       13.851        6.143      392.659      142.796        0.132      347.630       26.735      859.853
05/25/2014  19:14:00     -309.818     -205.779       13.325      236.137      173.295      100.526    55760.550    30031.057    10105.532       11.718        4.795      371.930       99.408        0.071      347.627       26.730      859.873
05/25/2014  19:15:00     -224.822     -150.132       25.081      214.793      156.089      111.406    46136.112    24363.792    12411.289        7.830        4.146      270.342      127.423        0.222      347.599       26.682      859.901
05/25/2014  19:16:00     -275.378     -158.505        1.569      184.999      184.810       88.004    34224.727    34154.639     7744.751        8.853        3.806      317.737       98.677        0.096      347.586       26.660      859.915
05/25/2014  19:17:00     -246.764     -142.121       -4.844      194.230      132.050       87.306    37725.330    17437.178     7622.296        7.194        3.139      284.764       76.338        0.072      347.588       26.664      859.946
05/25/2014  19:18:00     -229.251      -93.460       11.851      191.737      137.269       82.012    36762.971    18842.795     6725.887        6.187        3.117      247.570       91.184        0.136      347.596       26.678      859.961
05/25/2014  19:19:00     -237.318     -134.950       -6.519      126.480      126.326       67.602    15997.237    15958.207     4569.964        5.554        1.826      273.004       58.144        0.045      347.608       26.699      859.982
05/25/2014  19:20:00     -267.509      -60.213       -7.776      162.548      140.426       87.319    26422.014    19719.427     7624.647        6.450        2.688      274.202       85.392        0.097      347.597       26.680      859.981
05/25/2014  19:21:00     -407.290     -148.018        2.917      271.211      197.070       97.203    73555.574    38836.506     9448.394       15.480        6.092      433.353      110.693        0.065      347.566       26.625      859.971
05/25/2014  19:22:00     -328.802     -121.294       -5.628      206.734      173.087       87.564    42738.930    29959.191     7667.370       10.159        4.018      350.461      109.906        0.098      347.555       26.607      859.989
05/25/2014  19:23:00     -228.562      -80.016        8.375      169.681      113.998       81.992    28791.699    12995.559     6722.629        5.360        2.425      242.163       91.015        0.141      347.546       26.591      859.994
05/25/2014  19:24:00     -240.988     -151.639       10.990      192.827      141.410       94.370    37182.350    19996.714     8905.739        7.362        3.304      284.727      104.022        0.133      347.545       26.587      860.009
05/25/2014  19:25:00     -469.611     -213.495      -10.579      188.224      187.894       90.097    35428.140    35304.019     8117.387       17.252        3.942      515.863       88.899        0.030      347.510       26.526      859.986
05/25/2014  19:26:00     -332.971     -185.106       11.294      227.680      205.368      104.182    51838.057    42176.199    10853.906       12.504        5.243      380.965      120.045        0.099      347.499       26.508      860.003
05/25/2014  19:27:00     -183.461      -66.978       29.412      242.368      126.611       90.322    58742.296    16030.379     8158.090        6.095        4.147      195.305      111.701        0.327      347.483       26.483      860.006
05/25/2014  19:28:00     -494.016     -185.301      -21.933      238.916      174.703       96.077    57080.948    30521.226     9230.848       18.783        4.842      527.626      102.512        0.038      347.462       26.445      860.012
05/25/2014  19:29:00     -387.100      -90.573      -28.296      196.323      170.091       90.902    38542.624    28930.980     8263.087       11.728        3.787      397.555      102.878        0.067      347.454       26.430      860.021
05/25/2014  19:30:00     -210.309      -48.712       17.563      194.546      140.144       83.752    37848.088    19640.283     7014.333        5.569        3.225      215.877       92.186        0.182      347.487       26.489      860.019
05/25/2014  19:31:00     -260.376     -137.286       14.830      193.605      146.513       87.207    37482.939    21466.084     7605.111        7.670        3.328      294.352      105.300        0.128      347.463       26.445      860.024
05/25/2014  19:32:00     -386.948     -274.868       10.610      269.824      206.417      117.817    72805.165    42607.884    13880.921       17.732        6.465      474.638      141.883        0.089      347.391       26.322      860.002
05/25/2014  19:33:00     -287.112     -103.968        0.785      193.627      113.622       70.427    37491.488    12909.970     4959.957        7.429        2.768      305.356       73.755        0.058      347.417       26.367      860.043
05/25/2014  19:34:00     -440.466     -182.270      -10.663      157.225      150.660       77.311    24719.747    22698.468     5976.995       14.036        2.670      476.689       64.106        0.018      347.394       26.326      860.047
05/25/2014  19:35:00     -367.775     -110.136      -20.336      143.086      157.493       72.109    20473.575    24804.150     5199.689        9.913        2.524      383.912       68.815        0.032      347.386       26.314      860.037
05/25/2014  19:36:00     -466.364      -26.969      -27.856      283.627      175.248       87.410    80444.260    30711.849     7640.431       16.887        5.940      467.143      118.701        0.065      347.371       26.288      860.045
05/25/2014  19:37:00     -222.816     -150.664      -13.083      231.022      143.383       90.509    53371.391    20558.797     8191.941        7.730        4.106      268.973       93.257        0.120      347.393       26.326      860.058
05/25/2014  19:38:00     -121.398      -56.624       12.597      139.133      141.926       93.508    19358.000    20142.920     8743.832        3.316        2.412      133.954       82.847        0.383      347.344       26.243      860.047
05/25/2014  19:39:00     -238.996      -64.372      -11.480      161.397      140.442       74.753    26049.002    19724.082     5588.015        5.637        2.568      247.513       89.531        0.131      347.357       26.263      860.071
05/25/2014  19:40:00     -418.499     -108.206      -13.890      220.449      185.628      106.959    48597.891    34457.587    11440.263       14.075        4.725      432.262      114.941        0.071      347.279       26.129      860.083
05/25/2014  19:41:00     -330.261     -132.449       -0.124      232.087      183.180      112.416    53864.593    33554.984    12637.293       11.332        5.003      355.830      124.139        0.122      347.286       26.141      860.072
05/25/2014  19:42:00     -418.259     -196.802      -18.357      226.704      163.770       83.138    51394.869    26820.728     6911.880       14.955        4.256      462.247       90.353        0.038      347.278       26.129      860.060
05/25/2014  19:43:00     -210.104     -124.960        1.326      181.423      118.848       87.794    32914.268    14124.733     7707.716        5.724        2.737      244.456       98.164        0.161      347.262       26.099      860.077
05/25/2014  19:44:00     -308.313      -72.536      -15.156      194.512       96.406       77.649    37835.038     9294.149     6029.369        7.684        2.658      316.731       90.783        0.082      347.247       26.074      860.098
05/25/2014  19:45:00     -345.922     -158.967      -24.071      196.158      180.169       92.887    38478.025    32460.742     8628.084       11.252        3.978      380.700       82.420        0.047      347.237       26.058      860.070
05/25/2014  19:46:00     -255.012     -141.375       -1.245      156.727      152.377       74.749    24563.218    23218.727     5587.388        6.918        2.668      291.578       79.301        0.074      347.212       26.014      860.073
05/25/2014  19:47:00     -209.659      -91.535      -11.292      205.959      112.285       74.877    42419.180    12607.996     5606.633        5.654        3.032      228.769       97.244        0.181      347.192       25.981      860.073
05/25/2014  19:48:00     -368.548     -130.825      -30.871      142.462      136.325       62.310    20295.548    18584.586     3882.566        9.832        2.138      391.079       66.690        0.029      347.182       25.963      860.097
05/25/2014  19:49:00     -287.686     -251.935        4.039      213.008      144.048      102.525    45372.584    20749.741    10511.305       11.143        3.832      382.407      115.466        0.091      347.165       25.935      860.076
05/25/2014  19:50:00     -218.926     -145.161        1.666      218.048      143.667       91.124    47544.910    20640.249     8303.585        7.273        3.824      262.679       93.910        0.128      347.153       25.914      860.056
05/25/2014  19:51:00     -450.292      -82.279      -12.307      148.994      166.272       72.259    22199.360    27646.419     5221.407       13.236        2.753      457.747       64.630        0.020      347.142       25.894      860.084
05/25/2014  19:52:00     -331.815     -147.460       -2.345      207.811      128.613       78.505    43185.406    16541.319     6163.108        9.886        3.294      363.105       92.253        0.065      347.136       25.885      860.086
05/25/2014  19:53:00     -100.409      -35.822       15.113      145.376      117.085       85.822    21134.066    13708.885     7365.438        2.689        2.110      106.607       83.468        0.613      347.088       25.803      860.063
05/25/2014  19:54:00     -224.256     -117.475      -14.982      206.898      119.705       66.887    42806.764    14329.280     4473.820        6.295        3.080      253.162       65.354        0.067      347.109       25.836      860.069
05/25/2014  19:55:00     -470.180      -89.833       -5.814      236.071      128.635       90.280    55729.429    16546.998     8150.409       15.478        4.021      478.685      104.977        0.048      347.057       25.746      860.079
05/25/2014  19:56:00     -440.956     -132.248      -17.858      237.103      231.434       87.339    56217.765    53561.724     7628.176       16.481        5.870      460.360       87.101        0.036      347.045       25.727      860.069
05/25/2014  19:57:00     -352.994     -117.854      -22.740      200.818      173.975       90.118    40327.865    30267.337     8121.311       10.885        3.936      372.148       87.048        0.055      347.032       25.705      860.108
05/25/2014  19:58:00     -428.551      -91.464      -32.245      137.800      151.902       75.498    18988.923    23074.205     5699.894       12.040        2.388      438.203       65.713        0.022      347.023       25.687      860.117
05/25/2014  19:59:00     -422.910     -186.039      -14.444      181.612      173.929       87.728    32983.084    30251.368     7696.179       14.229        3.547      462.022       95.062        0.042      347.012       25.673      860.112
05/25/2014  20:00:00     -397.454     -131.713       11.671      173.327      200.875       99.987    30042.079    40350.618     9997.384       12.791        4.020      418.710       87.215        0.043      346.995       25.640      860.102
05/25/2014  20:01:00     -336.759      -89.073       -6.520      202.441      174.764       94.190    40982.310    30542.526     8871.702       10.087        4.020      348.340       99.193        0.081      347.005       25.658      860.089
05/25/2014  20:02:00     -387.238     -133.106       -3.448      197.238      150.124       90.732    38902.707    22537.164     8232.219       11.866        3.484      409.476      104.697        0.065      346.968       25.594      860.114
05/25/2014  20:03:00     -302.445     -126.350       -2.243      196.028      163.049       81.803    38427.129    26585.038     6691.677        8.956        3.585      327.777       81.220        0.061      346.970       25.598      860.116
05/25/2014  20:04:00     -298.239     -123.711        2.757      168.078      122.185       71.273    28250.128    14929.132     5079.885        7.625        2.413      322.880       82.525        0.065      346.955       25.571      860.111
05/25/2014  20:05:00     -214.767      -70.818       15.558      196.921      119.129       81.574    38777.782    14191.607     6654.382        5.549        2.981      226.141      105.615        0.218      346.940       25.547      860.109
05/25/2014  20:06:00     -287.455     -106.212       -5.307      186.127      144.626       73.794    34643.167    20916.786     5445.507        7.746        3.050      306.450       78.397        0.065      346.935       25.537      860.129
05/25/2014  20:07:00     -238.158      -50.444        5.005      126.992       99.297       63.021    16126.928     9859.841     3971.645        4.462        1.498      243.441       69.042        0.080      346.888       25.456      860.152
05/25/2014  20:08:00     -178.716      -93.409        6.269      149.321      140.463       70.924    22296.707    19729.865     5030.230        4.387        2.353      201.655       84.463        0.175      346.886       25.452      860.158
05/25/2014  20:09:00     -282.238      -74.822       -6.089      217.846      158.514       80.990    47456.696    25126.759     6559.367        8.220        3.957      291.988       92.784        0.101      346.852       25.395      860.151
05/25/2014  20:10:00     -324.761     -173.351        4.803      213.122      167.563       93.565    45421.047    28077.508     8754.377       10.888        4.113      368.131      113.728        0.095      346.853       25.395      860.154
05/25/2014  20:11:00     -333.920     -161.382      -16.694      203.886      145.621       84.855    41569.681    21205.495     7200.361       10.389        3.499      370.873       79.672        0.046      346.834       25.364      860.154
05/25/2014  20:12:00     -347.900      -73.806      -11.289      238.040      132.738       74.867    56662.959    17619.448     5605.024       10.323        3.994      355.643       86.512        0.059      346.820       25.339      860.145
05/25/2014  20:13:00     -408.565      -74.397      -12.462      250.738      162.425       92.786    62869.524    26381.999     8609.176       13.522        4.893      415.283      113.728        0.075      346.822       25.341      860.151
05/25/2014  20:14:00     -350.314      -10.468        4.633      254.300      180.358      110.354    64668.499    32529.099    12178.012       11.609        5.469      350.470      110.422        0.099      346.804       25.310      860.138
05/25/2014  20:15:00     -437.537      -99.017      -11.505      221.698      162.278       90.790    49149.822    26334.082     8242.824       14.253        4.186      448.601       92.916        0.043      346.806       25.315      860.153
05/25/2014  20:16:00     -323.564      -65.045        8.223      211.937      152.156       91.362    44917.096    23151.567     8347.096        9.269        3.821      330.038      110.209        0.112      346.811       25.324      860.152
05/25/2014  20:17:00     -619.701      -42.811      -38.364      248.376      186.527      103.519    61690.855    34792.145    10716.122       24.724        5.360      621.178      127.255        0.042      346.830       25.356      860.131
05/25/2014  20:18:00     -513.937      -96.986       -6.648      234.333      144.639       97.850    54911.737    20920.313     9574.548       17.948        4.270      523.008      118.647        0.051      346.793       25.291      860.144
05/25/2014  20:19:00     -552.684     -146.141      -27.562      178.859      184.529       99.123    31990.611    34051.101     9825.379       20.171        3.793      571.679       84.410        0.022      346.786       25.280      860.156
05/25/2014  20:20:00     -333.998      -45.200      -17.962      229.605      124.561       69.579    52718.457    15515.358     4841.252        9.348        3.654      337.042       83.441        0.061      346.771       25.257      860.165
05/25/2014  20:21:00     -318.390      -42.156      -14.764      150.152      134.940       69.425    22545.714    18208.870     4819.855        7.446        2.279      321.169       63.580        0.039      346.725       25.174      860.189
05/25/2014  20:22:00     -221.588     -115.704      -11.669      136.752       99.954       64.269    18701.244     9990.863     4130.518        4.772        1.641      249.977       54.515        0.048      346.710       25.148      860.201
05/25/2014  20:23:00     -176.118      -28.569        5.790      131.685      123.851       57.327    17340.991    15339.176     3286.352        3.391        1.798      178.420       57.634        0.104      346.637       25.026      860.218
05/25/2014  20:24:00     -406.897      -13.026      -23.270      148.060      137.354       64.202    21921.651    18866.031     4121.862       10.558        2.245      407.105       65.030        0.026      346.619       24.993      860.236
05/25/2014  20:25:00     -458.429     -144.522      -30.353      239.447      179.248       90.421    57334.978    32129.978     8175.971       16.478        4.882      480.670      109.806        0.052      346.662       25.067      860.219
05/25/2014  20:26:00     -257.008     -147.124       -3.890      142.338      132.427       69.539    20260.235    17536.968     4835.653        6.516        2.132      296.139       64.947        0.048      346.643       25.035      860.252
05/25/2014  20:27:00     -347.809     -104.039       -2.374      183.921      184.711       73.945    33826.924    34118.243     5467.842       10.259        3.671      363.037       73.218        0.041      346.633       25.018      860.250
05/25/2014  20:28:00     -458.703      -44.040      -15.864      193.445      197.593       82.998    37421.069    39042.863     6888.723       14.796        4.168      460.812       82.020        0.032      346.634       25.018      860.272
05/25/2014  20:29:00     -251.656      -92.667       14.449      146.974      113.786       72.101    21601.246    12947.210     5198.518        5.593        1.987      268.175       62.986        0.055      346.583       24.932      860.278
05/25/2014  20:30:00     -357.197      -62.528       -6.624      236.591      158.792       82.740    55975.380    25214.944     6845.964       10.977        4.402      362.629       92.502        0.065      346.572       24.913      860.273
05/25/2014  20:31:00     -218.793      -43.752        6.647      150.379      146.256       67.923    22613.970    21390.772     4613.583        4.921        2.431      223.124       71.590        0.103      346.550       24.876      860.269
05/25/2014  20:32:00     -163.504      -67.597       14.394      112.832      132.715       70.646    12731.030    17613.332     4990.814        3.342        1.767      176.926       63.195        0.128      346.540       24.858      860.259
05/25/2014  20:33:00     -269.345     -114.047        7.415      234.508      143.955       76.325    54994.055    20723.086     5825.469        8.356        4.077      292.495       89.448        0.094      346.564       24.899      860.228
05/25/2014  20:34:00     -488.666       30.230      -32.824      347.181      171.963       94.461   120534.302    29571.377     8922.819       19.987        7.951      489.601      137.717        0.079      346.533       24.846      860.204
05/25/2014  20:35:00     -384.044     -149.709        1.310      285.908      143.950       88.863    81743.668    20721.678     7896.563       14.011        5.518      412.192       83.855        0.041      346.532       24.845      860.221
05/25/2014  20:36:00     -267.664     -157.127       -2.977      158.548      169.707       84.388    25137.342    28800.424     7121.396        7.869        3.053      310.376       83.677        0.073      346.571       24.911      860.207
05/25/2014  20:37:00     -432.977     -137.122       -8.561      252.619      155.456      109.264    63816.165    24166.554    11938.653       15.311        4.996      454.171      135.268        0.089      346.536       24.850      860.228
05/25/2014  20:38:00     -465.517      -97.671      -35.122      191.051      194.425      104.252    36500.507    37801.029    10868.396       15.631        4.258      475.653       90.202        0.036      346.528       24.838      860.246
05/25/2014  20:39:00     -400.140      -58.751      -27.880      186.128      191.190       86.480    34643.698    36553.708     7478.865       12.149        3.934      404.430       90.501        0.050      346.516       24.817      860.258
05/25/2014  20:40:00     -448.600      -67.241      -14.644      230.618      207.585       88.838    53184.602    43091.537     7892.217       15.505        5.208      453.612      109.020        0.058      346.494       24.779      860.265
05/25/2014  20:41:00     -449.457      -47.914       -9.635      250.732      152.759      101.955    62866.560    23335.358    10394.841       15.048        4.830      452.004      117.543        0.068      346.483       24.759      860.288
05/25/2014  20:42:00     -543.568     -104.656      -34.661      261.676      176.852       98.072    68474.296    31276.807     9618.113       20.847        5.468      553.551      117.144        0.045      346.495       24.780      860.294
05/25/2014  20:43:00     -250.448      -92.272       -7.922      278.026      191.642       99.841    77298.543    36726.575     9968.165        9.762        6.200      266.905      131.567        0.243      346.457       24.716      860.282
05/25/2014  20:44:00     -146.343      -22.939       17.982      190.732      122.126       85.490    36378.600    14914.787     7308.582        4.042        2.930      148.130       96.698        0.426      346.454       24.712      860.314
05/25/2014  20:45:00     -520.039     -116.046      -20.205      242.304      156.471      102.419    58711.071    24483.040    10489.661       18.898        4.684      532.830      117.752        0.049      346.454       24.710      860.347
05/25/2014  20:46:00     -302.417     -167.731       -4.138      268.640      178.194       97.300    72167.699    31752.971     9467.355       11.647        5.669      345.817      127.586        0.136      346.468       24.734      860.339
05/25/2014  20:47:00     -437.597     -115.196        4.634      262.026      257.047      125.453    68657.705    66073.058    15738.413       17.760        7.523      452.505      140.885        0.097      346.475       24.746      860.304
05/25/2014  20:48:00     -323.845      -77.305      -17.909      187.923      157.780       68.306    35315.181    24894.476     4665.655        8.801        3.244      332.944       72.933        0.048      346.454       24.710      860.317
05/25/2014  20:49:00     -266.701     -124.699       14.084      179.093      175.361       93.227    32074.470    30751.637     8691.213        7.918        3.576      294.413       97.867        0.110      346.427       24.662      860.313
05/25/2014  20:50:00     -438.751     -127.829       -0.902      191.576      217.137       98.124    36701.445    47148.288     9628.403       15.114        4.674      456.993       96.908        0.045      346.463       24.726      860.309
05/25/2014  20:51:00     -413.769     -176.716       -9.692      207.456      197.158      102.253    43037.858    38871.329    10455.712       14.743        4.618      449.926      111.575        0.061      346.447       24.699      860.304
05/25/2014  20:52:00     -191.761      -38.070       -3.699      157.973      103.841       71.562    24955.586    10782.943     5121.096        3.954        2.043      195.503       85.376        0.191      346.378       24.581      860.325
05/25/2014  20:53:00     -237.141      -33.388        5.390      209.807      118.902       90.981    44019.173    14137.720     8277.467        6.189        3.322      239.480      118.520        0.245      346.372       24.568      860.332
05/25/2014  20:54:00     -358.402      -56.104      -15.882      203.581      137.008       86.102    41445.120    18771.303     7413.534        9.973        3.381      362.767       98.886        0.074      346.373       24.569      860.340
05/25/2014  20:55:00     -211.172      -97.324       15.178      206.919      183.234       90.124    42815.607    33574.593     8122.360        6.939        4.226      232.520      103.306        0.197      346.364       24.555      860.348
05/25/2014  20:56:00     -366.732      -88.902        3.650      267.661      162.951      101.416    71642.348    26553.004    10285.165       12.542        5.424      377.354      127.064        0.113      346.371       24.567      860.351
05/25/2014  20:57:00     -102.955      -46.172       12.816      124.292      105.051       56.198    15448.485    11035.684     3158.202        2.126        1.482      112.834       56.824        0.254      346.298       24.444      860.362
05/25/2014  20:58:00     -356.966     -183.247      -10.430      204.847      149.130       96.875    41962.192    22239.845     9384.855       11.734        3.679      401.253       93.671        0.054      346.326       24.492      860.364
05/25/2014  20:59:00     -513.791      -94.236      -55.592      192.306      157.600       85.701    36981.520    24837.796     7344.636       17.254        3.458      522.361      101.621        0.038      346.304       24.452      860.379
05/25/2014  21:00:00     -386.510      -40.096       -5.263      191.678      191.414       85.993    36740.454    36639.360     7394.820       11.588        4.039      388.584       89.373        0.053      346.265       24.384      860.369
05/25/2014  21:01:00     -417.724     -130.258      -11.133      231.519      182.906       98.654    53600.999    33454.537     9732.622       14.417        4.839      437.562      119.809        0.075      346.275       24.402      860.346
05/25/2014  21:02:00     -354.138      -62.077        2.622      186.704      149.066       85.978    34858.344    22220.756     7392.179        9.686        3.224      359.538       85.420        0.056      346.265       24.384      860.364
05/25/2014  21:03:00     -257.210      -62.000       -1.399      178.488      136.620       72.743    31858.015    18665.152     5291.506        6.290        2.791      264.577       85.957        0.106      346.264       24.385      860.362
05/25/2014  21:04:00     -369.381      -58.015      -11.795      194.594      129.326       72.066    37866.912    16725.163     5193.576        9.985        2.989      373.909       74.759        0.040      346.234       24.330      860.379
05/25/2014  21:05:00     -408.207      -67.987      -23.292      148.491      142.572       68.957    22049.445    20326.904     4755.056       10.945        2.357      413.830       70.028        0.029      346.199       24.270      860.400
05/25/2014  21:06:00     -387.261     -126.122       -1.796      300.477      189.675      106.805    90286.165    35976.478    11407.285       15.175        6.883      407.281      136.694        0.113      346.221       24.309      860.392
05/25/2014  21:07:00     -243.760      -31.221        5.879      261.020      137.494       83.144    68131.426    18904.603     6912.856        7.717        4.697      245.751      103.307        0.177      346.218       24.304      860.411
05/25/2014  21:08:00     -463.075     -143.453      -19.300      241.942      197.651      108.323    58535.693    39065.994    11733.884       17.234        5.467      484.786      123.376        0.065      346.234       24.331      860.375
05/25/2014  21:09:00     -120.236     -128.491       30.626      236.096      178.025      104.349    55741.116    31692.890    10888.816        6.509        4.916      175.973      116.607        0.439      346.212       24.294      860.395
05/25/2014  21:10:00     -551.845     -183.733       -7.937      253.452      212.046      102.616    64237.889    44963.368    10530.103       22.902        5.987      581.628      104.953        0.033      346.225       24.316      860.436
05/25/2014  21:11:00     -274.650      -42.739      -12.197      175.795      130.065       72.445    30903.973    16916.883     5248.335        6.523        2.653      277.955       68.461        0.061      346.165       24.212      860.449
05/25/2014  21:12:00     -344.727      -87.473      -21.730      133.395      142.857       83.578    17794.235    20408.195     6985.288        8.606        2.259      355.652       84.975        0.057      346.189       24.251      860.489
05/25/2014  21:13:00      -44.289      -21.533       48.670      120.890       91.091       58.936    14614.407     8297.644     3473.436        1.558        1.319       49.246       55.334        1.263      346.094       24.094      860.489
05/25/2014  21:14:00     -231.798     -127.452       13.683      214.610      156.684       92.496    46057.328    24549.796     8555.493        7.465        3.958      264.527      118.732        0.201      346.116       24.128      860.476
05/25/2014  21:15:00     -461.995     -239.448      -14.217      211.356      220.172      102.295    44671.372    48475.821    10464.186       18.727        5.181      520.360      103.509        0.040      346.130       24.153      860.485
05/25/2014  21:16:00     -451.855     -162.243      -12.591      233.761      147.425       86.032    54644.220    21734.248     7401.471       15.720        4.189      480.100       99.011        0.043      346.123       24.140      860.488
05/25/2014  21:17:00     -387.533     -147.514      -18.922      237.632      138.367      103.102    56468.970    19145.293    10630.094       12.925        4.312      414.659      123.758        0.089      346.099       24.101      860.519
05/25/2014  21:18:00     -375.393     -149.668      -19.764      282.294      184.984       96.843    79689.789    34219.112     9378.523       14.347        6.164      404.129      119.797        0.088      346.100       24.101      860.519
05/25/2014  21:19:00     -321.683     -155.775       -2.965      245.699      180.381      114.439    60368.226    32537.171    13096.369       11.686        5.300      357.416      133.574        0.140      346.090       24.084      860.505
05/25/2014  21:20:00     -326.884     -148.090        8.657      183.527      139.074       78.585    33682.274    19341.443     6175.542        9.402        2.960      358.864       84.224        0.055      346.057       24.026      860.541
05/25/2014  21:21:00     -374.002      -91.040        1.648      323.797      181.955      120.618   104844.381    33107.514    14548.700       15.030        7.625      384.923      151.418        0.155      346.040       23.998      860.553
05/25/2014  21:22:00     -349.524      -61.588      -41.280      208.114      103.583       77.127    43311.508    10729.404     5948.649        9.381        2.999      354.909       73.028        0.042      346.034       23.987      860.563
05/25/2014  21:23:00     -499.890     -121.320      -31.632      244.140      180.950       82.941    59604.545    32742.750     6879.244       18.240        4.961      514.401       79.408        0.024      346.056       24.025      860.573
05/25/2014  21:24:00     -337.368      -68.057      -29.004      198.609      152.875       88.114    39445.363    23370.783     7764.093        9.492        3.529      344.164       93.491        0.074      346.032       23.985      860.592
05/25/2014  21:25:00     -337.157     -160.918        0.269      170.075      135.824       87.730    28925.484    18448.066     7696.638        9.731        2.754      373.589       84.694        0.051      346.027       23.977      860.584
05/25/2014  21:26:00     -466.356     -246.150      -17.151      258.995      187.317      110.615    67078.178    35087.777    12235.634       19.636        5.720      527.331      134.001        0.065      346.014       23.954      860.578
05/25/2014  21:27:00     -561.583     -151.008      -51.936      249.036      180.224      103.576    62019.057    32480.583    10727.933       22.303        5.261      581.531      109.265        0.035      346.025       23.971      860.569
05/25/2014  21:28:00     -241.369     -188.979        5.219      241.263      196.869      111.017    58207.935    38757.523    12324.669       10.162        5.465      306.549      140.286        0.209      345.954       23.850      860.574
05/25/2014  21:29:00     -311.497     -157.948       17.597      211.509      180.047      106.322    44735.994    32416.778    11304.441       10.535        4.423      349.254      121.163        0.120      345.964       23.869      860.598
05/25/2014  21:30:00     -546.556     -219.526      -42.697      232.604      221.517      104.371    54104.576    49069.732    10893.366       23.138        5.703      588.995      116.307        0.039      345.999       23.928      860.625
05/25/2014  21:31:00     -320.883     -227.532      -10.885      265.036      178.667       97.004    70244.325    31921.883     9409.747       13.319        5.579      393.366      125.053        0.101      345.964       23.869      860.614
05/25/2014  21:32:00     -276.430     -233.024       23.254      243.314      193.757      128.753    59201.941    37541.905    16577.304       12.226        5.666      361.544      152.521        0.178      345.974       23.884      860.616
05/25/2014  21:33:00     -161.667      -76.169       20.281      172.384      147.776       88.312    29716.220    21837.812     7799.048        4.584        2.968      178.712       98.704        0.305      345.906       23.769      860.652
05/25/2014  21:34:00     -352.396     -112.143       13.322      209.841      186.928       95.441    44033.177    34942.206     9109.064       11.249        4.404      369.810      105.317        0.081      345.924       23.800      860.658
05/25/2014  21:35:00     -228.641     -132.382      -11.441      213.823      118.341       84.601    45720.382    14004.590     7157.322        6.839        3.344      264.200       81.529        0.095      345.917       23.787      860.660
05/25/2014  21:36:00     -478.071     -213.431      -24.132      255.601      193.751       99.669    65331.630    37539.403     9933.928       19.372        5.640      523.551      111.384        0.045      345.906       23.767      860.681
05/25/2014  21:37:00     -356.202     -176.987       -2.535      198.275      180.910      104.173    39313.049    32728.377    10851.945       12.054        4.145      397.749       96.159        0.058      345.897       23.752      860.695
05/25/2014  21:38:00     -342.154     -108.522        1.654      250.638      188.615      109.050    62819.343    35575.514    11891.877       11.955        5.514      358.952      114.631        0.102      345.923       23.797      860.705
05/25/2014  21:39:00     -374.945     -220.350       -8.854      204.976      180.342      112.920    42015.183    32523.384    12751.026       13.824        4.364      434.900      116.928        0.072      345.891       23.743      860.732
05/25/2014  21:40:00     -384.380     -194.326      -27.685      203.731      154.842       90.304    41506.447    23976.090     8154.779       12.994        3.682      430.709       98.327        0.052      345.892       23.745      860.749
05/25/2014  21:41:00     -404.345     -152.759       -4.528      155.957      149.663       83.733    24322.628    22398.901     7011.135       12.028        2.687      432.239       86.175        0.040      345.872       23.709      860.774
05/25/2014  21:42:00     -471.853     -119.836      -21.707      265.466      244.383       97.477    70472.178    59723.015     9501.806       18.856        6.985      486.833      102.854        0.045      345.867       23.701      860.760
05/25/2014  21:43:00     -454.202     -148.634      -34.704      210.511      194.074       90.444    44314.915    37664.535     8180.158       15.986        4.508      477.903       82.703        0.030      345.851       23.673      860.770
05/25/2014  21:44:00     -351.585     -201.539       -3.712      246.565      179.378      114.511    60794.456    32176.514    13112.857       13.514        5.304      405.253      123.282        0.093      345.827       23.632      860.765
05/25/2014  21:45:00     -297.395      -77.357        2.639      290.432      174.200      113.084    84350.492    30345.698    12788.022       11.093        6.374      307.291      135.394        0.194      345.812       23.608      860.748
05/25/2014  21:46:00     -264.231     -144.199       24.505      217.888      200.637      108.054    47475.044    40255.157    11675.751        9.529        4.970      301.017      117.190        0.152      345.775       23.543      860.793
05/25/2014  21:47:00     -658.944     -222.685      -30.155      249.606      263.704      117.749    62303.317    69539.624    13864.888       31.518        7.285      695.554      130.237        0.035      345.793       23.575      860.798
05/25/2014  21:48:00     -380.383     -146.304       13.798      229.754      178.614       92.504    52786.857    31902.985     8557.042       12.975        4.662      407.549      113.761        0.078      345.783       23.557      860.846
05/25/2014  21:49:00     -231.599      -32.012       16.945      231.958      181.813       98.597    53804.413    33056.113     9721.280        7.575        4.829      233.801      110.732        0.224      345.729       23.466      860.864
05/25/2014  21:50:00     -368.945     -165.842        4.200      230.275      151.845       93.063    53026.800    23056.972     8660.757       12.418        4.237      404.505      105.888        0.069      345.760       23.517      860.881
05/25/2014  21:51:00     -428.732     -179.951        3.178      218.471      197.396      108.114    47729.465    38965.116    11688.597       15.727        4.919      464.966      108.425        0.054      345.739       23.481      860.893
05/25/2014  21:52:00     -434.460     -119.920      -29.420      200.753      224.365       97.645    40301.617    50339.492     9534.475       15.207        5.009      450.707       82.571        0.034      345.711       23.434      860.894
05/25/2014  21:53:00     -470.399      -87.397      -25.122      250.752      196.264       89.455    62876.549    38519.604     8002.259       16.945        5.470      478.449       95.401        0.040      345.725       23.458      860.923
05/25/2014  21:54:00     -297.955     -179.248        6.142      194.820      126.455       81.915    37954.657    15990.906     6710.027        9.079        3.033      347.717       89.955        0.067      345.725       23.459      860.909
05/25/2014  21:55:00     -301.098      -85.352       -1.772      235.405      162.032       98.569    55415.344    26254.479     9715.821        9.465        4.569      312.962      120.807        0.149      345.678       23.378      860.946
05/25/2014  21:56:00     -271.291     -133.815        8.022      193.511      161.889       92.410    37446.692    26208.000     8539.629        8.187        3.610      302.498       93.517        0.096      345.682       23.383      860.965
05/25/2014  21:57:00     -312.330     -113.030       -1.719      227.180      121.277       78.050    51610.625    14708.083     6091.865        9.136        3.621      332.153       90.643        0.074      345.697       23.410      860.990
05/25/2014  21:58:00     -471.383     -138.931      -40.248      247.094      178.818       93.704    61055.588    31975.713     8780.422       17.245        5.091      491.430      104.821        0.045      345.693       23.401      861.003
05/25/2014  21:59:00     -389.360      -64.005      -20.102      201.682      160.586       94.348    40675.798    25787.731     8901.455       11.572        3.768      394.586      101.890        0.067      345.662       23.347      861.026
05/25/2014  22:00:00     -322.097     -118.261       -7.835      184.276      169.953       86.376    33957.808    28884.048     7460.812        9.403        3.515      343.121       72.663        0.045      345.635       23.303      861.035
05/25/2014  22:01:00     -612.690     -113.344      -30.252      245.999      212.672       94.087    60515.520    45229.558     8852.342       25.185        5.730      623.085      113.740        0.033      345.616       23.270      861.025
05/25/2014  22:02:00     -380.775      -87.936       -9.152      179.369      136.451       78.080    32173.181    18618.911     6096.493       10.484        2.844      390.797       88.596        0.051      345.595       23.234      861.031
05/25/2014  22:03:00     -266.606      -91.209      -36.126      186.377      176.941       86.159    34736.560    31308.027     7423.458        7.707        3.673      281.776       75.338        0.071      345.609       23.259      861.039
05/25/2014  22:04:00     -369.712      -43.837      -13.729      249.044      186.069       98.898    62023.036    34621.609     9780.801       12.259        5.321      372.302      114.425        0.094      345.605       23.250      861.033
05/25/2014  22:05:00     -395.471     -120.866      -17.167      166.650      166.247       74.325    27772.252    27637.900     5524.170       11.611        3.047      413.529       76.680        0.034      345.594       23.232      861.064
05/25/2014  22:06:00     -405.646     -114.077      -12.303      270.577      200.237       93.850    73211.725    40094.740     8807.810       14.989        6.106      421.381       96.864        0.053      345.609       23.258      861.042
05/25/2014  22:07:00     -419.800     -195.496       -8.813      280.724      191.833      118.054    78805.796    36799.991    13936.785       17.201        6.477      463.089      143.248        0.096      345.641       23.312      861.040
05/25/2014  22:08:00     -276.010     -133.851       -7.671      192.559      155.311       84.655    37079.124    24121.509     7166.541        8.125        3.418      306.754       91.767        0.089      345.587       23.219      861.057
05/25/2014  22:09:00     -357.114     -116.453      -13.773      170.638      117.081       76.848    29117.374    13708.045     5905.677        9.500        2.437      375.622       82.873        0.049      345.548       23.154      861.073
05/25/2014  22:10:00     -306.308      -91.791       -5.103      182.352      155.204       84.960    33252.420    24088.369     7218.227        8.340        3.228      319.766       87.984        0.076      345.545       23.146      861.071
05/25/2014  22:11:00     -296.834      -41.005      -10.173      162.956      119.061       84.060    26554.580    14175.577     7066.136        6.884        2.390      299.653       83.377        0.077      345.568       23.188      861.074
05/25/2014  22:12:00     -331.054      -87.812        2.027      195.640      136.976       87.612    38274.903    18762.386     7675.832        9.100        3.236      342.502       86.662        0.064      345.575       23.199      861.079
05/25/2014  22:13:00     -351.952     -137.255      -18.600      206.774      138.341       82.144    42755.679    19138.302     6747.633       10.583        3.432      377.768       76.354        0.041      345.562       23.178      861.090
05/25/2014  22:14:00     -336.426     -134.816       -1.082      260.180      153.621       87.804    67693.721    23599.346     7709.520       11.516        4.950      362.434      106.397        0.086      345.502       23.075      861.112
05/25/2014  22:15:00     -244.765      -89.338       -0.224      213.481      129.376       80.343    45574.066    16738.093     6455.047        6.832        3.438      260.560      103.974        0.159      345.468       23.016      861.122
05/25/2014  22:16:00     -366.280      -50.979       -8.548      222.003      136.351       90.502    49285.357    18591.472     8190.684       10.643        3.803      369.810      114.187        0.095      345.465       23.011      861.114
05/25/2014  22:17:00     -364.747      -97.554      -28.653      209.765      179.026       77.614    44001.274    32050.259     6023.896       11.271        4.104      377.568       94.664        0.063      345.462       23.006      861.124
05/25/2014  22:18:00     -304.224      -98.402       12.897      169.220      136.829       92.408    28635.287    18722.231     8539.259        7.914        2.795      319.743       84.099        0.069      345.458       23.000      861.113
05/25/2014  22:19:00     -271.396     -158.952      -11.285      184.514      156.405       81.285    34045.426    24462.548     6607.205        8.207        3.256      314.518       81.098        0.066      345.465       23.011      861.132
05/25/2014  22:20:00     -323.639     -126.806        0.542      185.777      159.510       82.895    34513.026    25443.475     6871.661        9.381        3.341      347.595       98.724        0.081      345.416       22.926      861.124
05/25/2014  22:21:00     -239.585      -98.317        6.505      202.493      164.886       94.124    41003.405    27187.503     8859.279        7.206        3.853      258.973      110.160        0.181      345.392       22.887      861.124
05/25/2014  22:22:00     -484.085      -28.151      -26.731      221.790      137.257       74.493    49190.583    18839.529     5549.152       15.470        3.679      484.903       76.839        0.025      345.404       22.906      861.115
05/25/2014  22:23:00     -324.292      -18.672      -10.825      180.200      140.177       78.875    32472.068    19649.662     6221.322        8.198        2.917      324.829       79.026        0.059      345.415       22.925      861.108
05/25/2014  22:24:00     -462.052      -77.692      -26.031      303.060      146.063      100.433    91845.638    21334.326    10086.784       17.171        6.163      468.538      123.960        0.070      345.412       22.921      861.124
05/25/2014  22:25:00     -281.686      -96.503        5.301      241.225      172.099      109.704    58189.410    29618.141    12034.994        9.424        4.992      297.758      124.476        0.175      345.388       22.880      861.119
05/25/2014  22:26:00     -214.899      -71.967       10.685      219.395      170.556      101.888    48134.176    29089.310    10381.161        6.952        4.380      226.630      126.924        0.314      345.355       22.822      861.111
05/25/2014  22:27:00     -366.358     -114.046      -26.137      205.484      102.889       70.941    42223.637    10586.077     5032.622       10.286        2.892      383.699       73.654        0.037      345.345       22.806      861.136
05/25/2014  22:28:00     -293.858     -101.763      -12.759      142.564      109.888       74.435    20324.365    12075.359     5540.619        6.740        1.897      310.979       63.208        0.041      345.319       22.762      861.142
05/25/2014  22:29:00     -241.711      -33.090        8.928      197.174      125.295       70.681    38877.660    15698.872     4995.838        5.957        2.979      243.965       73.523        0.091      345.295       22.722      861.132
05/25/2014  22:30:00     -220.132      -65.600       15.145      162.541      122.968       67.831    26419.431    15121.218     4601.094        4.956        2.307      229.699       77.448        0.114      345.278       22.691      861.128
05/25/2014  22:31:00     -168.265     -101.247       18.791      204.594      108.286       85.752    41858.703    11725.896     7353.486        4.992        3.047      196.378      100.797        0.263      345.260       22.660      861.129
05/25/2014  22:32:00     -318.806      -17.894       -9.307      113.970      118.758       62.647    12989.269    14103.405     3924.665        6.652        1.551      319.308       67.034        0.044      345.286       22.703      861.141
05/25/2014  22:33:00     -315.688      -78.009      -15.719      167.751      109.939       72.426    28140.243    12086.494     5245.455        7.572        2.274      325.183       76.103        0.055      345.293       22.715      861.127
05/25/2014  22:34:00     -226.010     -107.647      -11.382      154.072       93.500       66.910    23738.296     8742.226     4477.002        4.987        1.848      250.337       75.144        0.090      345.271       22.680      861.111
05/25/2014  22:35:00     -154.482      -34.211        6.433      153.255      105.361       66.576    23487.169    11100.886     4432.352        3.204        1.951      158.225       77.067        0.237      345.223       22.598      861.112
05/25/2014  22:36:00     -399.601     -146.785      -36.271      179.929      127.002       64.551    32374.275    16129.507     4166.780       11.760        2.634      425.708       70.189        0.027      345.290       22.711      861.086
05/25/2014  22:37:00     -182.160     -144.706       -4.964      170.501      130.949       79.612    29070.667    17147.653     6338.112        5.334        2.628      232.641       87.445        0.141      345.247       22.638      861.073
05/25/2014  22:38:00     -158.539      -44.145        4.960      197.710      125.644       68.393    39089.428    15786.501     4677.550        4.332        2.978      164.570       86.844        0.278      345.251       22.644      861.065
05/25/2014  22:39:00     -309.792      -75.208      -16.363      205.632      128.786       85.241    42284.579    16585.940     7266.008        8.400        3.307      318.791      103.312        0.105      345.237       22.621      861.056
05/25/2014  22:40:00     -243.294     -130.449        8.968      186.195      141.275       78.639    34668.425    19958.662     6184.059        6.854        3.041      276.060       90.013        0.106      345.208       22.571      861.038
05/25/2014  22:41:00     -472.633     -112.404      -23.324      189.353      189.726       88.075    35854.711    35995.816     7757.243       15.807        3.980      485.815       93.072        0.037      345.256       22.652      861.028
05/25/2014  22:42:00     -260.946      -95.942       -7.950      141.440      134.238       71.709    20005.293    18019.787     5142.201        6.026        2.158      278.025       72.337        0.068      345.181       22.525      861.030
05/25/2014  22:43:00     -274.834      -60.349        0.791      185.767      134.316       74.700    34509.315    18040.898     5580.123        6.864        2.907      281.382       87.453        0.097      345.153       22.477      861.026
05/25/2014  22:44:00     -296.271      -65.965       -0.506      194.674      115.671       69.786    37897.891    13379.757     4870.127        7.413        2.807      303.526       72.007        0.056      345.179       22.520      861.015
05/25/2014  22:45:00     -386.450       53.850      -15.153      158.964      122.996       69.875    25269.473    15127.998     4882.504        9.887        2.264      390.183       63.267        0.026      345.162       22.491      861.005
05/25/2014  22:46:00     -189.016      -75.400       34.590      187.411      142.487       79.505    35122.833    20302.540     6321.095        5.217        3.087      203.500       82.274        0.163      345.104       22.393      861.002
05/25/2014  22:47:00      -76.090      -27.004       -0.452      105.623       75.931       60.239    11156.202     5765.534     3628.685        1.353        1.028       80.740       58.977        0.534      345.106       22.398      860.999
05/25/2014  22:48:00     -210.915     -110.461        7.128      158.623      144.222       83.877    25161.353    20800.084     7035.415        5.486        2.650      238.090       99.420        0.174      345.125       22.430      860.984
05/25/2014  22:49:00     -257.142       -6.173        0.805      152.585       97.996       73.924    23282.139     9603.134     5464.805        5.225        1.918      257.216       86.095        0.112      345.077       22.347      861.013
05/25/2014  22:50:00     -215.809      -32.624        4.594      147.814      138.938       72.625    21849.067    19303.711     5274.345        4.703        2.321      218.261       76.941        0.124      345.062       22.323      861.001
05/25/2014  22:51:00     -274.300      -53.692       -4.377      164.874      120.834       74.507    27183.408    14600.803     5551.330        6.273        2.367      279.506       86.331        0.095      345.069       22.334      861.019
05/25/2014  22:52:00     -257.361      -32.100      -20.023      135.139       74.274       52.697    18262.598     5516.641     2776.948        4.711        1.328      259.355       60.231        0.054      345.080       22.353      861.038
05/25/2014  22:53:00     -237.981      -70.269        2.051      143.658      114.197       68.593    20637.550    13040.991     4704.985        4.997        1.919      248.138       70.759        0.081      345.095       22.378      861.036
05/25/2014  22:54:00     -263.067      -60.781        3.050      165.660      143.756       71.263    27443.265    20665.771     5078.463        6.304        2.659      269.997       88.617        0.108      345.025       22.257      861.031
05/25/2014  22:55:00     -421.903      -79.344      -27.696      144.798      115.981       67.188    20966.601    13451.575     4514.264       11.199        1.947      429.299       71.719        0.028      345.105       22.395      861.052
05/25/2014  22:56:00     -261.026      -53.353        4.554      166.307       94.952       63.407    27658.075     9015.927     4020.493        5.584        2.035      266.422       66.844        0.063      345.068       22.334      861.087
05/25/2014  22:57:00     -323.065      -18.439      -19.254      172.749      116.170       68.594    29842.113    13495.359     4705.187        7.655        2.402      323.590       64.409        0.040      345.091       22.370      861.091
05/25/2014  22:58:00     -293.153      -70.577       -9.250      187.874      117.809       62.135    35296.607    13878.849     3860.808        7.201        2.652      301.529       71.870        0.057      345.097       22.381      861.095
05/25/2014  22:59:00     -245.776      -22.390        9.159      195.787      149.032       86.824    38332.577    22210.510     7538.321        6.452        3.404      246.794      107.183        0.189      345.017       22.245      861.077
05/25/2014  23:00:00     -293.257      -41.713      -22.288      142.202       84.700       61.125    20221.271     7174.095     3736.276        5.968        1.557      296.209       62.062        0.044      345.106       22.398      861.105
05/25/2014  23:01:00     -334.284       11.686      -25.233      190.716      107.501       63.720    36372.636    11556.442     4060.234        8.224        2.599      334.488       89.973        0.072      345.057       22.313      861.107
05/25/2014  23:02:00     -277.368        7.263      -13.558      159.941      126.238       65.129    25581.003    15936.043     4241.782        6.146        2.288      277.464       71.476        0.066      345.000       22.214      861.106
05/25/2014  23:03:00     -155.413      -20.783        2.257       97.373       79.822       47.322     9481.554     6371.552     2239.410        2.134        0.905      156.796       44.867        0.082      344.973       22.171      861.139
05/25/2014  23:04:00     -292.607      -99.795       -7.397      132.636      140.704       73.171    17592.398    19797.741     5353.986        6.918        2.137      309.157       75.087        0.059      345.080       22.352      861.162
05/25/2014  23:05:00     -222.653       -2.243      -11.107      112.406       89.180       51.615    12635.000     7953.080     2664.136        3.647        1.163      222.664       55.004        0.061      345.023       22.256      861.199
05/25/2014  23:06:00     -429.591      -39.551      -37.965      169.171      159.818       84.712    28618.760    25541.881     7176.098       12.443        3.067      431.408       83.064        0.037      345.081       22.354      861.203
05/25/2014  23:07:00     -140.638        7.854       18.677      125.586       79.291       59.424    15771.737     6287.099     3531.211        2.288        1.280      140.857       69.647        0.244      344.969       22.164      861.215
05/25/2014  23:08:00     -211.918       46.311      -38.811       70.720       89.598       50.026     5001.330     8027.853     2502.555        3.204        0.777      216.919       41.934        0.037      345.038       22.281      861.193
05/25/2014  23:09:00      -88.504       25.204      -14.912       81.944       49.705       30.583     6714.754     2470.604      935.309        0.940        0.506       92.023       21.036        0.052      344.990       22.201      861.178
05/25/2014  23:10:00     -193.615      101.181      -19.361      104.682      136.934       53.069    10958.253    18750.855     2816.287        4.031        1.626      218.459       47.319        0.047      345.023       22.256      861.179
05/25/2014  23:11:00      -36.505       96.503       15.371       63.389       60.864       48.768     4018.183     3704.461     2378.312        1.049        0.505      103.177       38.002        0.136      344.979       22.182      861.179
05/25/2014  23:12:00      -44.125      138.150        6.197       85.857       78.151       49.393     7371.458     6107.647     2439.663        1.849        0.796      145.026       48.201        0.110      344.968       22.163      861.177
05/25/2014  23:13:00        6.147       12.913       -5.810       42.004       42.306       34.187     1764.376     1789.790     1168.772        0.248        0.236       14.301       19.266        1.815      344.965       22.159      861.192
05/25/2014  23:14:00      -33.572       35.240        5.499       66.047       50.169       25.415     4362.241     2516.948      645.937        0.496        0.376       48.672       28.740        0.349      344.901       22.050      861.194
05/25/2014  23:15:00     -114.474      -17.835       -6.279       85.300       63.196       39.928     7276.170     3993.788     1594.255        1.316        0.643      115.855       42.437        0.134      344.985       22.190      861.198
05/25/2014  23:16:00     -129.320      -14.142       -6.712       77.827       84.699       38.465     6056.988     7174.004     1479.575        1.584        0.736      130.091       33.584        0.067      345.075       22.345      861.197
05/25/2014  23:17:00      -18.634       19.913       14.085       42.909       61.158       30.478     1841.190     3740.323      928.908        0.372        0.326       27.271       30.530        1.253      344.807       21.886      861.203
05/25/2014  23:18:00      -24.149      -16.559       -1.607       56.212       50.061       30.835     3159.814     2506.094      950.798        0.374        0.331       29.281       24.039        0.674      344.956       22.143      861.236
05/25/2014  23:19:00       10.737      -27.084       17.006       32.155       34.899       28.800     1033.964     1217.928      829.437        0.211        0.154       29.135       24.459        0.705      344.220       20.884      861.256
05/25/2014  23:20:00       24.923      -35.968       18.555       49.657       33.595       27.379     2465.816     1128.599      749.633        0.330        0.217       43.759       27.328        0.390      344.050       20.594      861.267
05/25/2014  23:21:00      -20.301      -56.795       14.258       61.659       40.614       32.747     3801.820     1649.492     1072.375        0.518        0.326       60.314       30.578        0.257      344.766       21.819      861.289
05/25/2014  23:22:00      -37.078      -22.446       14.528       69.072       56.142       37.027     4770.876     3151.910     1371.012        0.569        0.465       43.343       22.102        0.260      344.782       21.845      861.285
05/25/2014  23:23:00       54.497      -27.096        1.790       35.044       29.930       27.888     1228.056      895.832      777.755        0.330        0.145       60.861       20.062        0.109      343.928       20.386      861.289
05/25/2014  23:24:00     -102.365      -64.662        1.847      102.603       55.663       43.830    10527.450     3098.336     1921.061        1.510        0.777      121.078       49.363        0.166      344.839       21.942      861.295
05/25/2014  23:25:00     -151.091      -63.564      -14.489       52.957       65.091       28.181     2804.423     4236.832      794.188        1.746        0.392      163.917       23.805        0.021      345.002       22.223      861.294
05/25/2014  23:26:00     -150.750      -38.001      -12.585      130.214       62.087       42.324    16955.737     3854.838     1791.354        2.346        1.130      155.466       37.771        0.059      344.943       22.119      861.346
05/25/2014  23:27:00     -223.157      -19.146      -17.382      138.175       72.603       53.518    19092.360     5271.191     2864.136        3.884        1.361      223.977       67.804        0.092      345.045       22.293      861.338
05/25/2014  23:28:00     -167.312      -32.211       10.979      106.774       60.282       41.678    11400.682     3633.903     1737.021        2.296        0.839      170.384       45.982        0.073      344.954       22.137      861.343
05/25/2014  23:29:00      -70.804       25.052        5.069       60.716       41.582       30.711     3686.446     1729.078      943.138        0.601        0.318       75.105       21.104        0.079      344.914       22.071      861.351
05/25/2014  23:30:00       -0.712       68.752        4.306       39.872       33.186       26.729     1589.786     1101.322      714.426        0.408        0.170       68.756       19.276        0.079      344.644       21.609      861.346
05/25/2014  23:31:00      -82.084       74.828      -17.702       34.693       43.863       30.017     1203.628     1923.920      901.019        0.834        0.201      111.072       22.646        0.042      344.892       22.032      861.349
05/25/2014  23:32:00      -98.593       55.515       -8.368       50.216       34.330       28.838     2521.612     1178.527      831.651        0.870        0.227      113.148       24.656        0.047      344.865       21.988      861.351
05/25/2014  23:33:00     -119.027       91.797      -18.097       70.765       46.091       33.474     5007.745     2124.347     1120.507        1.559        0.413      150.314       38.842        0.067      344.900       22.044      861.350
05/25/2014  23:34:00     -132.327       39.002      -11.802       55.102       47.865       39.374     3036.269     2291.080     1550.281        1.302        0.344      137.955       27.320        0.039      344.946       22.126      861.350
05/25/2014  23:35:00     -160.374       48.382      -20.808       73.407       62.914       38.323     5388.606     3958.142     1468.678        1.965        0.541      167.514       35.311        0.044      345.020       22.251      861.349
05/25/2014  23:36:00      -67.386        9.884      -13.158      118.736       43.369       35.160    14098.234     1880.864     1236.201        1.101        0.861       68.107       47.396        0.484      344.975       22.174      861.327
05/25/2014  23:37:00      -55.099      227.006      -23.929       77.328      125.335       40.269     5979.631    15708.840     1621.602        3.922        1.166      233.597       41.954        0.032      345.101       22.389      861.306
05/25/2014  23:38:00      -42.047      291.810      -46.066       94.667      129.259       40.581     8961.848    16707.779     1646.847        5.817        1.366      294.823       50.476        0.029      345.129       22.436      861.279
05/25/2014  23:39:00     -105.595      107.186      -21.303       60.884       58.217       41.451     3706.882     3389.273     1718.226        1.595        0.441      150.463       22.799        0.023      345.084       22.361      861.308
05/25/2014  23:40:00      -16.606       71.356       -1.205       49.915       53.246       33.492     2491.485     2835.151     1121.702        0.591        0.322       73.263       37.755        0.266      344.987       22.196      861.299
05/25/2014  23:41:00       -2.060      185.117      -20.627       67.300       90.820       35.707     4529.328     8248.228     1274.958        2.437        0.703      185.128       43.051        0.054      345.037       22.278      861.289
05/25/2014  23:42:00      -35.265       36.373       -7.361       26.339       26.720       17.447      693.743      713.975      304.409        0.217        0.086       50.662       12.361        0.060      344.991       22.203      861.270
05/25/2014  23:43:00      -14.243      -20.538        4.596       52.962       59.504       18.886     2804.971     3540.766      356.672        0.367        0.335       24.994       11.526        0.213      344.891       22.032      861.286
05/25/2014  23:44:00      -41.312      -22.072        7.912       32.166       25.728       20.230     1034.646      661.938      409.234        0.218        0.105       46.838       20.067        0.184      344.768       21.821      861.270
05/25/2014  23:45:00      -33.928       -1.085       -1.906       30.631       17.760       13.341      938.273      315.408      177.988        0.129        0.072       33.945       12.330        0.132      344.881       22.013      861.275
05/25/2014  23:46:00       10.435      -28.896       19.527       44.174       70.128       28.831     1951.308     4917.994      831.224        0.451        0.385       30.722       32.465        1.117      344.226       20.895      861.262
05/25/2014  23:47:00       -0.269      -45.022       29.732       29.647       55.292       28.541      878.969     3057.162      814.616        0.383        0.238       45.023       31.813        0.499      344.366       21.132      861.275
05/25/2014  23:48:00       40.801     -106.552       -6.011       49.914       63.550       42.224     2491.362     4038.578     1782.892        1.068        0.416      114.097       36.810        0.104      344.628       21.582      861.282
05/25/2014  23:49:00       43.440     -143.963      -22.334       72.163       93.320       56.651     5207.446     8708.593     3209.314        2.011        0.856      150.374       45.354        0.091      344.571       21.482      861.237
05/25/2014  23:50:00       39.790      -37.488        2.739       56.112       40.767       28.465     3148.577     1661.951      810.283        0.431        0.281       54.668       15.018        0.075      344.580       21.499      861.279
05/25/2014  23:51:00       20.219      -52.644       26.470       41.083       46.001       30.869     1687.835     2116.133      952.894        0.432        0.238       56.393       20.447        0.131      344.460       21.295      861.282
05/25/2014  23:52:00       47.173     -102.002        8.627       50.076       53.561       37.269     2507.608     2868.813     1388.989        0.973        0.338      112.382       32.812        0.085      344.337       21.085      861.295
05/25/2014  23:53:00      -19.609      -90.365       -0.729       45.804       30.564       31.370     2097.981      934.161      984.086        0.628        0.201       92.468       15.990        0.030      344.437       21.255      861.338
05/25/2014  23:54:00       34.508      -70.335        6.315       56.741       54.929       33.060     3219.490     3017.240     1092.945        0.675        0.366       78.344       15.546        0.039      344.197       20.845      861.317
05/25/2014  23:55:00        7.833      -60.196        1.750       40.757       59.855       38.069     1661.134     3582.659     1449.230        0.519        0.335       60.704       28.302        0.217      344.368       21.138      861.307
05/25/2014  23:56:00      -13.110       23.175       38.592       48.190       43.564       34.264     2322.288     1897.831     1174.024        0.380        0.270       26.626       25.678        0.930      343.991       20.493      861.338
05/25/2014  23:57:00       71.053      -94.651      -14.239       67.918       63.828       33.941     4612.823     4073.993     1152.015        1.202        0.492      118.352       19.062        0.026      344.445       21.268      861.319
05/25/2014  23:58:00      -61.503     -122.164       14.477      144.739       94.095       53.357    20949.397     8853.873     2846.985        2.578        1.633      136.772       57.698        0.178      344.713       21.723      861.297
05/25/2014  23:59:00      -18.725     -104.524       30.851       57.931       88.910       39.619     3355.948     7905.049     1569.648        1.253        0.642      106.188       42.370        0.159      344.675       21.661      861.305
